<?xml version='1.0' encoding='UTF-8'?><gpx version="1.1" creator="JPX - https://github.com/jenetics/jpx" xmlns="http://www.topografix.com/GPX/1/1"><trk><trkseg><trkpt lat="40.4614818" lon="15.2536326"><ele>433.00000000000006</ele><time>2026-05-05T11:05:51.999Z</time></trkpt><trkpt lat="40.4613911" lon="15.2536725"><ele>433.0</ele><time>2026-05-05T11:05:53.998Z</time></trkpt><trkpt lat="40.4612779" lon="15.2537451"><ele>433.0</ele><time>2026-05-05T11:05:55.999Z</time></trkpt><trkpt lat="40.4612253" lon="15.2537976"><ele>433.0</ele><time>2026-05-05T11:05:56.999Z</time></trkpt><trkpt lat="40.4611661" lon="15.2538324"><ele>433.00000000000006</ele><time>2026-05-05T11:05:57.999Z</time></trkpt><trkpt lat="40.4611026" lon="15.2538575"><ele>433.0</ele><time>2026-05-05T11:05:58.998Z</time></trkpt><trkpt lat="40.4610406" lon="15.2538747"><ele>435.83333333333337</ele><time>2026-05-05T11:05:59.997Z</time></trkpt><trkpt lat="40.4609378" lon="15.2538402"><ele>438.6666666666667</ele><time>2026-05-05T11:06:01.998Z</time></trkpt><trkpt lat="40.4608849" lon="15.2537906"><ele>441.5</ele><time>2026-05-05T11:06:02.998Z</time></trkpt><trkpt lat="40.4608123" lon="15.2537276"><ele>444.33333333333337</ele><time>2026-05-05T11:06:04.998Z</time></trkpt><trkpt lat="40.4607525" lon="15.2538326"><ele>447.1666666666667</ele><time>2026-05-05T11:06:07.999Z</time></trkpt><trkpt lat="40.4607315" lon="15.2539208"><ele>450.0</ele><time>2026-05-05T11:06:08.998Z</time></trkpt><trkpt lat="40.4606673" lon="15.2540313"><ele>450.0</ele><time>2026-05-05T11:06:10.998Z</time></trkpt><trkpt lat="40.4605472" lon="15.2541059"><ele>450.0</ele><time>2026-05-05T11:06:12.997Z</time></trkpt><trkpt lat="40.4604758" lon="15.2541439"><ele>450.0</ele><time>2026-05-05T11:06:13.998Z</time></trkpt><trkpt lat="40.4604046" lon="15.2541741"><ele>450.0</ele><time>2026-05-05T11:06:14.999Z</time></trkpt><trkpt lat="40.4603323" lon="15.2542101"><ele>450.0</ele><time>2026-05-05T11:06:15.998Z</time></trkpt><trkpt lat="40.4602614" lon="15.2542589"><ele>450.0</ele><time>2026-05-05T11:06:16.998Z</time></trkpt><trkpt lat="40.4601942" lon="15.2543204"><ele>455.5</ele><time>2026-05-05T11:06:17.999Z</time></trkpt><trkpt lat="40.4601354" lon="15.2543896"><ele>461.0</ele><time>2026-05-05T11:06:18.998Z</time></trkpt><trkpt lat="40.4600784" lon="15.2544619"><ele>466.5</ele><time>2026-05-05T11:06:19.999Z</time></trkpt><trkpt lat="40.4600094" lon="15.2545157"><ele>472.0</ele><time>2026-05-05T11:06:20.998Z</time></trkpt><trkpt lat="40.4599345" lon="15.2545467"><ele>477.5</ele><time>2026-05-05T11:06:21.999Z</time></trkpt><trkpt lat="40.4598554" lon="15.2545617"><ele>483.0</ele><time>2026-05-05T11:06:22.998Z</time></trkpt><trkpt lat="40.4597712" lon="15.2545571"><ele>483.0</ele><time>2026-05-05T11:06:23.999Z</time></trkpt><trkpt lat="40.4596839" lon="15.2545505"><ele>483.0</ele><time>2026-05-05T11:06:24.998Z</time></trkpt><trkpt lat="40.4596142" lon="15.2545289"><ele>483.0</ele><time>2026-05-05T11:06:25.999Z</time></trkpt><trkpt lat="40.45953" lon="15.2545283"><ele>483.0</ele><time>2026-05-05T11:06:26.998Z</time></trkpt><trkpt lat="40.4594583" lon="15.2545562"><ele>483.0</ele><time>2026-05-05T11:06:27.999Z</time></trkpt><trkpt lat="40.4593883" lon="15.2546028"><ele>483.0</ele><time>2026-05-05T11:06:28.999Z</time></trkpt><trkpt lat="40.459322" lon="15.2546663"><ele>483.8571428571429</ele><time>2026-05-05T11:06:29.999Z</time></trkpt><trkpt lat="40.4592574" lon="15.254728"><ele>484.7142857142857</ele><time>2026-05-05T11:06:30.999Z</time></trkpt><trkpt lat="40.4592029" lon="15.2547808"><ele>485.57142857142856</ele><time>2026-05-05T11:06:31.998Z</time></trkpt><trkpt lat="40.4591448" lon="15.2548133"><ele>486.42857142857144</ele><time>2026-05-05T11:06:32.998Z</time></trkpt><trkpt lat="40.4590781" lon="15.2548189"><ele>487.28571428571433</ele><time>2026-05-05T11:06:33.998Z</time></trkpt><trkpt lat="40.4590196" lon="15.2547797"><ele>488.14285714285717</ele><time>2026-05-05T11:06:34.998Z</time></trkpt><trkpt lat="40.4589831" lon="15.254708"><ele>489.0</ele><time>2026-05-05T11:06:35.999Z</time></trkpt><trkpt lat="40.4589668" lon="15.2546257"><ele>491.3333333333333</ele><time>2026-05-05T11:06:36.999Z</time></trkpt><trkpt lat="40.4589698" lon="15.2545349"><ele>493.66666666666663</ele><time>2026-05-05T11:06:37.999Z</time></trkpt><trkpt lat="40.4589928" lon="15.254449"><ele>496.0</ele><time>2026-05-05T11:06:38.999Z</time></trkpt><trkpt lat="40.4590146" lon="15.2543645"><ele>498.3333333333333</ele><time>2026-05-05T11:06:39.999Z</time></trkpt><trkpt lat="40.4590635" lon="15.2542176"><ele>500.66666666666663</ele><time>2026-05-05T11:06:41.999Z</time></trkpt><trkpt lat="40.4591097" lon="15.2540784"><ele>503.0</ele><time>2026-05-05T11:06:43.999Z</time></trkpt><trkpt lat="40.4591812" lon="15.253959"><ele>505.66666666666663</ele><time>2026-05-05T11:06:45.998Z</time></trkpt><trkpt lat="40.4592347" lon="15.2538944"><ele>508.3333333333333</ele><time>2026-05-05T11:06:46.999Z</time></trkpt><trkpt lat="40.4592962" lon="15.2538315"><ele>511.0</ele><time>2026-05-05T11:06:47.998Z</time></trkpt><trkpt lat="40.4593659" lon="15.2537753"><ele>513.6666666666666</ele><time>2026-05-05T11:06:48.998Z</time></trkpt><trkpt lat="40.4594476" lon="15.2537325"><ele>516.3333333333334</ele><time>2026-05-05T11:06:49.999Z</time></trkpt><trkpt lat="40.4595332" lon="15.2537136"><ele>519.0</ele><time>2026-05-05T11:06:50.998Z</time></trkpt><trkpt lat="40.4596104" lon="15.2536949"><ele>519.0</ele><time>2026-05-05T11:06:51.998Z</time></trkpt><trkpt lat="40.4596687" lon="15.2536508"><ele>519.0</ele><time>2026-05-05T11:06:52.999Z</time></trkpt><trkpt lat="40.4597048" lon="15.2535198"><ele>519.0</ele><time>2026-05-05T11:06:54.999Z</time></trkpt><trkpt lat="40.4596092" lon="15.2534837"><ele>519.0</ele><time>2026-05-05T11:06:56.998Z</time></trkpt><trkpt lat="40.4594771" lon="15.2534371"><ele>519.0</ele><time>2026-05-05T11:06:58.999Z</time></trkpt><trkpt lat="40.4594079" lon="15.2533977"><ele>519.0</ele><time>2026-05-05T11:06:59.999Z</time></trkpt><trkpt lat="40.4593342" lon="15.2533538"><ele>519.0</ele><time>2026-05-05T11:07:00.998Z</time></trkpt><trkpt lat="40.4592659" lon="15.2532937"><ele>519.0</ele><time>2026-05-05T11:07:01.999Z</time></trkpt><trkpt lat="40.4591957" lon="15.2532274"><ele>519.0</ele><time>2026-05-05T11:07:02.999Z</time></trkpt><trkpt lat="40.4591202" lon="15.2531736"><ele>519.0</ele><time>2026-05-05T11:07:03.998Z</time></trkpt><trkpt lat="40.4590495" lon="15.2531312"><ele>519.0</ele><time>2026-05-05T11:07:04.999Z</time></trkpt><trkpt lat="40.4589835" lon="15.2531008"><ele>519.1666666666666</ele><time>2026-05-05T11:07:05.999Z</time></trkpt><trkpt lat="40.4589167" lon="15.2530804"><ele>519.3333333333334</ele><time>2026-05-05T11:07:06.999Z</time></trkpt><trkpt lat="40.458849" lon="15.2530862"><ele>519.5</ele><time>2026-05-05T11:07:07.999Z</time></trkpt><trkpt lat="40.4587769" lon="15.2531334"><ele>519.6666666666667</ele><time>2026-05-05T11:07:08.999Z</time></trkpt><trkpt lat="40.458711" lon="15.2531806"><ele>519.8333333333334</ele><time>2026-05-05T11:07:09.998Z</time></trkpt><trkpt lat="40.4586387" lon="15.2532378"><ele>520.0</ele><time>2026-05-05T11:07:10.999Z</time></trkpt><trkpt lat="40.4585683" lon="15.2533063"><ele>521.6</ele><time>2026-05-05T11:07:11.999Z</time></trkpt><trkpt lat="40.4584952" lon="15.2533884"><ele>523.2</ele><time>2026-05-05T11:07:12.998Z</time></trkpt><trkpt lat="40.4584287" lon="15.253486"><ele>524.8</ele><time>2026-05-05T11:07:13.998Z</time></trkpt><trkpt lat="40.4583521" lon="15.2535827"><ele>526.4</ele><time>2026-05-05T11:07:14.998Z</time></trkpt><trkpt lat="40.4582793" lon="15.2536796"><ele>528.0</ele><time>2026-05-05T11:07:15.998Z</time></trkpt><trkpt lat="40.4582038" lon="15.253786"><ele>528.0</ele><time>2026-05-05T11:07:16.999Z</time></trkpt><trkpt lat="40.458127" lon="15.2538827"><ele>528.0</ele><time>2026-05-05T11:07:17.998Z</time></trkpt><trkpt lat="40.4580444" lon="15.2539751"><ele>528.0</ele><time>2026-05-05T11:07:18.999Z</time></trkpt><trkpt lat="40.4579557" lon="15.2540536"><ele>528.0</ele><time>2026-05-05T11:07:19.999Z</time></trkpt><trkpt lat="40.457859" lon="15.2541146"><ele>528.0</ele><time>2026-05-05T11:07:20.997Z</time></trkpt><trkpt lat="40.4577581" lon="15.2541638"><ele>530.0</ele><time>2026-05-05T11:07:21.999Z</time></trkpt><trkpt lat="40.4576528" lon="15.2542016"><ele>532.0</ele><time>2026-05-05T11:07:22.998Z</time></trkpt><trkpt lat="40.4575489" lon="15.2542398"><ele>534.0</ele><time>2026-05-05T11:07:23.998Z</time></trkpt><trkpt lat="40.4574451" lon="15.254281"><ele>536.0</ele><time>2026-05-05T11:07:24.998Z</time></trkpt><trkpt lat="40.4573448" lon="15.2543334"><ele>538.0</ele><time>2026-05-05T11:07:25.998Z</time></trkpt><trkpt lat="40.4572469" lon="15.2543991"><ele>538.0</ele><time>2026-05-05T11:07:26.999Z</time></trkpt><trkpt lat="40.4571501" lon="15.2544686"><ele>538.0</ele><time>2026-05-05T11:07:27.999Z</time></trkpt><trkpt lat="40.4570482" lon="15.2545193"><ele>538.0</ele><time>2026-05-05T11:07:28.998Z</time></trkpt><trkpt lat="40.4569524" lon="15.254568"><ele>538.0</ele><time>2026-05-05T11:07:29.999Z</time></trkpt><trkpt lat="40.4568725" lon="15.2546107"><ele>538.0</ele><time>2026-05-05T11:07:30.998Z</time></trkpt><trkpt lat="40.4568105" lon="15.2546433"><ele>538.0</ele><time>2026-05-05T11:07:31.998Z</time></trkpt><trkpt lat="40.4567132" lon="15.2547307"><ele>538.0</ele><time>2026-05-05T11:07:33.999Z</time></trkpt><trkpt lat="40.456644" lon="15.2548072"><ele>538.0</ele><time>2026-05-05T11:07:34.999Z</time></trkpt><trkpt lat="40.456577" lon="15.2548887"><ele>538.0</ele><time>2026-05-05T11:07:35.999Z</time></trkpt><trkpt lat="40.4564999" lon="15.2549498"><ele>538.0</ele><time>2026-05-05T11:07:36.999Z</time></trkpt><trkpt lat="40.4564289" lon="15.2550205"><ele>539.0</ele><time>2026-05-05T11:07:37.998Z</time></trkpt><trkpt lat="40.4563675" lon="15.2550968"><ele>540.0</ele><time>2026-05-05T11:07:38.998Z</time></trkpt><trkpt lat="40.4563125" lon="15.255181"><ele>541.0</ele><time>2026-05-05T11:07:39.999Z</time></trkpt><trkpt lat="40.4562638" lon="15.2553076"><ele>542.0</ele><time>2026-05-05T11:07:40.998Z</time></trkpt><trkpt lat="40.4562127" lon="15.2554009"><ele>543.0</ele><time>2026-05-05T11:07:41.999Z</time></trkpt><trkpt lat="40.4561683" lon="15.2554933"><ele>544.0</ele><time>2026-05-05T11:07:42.999Z</time></trkpt><trkpt lat="40.456112" lon="15.2555783"><ele>547.2</ele><time>2026-05-05T11:07:43.999Z</time></trkpt><trkpt lat="40.4560453" lon="15.2556628"><ele>550.4</ele><time>2026-05-05T11:07:44.999Z</time></trkpt><trkpt lat="40.4559813" lon="15.2557605"><ele>553.6</ele><time>2026-05-05T11:07:45.998Z</time></trkpt><trkpt lat="40.4559115" lon="15.2558631"><ele>556.8</ele><time>2026-05-05T11:07:46.999Z</time></trkpt><trkpt lat="40.4558558" lon="15.2559712"><ele>560.0</ele><time>2026-05-05T11:07:47.998Z</time></trkpt><trkpt lat="40.4558062" lon="15.2560634"><ele>560.0</ele><time>2026-05-05T11:07:48.999Z</time></trkpt><trkpt lat="40.4557565" lon="15.2561506"><ele>560.0</ele><time>2026-05-05T11:07:49.998Z</time></trkpt><trkpt lat="40.4556904" lon="15.2562058"><ele>560.0</ele><time>2026-05-05T11:07:50.998Z</time></trkpt><trkpt lat="40.4556241" lon="15.2562628"><ele>560.0</ele><time>2026-05-05T11:07:51.997Z</time></trkpt><trkpt lat="40.4555499" lon="15.256311"><ele>560.0</ele><time>2026-05-05T11:07:52.998Z</time></trkpt><trkpt lat="40.4554641" lon="15.2563404"><ele>560.0</ele><time>2026-05-05T11:07:53.999Z</time></trkpt><trkpt lat="40.4553783" lon="15.2563631"><ele>562.0</ele><time>2026-05-05T11:07:54.999Z</time></trkpt><trkpt lat="40.4553099" lon="15.2563684"><ele>562.0</ele><time>2026-05-05T11:07:55.998Z</time></trkpt><trkpt lat="40.4552467" lon="15.2563663"><ele>562.0</ele><time>2026-05-05T11:07:57.999Z</time></trkpt></trkseg><trkseg><trkpt lat="40.4551336" lon="15.2563537"><ele>562.0</ele><time>2026-05-05T11:21:42.997Z</time></trkpt><trkpt lat="40.4550612" lon="15.2563251"><ele>562.0</ele><time>2026-05-05T11:21:43.998Z</time></trkpt><trkpt lat="40.4549814" lon="15.2562951"><ele>562.0</ele><time>2026-05-05T11:21:44.997Z</time></trkpt><trkpt lat="40.4548956" lon="15.2562697"><ele>562.0</ele><time>2026-05-05T11:21:45.998Z</time></trkpt><trkpt lat="40.4548048" lon="15.2562455"><ele>562.0</ele><time>2026-05-05T11:21:46.996Z</time></trkpt><trkpt lat="40.4547139" lon="15.2562182"><ele>562.0</ele><time>2026-05-05T11:21:47.998Z</time></trkpt><trkpt lat="40.4546325" lon="15.2561766"><ele>566.8000000000001</ele><time>2026-05-05T11:21:48.998Z</time></trkpt><trkpt lat="40.4545568" lon="15.2561202"><ele>571.6</ele><time>2026-05-05T11:21:49.997Z</time></trkpt><trkpt lat="40.4544868" lon="15.2560469"><ele>576.4000000000001</ele><time>2026-05-05T11:21:50.998Z</time></trkpt><trkpt lat="40.4544088" lon="15.2559704"><ele>581.2</ele><time>2026-05-05T11:21:51.996Z</time></trkpt><trkpt lat="40.4543323" lon="15.2558898"><ele>586.0</ele><time>2026-05-05T11:21:52.998Z</time></trkpt><trkpt lat="40.4542553" lon="15.2558059"><ele>586.0</ele><time>2026-05-05T11:21:53.998Z</time></trkpt><trkpt lat="40.4541757" lon="15.2557269"><ele>586.0</ele><time>2026-05-05T11:21:54.997Z</time></trkpt><trkpt lat="40.4540992" lon="15.2556456"><ele>586.0</ele><time>2026-05-05T11:21:55.997Z</time></trkpt><trkpt lat="40.4540189" lon="15.2555693"><ele>586.0</ele><time>2026-05-05T11:21:56.998Z</time></trkpt><trkpt lat="40.4539463" lon="15.2554934"><ele>586.0</ele><time>2026-05-05T11:21:57.998Z</time></trkpt><trkpt lat="40.45387" lon="15.2554176"><ele>584.4</ele><time>2026-05-05T11:21:58.998Z</time></trkpt><trkpt lat="40.4537896" lon="15.2553561"><ele>582.8</ele><time>2026-05-05T11:21:59.998Z</time></trkpt><trkpt lat="40.4536997" lon="15.2553095"><ele>581.1999999999999</ele><time>2026-05-05T11:22:00.998Z</time></trkpt><trkpt lat="40.4536097" lon="15.2552673"><ele>579.6</ele><time>2026-05-05T11:22:01.997Z</time></trkpt><trkpt lat="40.4535106" lon="15.255226"><ele>578.0</ele><time>2026-05-05T11:22:02.997Z</time></trkpt><trkpt lat="40.4534291" lon="15.2551853"><ele>578.0</ele><time>2026-05-05T11:22:03.998Z</time></trkpt><trkpt lat="40.4533375" lon="15.2551617"><ele>578.0</ele><time>2026-05-05T11:22:04.998Z</time></trkpt><trkpt lat="40.4532552" lon="15.2551302"><ele>578.0</ele><time>2026-05-05T11:22:05.998Z</time></trkpt><trkpt lat="40.4531758" lon="15.2550929"><ele>578.0</ele><time>2026-05-05T11:22:06.998Z</time></trkpt><trkpt lat="40.4530976" lon="15.2550455"><ele>578.0</ele><time>2026-05-05T11:22:07.998Z</time></trkpt><trkpt lat="40.4530321" lon="15.2549828"><ele>578.0</ele><time>2026-05-05T11:22:08.997Z</time></trkpt><trkpt lat="40.4529684" lon="15.2549121"><ele>578.6</ele><time>2026-05-05T11:22:09.998Z</time></trkpt><trkpt lat="40.4529105" lon="15.2548344"><ele>579.1999999999999</ele><time>2026-05-05T11:22:10.998Z</time></trkpt><trkpt lat="40.4528485" lon="15.2547444"><ele>579.8</ele><time>2026-05-05T11:22:11.997Z</time></trkpt><trkpt lat="40.4527809" lon="15.2546689"><ele>580.4</ele><time>2026-05-05T11:22:12.998Z</time></trkpt><trkpt lat="40.4527062" lon="15.2545945"><ele>581.0</ele><time>2026-05-05T11:22:13.997Z</time></trkpt><trkpt lat="40.4526311" lon="15.2545178"><ele>581.0</ele><time>2026-05-05T11:22:14.998Z</time></trkpt><trkpt lat="40.4525585" lon="15.2544404"><ele>581.0</ele><time>2026-05-05T11:22:15.997Z</time></trkpt><trkpt lat="40.4524849" lon="15.2543608"><ele>581.0</ele><time>2026-05-05T11:22:16.998Z</time></trkpt><trkpt lat="40.4524107" lon="15.254285"><ele>581.0</ele><time>2026-05-05T11:22:17.998Z</time></trkpt><trkpt lat="40.4523341" lon="15.2542234"><ele>581.0</ele><time>2026-05-05T11:22:18.998Z</time></trkpt><trkpt lat="40.4522557" lon="15.2541769"><ele>581.0</ele><time>2026-05-05T11:22:19.998Z</time></trkpt><trkpt lat="40.4521635" lon="15.254139"><ele>581.0</ele><time>2026-05-05T11:22:20.998Z</time></trkpt><trkpt lat="40.4520864" lon="15.2540624"><ele>581.0</ele><time>2026-05-05T11:22:21.998Z</time></trkpt><trkpt lat="40.4520265" lon="15.2539643"><ele>581.0</ele><time>2026-05-05T11:22:22.997Z</time></trkpt><trkpt lat="40.4519739" lon="15.2538577"><ele>581.0</ele><time>2026-05-05T11:22:23.997Z</time></trkpt><trkpt lat="40.451921" lon="15.2537537"><ele>583.2</ele><time>2026-05-05T11:22:24.997Z</time></trkpt><trkpt lat="40.4518629" lon="15.2536606"><ele>585.4000000000001</ele><time>2026-05-05T11:22:25.997Z</time></trkpt><trkpt lat="40.4517923" lon="15.2535842"><ele>587.6</ele><time>2026-05-05T11:22:26.998Z</time></trkpt><trkpt lat="40.4517109" lon="15.2535314"><ele>589.8000000000001</ele><time>2026-05-05T11:22:27.997Z</time></trkpt><trkpt lat="40.451625" lon="15.2534931"><ele>592.0</ele><time>2026-05-05T11:22:28.996Z</time></trkpt><trkpt lat="40.4515419" lon="15.253467"><ele>592.0</ele><time>2026-05-05T11:22:29.997Z</time></trkpt><trkpt lat="40.4514683" lon="15.2534018"><ele>592.0</ele><time>2026-05-05T11:22:30.998Z</time></trkpt><trkpt lat="40.4514054" lon="15.2533167"><ele>592.0</ele><time>2026-05-05T11:22:31.998Z</time></trkpt><trkpt lat="40.4513494" lon="15.253235"><ele>592.0</ele><time>2026-05-05T11:22:32.997Z</time></trkpt><trkpt lat="40.4512894" lon="15.253163"><ele>592.0</ele><time>2026-05-05T11:22:33.998Z</time></trkpt><trkpt lat="40.4512154" lon="15.2531164"><ele>592.0</ele><time>2026-05-05T11:22:34.998Z</time></trkpt><trkpt lat="40.4511375" lon="15.2531035"><ele>590.6666666666667</ele><time>2026-05-05T11:22:35.998Z</time></trkpt><trkpt lat="40.4510588" lon="15.2531192"><ele>589.3333333333334</ele><time>2026-05-05T11:22:36.998Z</time></trkpt><trkpt lat="40.4509855" lon="15.2531365"><ele>588.0</ele><time>2026-05-05T11:22:37.998Z</time></trkpt><trkpt lat="40.4509231" lon="15.2531491"><ele>586.6666666666666</ele><time>2026-05-05T11:22:38.996Z</time></trkpt><trkpt lat="40.4508017" lon="15.2532074"><ele>585.3333333333333</ele><time>2026-05-05T11:22:40.998Z</time></trkpt><trkpt lat="40.4507422" lon="15.253247"><ele>584.0</ele><time>2026-05-05T11:22:41.998Z</time></trkpt><trkpt lat="40.4506291" lon="15.2533159"><ele>586.5714285714286</ele><time>2026-05-05T11:22:43.997Z</time></trkpt><trkpt lat="40.4505682" lon="15.2533536"><ele>589.1428571428571</ele><time>2026-05-05T11:22:44.997Z</time></trkpt><trkpt lat="40.4505053" lon="15.2533817"><ele>591.7142857142858</ele><time>2026-05-05T11:22:45.997Z</time></trkpt><trkpt lat="40.4504406" lon="15.2534034"><ele>594.2857142857142</ele><time>2026-05-05T11:22:46.998Z</time></trkpt><trkpt lat="40.4503713" lon="15.2534209"><ele>596.8571428571429</ele><time>2026-05-05T11:22:47.998Z</time></trkpt><trkpt lat="40.4503092" lon="15.2534437"><ele>599.4285714285714</ele><time>2026-05-05T11:22:48.997Z</time></trkpt><trkpt lat="40.4502443" lon="15.2534687"><ele>602.0</ele><time>2026-05-05T11:22:49.998Z</time></trkpt><trkpt lat="40.450171" lon="15.2535021"><ele>602.0</ele><time>2026-05-05T11:22:50.998Z</time></trkpt><trkpt lat="40.450099" lon="15.2535473"><ele>602.0</ele><time>2026-05-05T11:22:51.998Z</time></trkpt><trkpt lat="40.4500248" lon="15.2536025"><ele>602.0</ele><time>2026-05-05T11:22:52.998Z</time></trkpt><trkpt lat="40.4499513" lon="15.2536616"><ele>602.0</ele><time>2026-05-05T11:22:53.998Z</time></trkpt><trkpt lat="40.4498779" lon="15.2537197"><ele>602.0</ele><time>2026-05-05T11:22:54.998Z</time></trkpt><trkpt lat="40.4498088" lon="15.2537881"><ele>602.0</ele><time>2026-05-05T11:22:55.998Z</time></trkpt><trkpt lat="40.4497514" lon="15.253869"><ele>602.3333333333333</ele><time>2026-05-05T11:22:56.997Z</time></trkpt><trkpt lat="40.4496972" lon="15.2539578"><ele>602.6666666666666</ele><time>2026-05-05T11:22:57.998Z</time></trkpt><trkpt lat="40.4496469" lon="15.2540401"><ele>603.0</ele><time>2026-05-05T11:22:58.997Z</time></trkpt><trkpt lat="40.4495916" lon="15.254116"><ele>603.3333333333334</ele><time>2026-05-05T11:22:59.998Z</time></trkpt><trkpt lat="40.4495299" lon="15.2541856"><ele>603.6666666666667</ele><time>2026-05-05T11:23:00.997Z</time></trkpt><trkpt lat="40.4494651" lon="15.2542535"><ele>604.0</ele><time>2026-05-05T11:23:01.998Z</time></trkpt><trkpt lat="40.449393" lon="15.25432"><ele>602.4</ele><time>2026-05-05T11:23:02.998Z</time></trkpt><trkpt lat="40.4493193" lon="15.2543914"><ele>600.8</ele><time>2026-05-05T11:23:03.998Z</time></trkpt><trkpt lat="40.4492457" lon="15.2544609"><ele>599.2</ele><time>2026-05-05T11:23:04.997Z</time></trkpt><trkpt lat="40.4491784" lon="15.2545398"><ele>597.6</ele><time>2026-05-05T11:23:05.997Z</time></trkpt><trkpt lat="40.4491143" lon="15.2546255"><ele>596.0</ele><time>2026-05-05T11:23:06.997Z</time></trkpt><trkpt lat="40.4490573" lon="15.2547213"><ele>594.4</ele><time>2026-05-05T11:23:07.998Z</time></trkpt><trkpt lat="40.4490083" lon="15.2548245"><ele>592.8</ele><time>2026-05-05T11:23:08.997Z</time></trkpt><trkpt lat="40.4489677" lon="15.2549393"><ele>591.1999999999999</ele><time>2026-05-05T11:23:09.997Z</time></trkpt><trkpt lat="40.4489242" lon="15.255053"><ele>589.6</ele><time>2026-05-05T11:23:10.997Z</time></trkpt><trkpt lat="40.4488982" lon="15.2551725"><ele>588.0</ele><time>2026-05-05T11:23:11.998Z</time></trkpt><trkpt lat="40.4488599" lon="15.2552792"><ele>588.0</ele><time>2026-05-05T11:23:12.998Z</time></trkpt><trkpt lat="40.4488127" lon="15.2553682"><ele>588.0</ele><time>2026-05-05T11:23:13.997Z</time></trkpt><trkpt lat="40.4487526" lon="15.2554206"><ele>588.0</ele><time>2026-05-05T11:23:14.997Z</time></trkpt><trkpt lat="40.4486775" lon="15.2554346"><ele>588.0</ele><time>2026-05-05T11:23:15.997Z</time></trkpt><trkpt lat="40.4485962" lon="15.2554081"><ele>588.0</ele><time>2026-05-05T11:23:16.996Z</time></trkpt><trkpt lat="40.4485222" lon="15.2553529"><ele>588.0</ele><time>2026-05-05T11:23:17.997Z</time></trkpt><trkpt lat="40.4484543" lon="15.2552974"><ele>586.3333333333334</ele><time>2026-05-05T11:23:18.996Z</time></trkpt><trkpt lat="40.4483795" lon="15.2552462"><ele>584.6666666666666</ele><time>2026-05-05T11:23:19.997Z</time></trkpt><trkpt lat="40.4483006" lon="15.2552006"><ele>583.0</ele><time>2026-05-05T11:23:20.997Z</time></trkpt><trkpt lat="40.4482227" lon="15.2551516"><ele>581.3333333333333</ele><time>2026-05-05T11:23:21.996Z</time></trkpt><trkpt lat="40.4481407" lon="15.2550969"><ele>579.6666666666666</ele><time>2026-05-05T11:23:22.997Z</time></trkpt><trkpt lat="40.4480632" lon="15.255049"><ele>578.0</ele><time>2026-05-05T11:23:23.996Z</time></trkpt><trkpt lat="40.4479814" lon="15.2549964"><ele>577.6</ele><time>2026-05-05T11:23:24.997Z</time></trkpt><trkpt lat="40.4478929" lon="15.2549431"><ele>577.1999999999999</ele><time>2026-05-05T11:23:25.996Z</time></trkpt><trkpt lat="40.4478032" lon="15.2548848"><ele>576.8</ele><time>2026-05-05T11:23:26.997Z</time></trkpt><trkpt lat="40.447712" lon="15.2548329"><ele>576.4</ele><time>2026-05-05T11:23:27.997Z</time></trkpt><trkpt lat="40.4476236" lon="15.2547892"><ele>576.0</ele><time>2026-05-05T11:23:28.996Z</time></trkpt><trkpt lat="40.4475385" lon="15.2547527"><ele>574.5</ele><time>2026-05-05T11:23:29.997Z</time></trkpt><trkpt lat="40.4474496" lon="15.2547202"><ele>573.0</ele><time>2026-05-05T11:23:30.997Z</time></trkpt><trkpt lat="40.4473669" lon="15.2546817"><ele>571.5</ele><time>2026-05-05T11:23:31.997Z</time></trkpt><trkpt lat="40.4472864" lon="15.2546363"><ele>570.0</ele><time>2026-05-05T11:23:32.996Z</time></trkpt><trkpt lat="40.4472133" lon="15.254586"><ele>568.5</ele><time>2026-05-05T11:23:33.997Z</time></trkpt><trkpt lat="40.447134" lon="15.2545523"><ele>567.0</ele><time>2026-05-05T11:23:34.997Z</time></trkpt><trkpt lat="40.4470483" lon="15.2545331"><ele>566.1666666666666</ele><time>2026-05-05T11:23:35.997Z</time></trkpt><trkpt lat="40.4469702" lon="15.254521"><ele>565.3333333333334</ele><time>2026-05-05T11:23:36.995Z</time></trkpt><trkpt lat="40.4469009" lon="15.2545123"><ele>564.5</ele><time>2026-05-05T11:23:37.997Z</time></trkpt><trkpt lat="40.4468334" lon="15.2544995"><ele>563.6666666666667</ele><time>2026-05-05T11:23:38.997Z</time></trkpt><trkpt lat="40.4467066" lon="15.2545103"><ele>562.8333333333334</ele><time>2026-05-05T11:23:40.997Z</time></trkpt><trkpt lat="40.4466078" lon="15.2545345"><ele>562.0</ele><time>2026-05-05T11:23:42.997Z</time></trkpt><trkpt lat="40.4465319" lon="15.2545551"><ele>562.0</ele><time>2026-05-05T11:23:44.996Z</time></trkpt><trkpt lat="40.4464409" lon="15.2545406"><ele>562.0</ele><time>2026-05-05T11:24:18.997Z</time></trkpt><trkpt lat="40.4463508" lon="15.2545419"><ele>562.0</ele><time>2026-05-05T11:24:20.996Z</time></trkpt><trkpt lat="40.4462475" lon="15.2545452"><ele>562.0</ele><time>2026-05-05T11:24:22.995Z</time></trkpt><trkpt lat="40.4461439" lon="15.254558"><ele>562.0</ele><time>2026-05-05T11:24:24.997Z</time></trkpt><trkpt lat="40.4460367" lon="15.2545644"><ele>559.0</ele><time>2026-05-05T11:24:26.997Z</time></trkpt><trkpt lat="40.4459242" lon="15.2545584"><ele>556.0</ele><time>2026-05-05T11:24:28.997Z</time></trkpt><trkpt lat="40.4458085" lon="15.2545627"><ele>553.0</ele><time>2026-05-05T11:24:30.996Z</time></trkpt><trkpt lat="40.4456946" lon="15.2545533"><ele>550.0</ele><time>2026-05-05T11:24:32.997Z</time></trkpt><trkpt lat="40.4455909" lon="15.2545326"><ele>547.0</ele><time>2026-05-05T11:24:34.997Z</time></trkpt><trkpt lat="40.4455123" lon="15.2544865"><ele>545.3333333333334</ele><time>2026-05-05T11:24:36.997Z</time></trkpt><trkpt lat="40.4454355" lon="15.2544512"><ele>543.6666666666667</ele><time>2026-05-05T11:24:38.996Z</time></trkpt><trkpt lat="40.4453543" lon="15.2544234"><ele>542.0</ele><time>2026-05-05T11:24:40.997Z</time></trkpt><trkpt lat="40.4452724" lon="15.2543999"><ele>540.3333333333334</ele><time>2026-05-05T11:24:42.996Z</time></trkpt><trkpt lat="40.4451795" lon="15.2543739"><ele>538.6666666666666</ele><time>2026-05-05T11:24:44.997Z</time></trkpt><trkpt lat="40.4451008" lon="15.2543512"><ele>537.0</ele><time>2026-05-05T11:24:46.996Z</time></trkpt><trkpt lat="40.4450375" lon="15.2543466"><ele>537.0</ele><time>2026-05-05T11:24:51.996Z</time></trkpt><trkpt lat="40.4449927" lon="15.2544108"><ele>537.0</ele><time>2026-05-05T11:24:54.996Z</time></trkpt><trkpt lat="40.4449169" lon="15.2544763"><ele>537.0</ele><time>2026-05-05T11:24:57.997Z</time></trkpt><trkpt lat="40.4448537" lon="15.2544988"><ele>537.0</ele><time>2026-05-05T11:24:59.997Z</time></trkpt><trkpt lat="40.444771" lon="15.2544729"><ele>537.0</ele><time>2026-05-05T11:25:01.996Z</time></trkpt><trkpt lat="40.4446772" lon="15.2544258"><ele>537.0</ele><time>2026-05-05T11:25:03.997Z</time></trkpt><trkpt lat="40.4445993" lon="15.2543789"><ele>535.5714285714286</ele><time>2026-05-05T11:25:05.997Z</time></trkpt><trkpt lat="40.4445186" lon="15.2543514"><ele>534.1428571428571</ele><time>2026-05-05T11:25:08.997Z</time></trkpt><trkpt lat="40.4444635" lon="15.2543934"><ele>532.7142857142858</ele><time>2026-05-05T11:25:12.997Z</time></trkpt><trkpt lat="40.4444606" lon="15.2544906"><ele>531.2857142857142</ele><time>2026-05-05T11:26:55.997Z</time></trkpt><trkpt lat="40.4444432" lon="15.2545826"><ele>529.8571428571429</ele><time>2026-05-05T11:26:58.997Z</time></trkpt><trkpt lat="40.4444475" lon="15.2546799"><ele>528.4285714285714</ele><time>2026-05-05T11:27:01.996Z</time></trkpt><trkpt lat="40.4444482" lon="15.2547684"><ele>527.0</ele><time>2026-05-05T11:27:04.997Z</time></trkpt><trkpt lat="40.4443539" lon="15.254769"><ele>527.0</ele><time>2026-05-05T11:27:09.996Z</time></trkpt><trkpt lat="40.4442637" lon="15.2547524"><ele>527.0</ele><time>2026-05-05T11:27:11.997Z</time></trkpt><trkpt lat="40.4441701" lon="15.2547356"><ele>527.0</ele><time>2026-05-05T11:27:13.997Z</time></trkpt><trkpt lat="40.4440741" lon="15.2547184"><ele>527.0</ele><time>2026-05-05T11:27:15.997Z</time></trkpt><trkpt lat="40.443977" lon="15.2546949"><ele>527.0</ele><time>2026-05-05T11:27:17.996Z</time></trkpt><trkpt lat="40.4438778" lon="15.2546737"><ele>523.1666666666666</ele><time>2026-05-05T11:27:19.997Z</time></trkpt><trkpt lat="40.4437915" lon="15.2546365"><ele>519.3333333333333</ele><time>2026-05-05T11:27:21.997Z</time></trkpt><trkpt lat="40.4437039" lon="15.2546168"><ele>515.5</ele><time>2026-05-05T11:27:23.997Z</time></trkpt><trkpt lat="40.4436332" lon="15.2546111"><ele>511.66666666666663</ele><time>2026-05-05T11:27:26.997Z</time></trkpt><trkpt lat="40.4435745" lon="15.2545705"><ele>507.8333333333333</ele><time>2026-05-05T11:27:29.996Z</time></trkpt><trkpt lat="40.4434996" lon="15.2544884"><ele>504.0</ele><time>2026-05-05T11:27:31.995Z</time></trkpt><trkpt lat="40.4434327" lon="15.2544128"><ele>504.0</ele><time>2026-05-05T11:27:33.996Z</time></trkpt><trkpt lat="40.4433387" lon="15.2543421"><ele>504.0</ele><time>2026-05-05T11:27:35.996Z</time></trkpt><trkpt lat="40.4432348" lon="15.2542975"><ele>504.0</ele><time>2026-05-05T11:27:37.997Z</time></trkpt><trkpt lat="40.4431377" lon="15.2542561"><ele>504.0</ele><time>2026-05-05T11:27:39.996Z</time></trkpt><trkpt lat="40.4430461" lon="15.2542084"><ele>504.0</ele><time>2026-05-05T11:27:41.997Z</time></trkpt><trkpt lat="40.4429526" lon="15.25415"><ele>500.1666666666667</ele><time>2026-05-05T11:27:43.996Z</time></trkpt><trkpt lat="40.4428698" lon="15.2541032"><ele>496.33333333333337</ele><time>2026-05-05T11:27:45.995Z</time></trkpt><trkpt lat="40.4427857" lon="15.2540548"><ele>492.5</ele><time>2026-05-05T11:27:47.996Z</time></trkpt><trkpt lat="40.4427121" lon="15.2539711"><ele>488.6666666666667</ele><time>2026-05-05T11:27:49.997Z</time></trkpt><trkpt lat="40.4426699" lon="15.2538701"><ele>484.83333333333337</ele><time>2026-05-05T11:27:51.996Z</time></trkpt><trkpt lat="40.4426657" lon="15.253764"><ele>481.0</ele><time>2026-05-05T11:27:53.997Z</time></trkpt><trkpt lat="40.4426609" lon="15.2536547"><ele>481.00000000000006</ele><time>2026-05-05T11:27:56.996Z</time></trkpt><trkpt lat="40.4425947" lon="15.2536456"><ele>481.0</ele><time>2026-05-05T11:27:59.996Z</time></trkpt><trkpt lat="40.4425812" lon="15.2537374"><ele>481.0</ele><time>2026-05-05T11:28:51.997Z</time></trkpt><trkpt lat="40.4425432" lon="15.2538729"><ele>481.0</ele><time>2026-05-05T11:28:53.997Z</time></trkpt><trkpt lat="40.442508" lon="15.2540037"><ele>481.00000000000006</ele><time>2026-05-05T11:28:55.997Z</time></trkpt><trkpt lat="40.4425468" lon="15.254083"><ele>481.0</ele><time>2026-05-05T11:28:56.995Z</time></trkpt><trkpt lat="40.4425918" lon="15.254156"><ele>481.00000000000006</ele><time>2026-05-05T11:28:57.997Z</time></trkpt><trkpt lat="40.4426448" lon="15.2542381"><ele>481.0</ele><time>2026-05-05T11:28:58.996Z</time></trkpt><trkpt lat="40.4426912" lon="15.2543137"><ele>481.0</ele><time>2026-05-05T11:28:59.995Z</time></trkpt><trkpt lat="40.4427363" lon="15.254393"><ele>481.0</ele><time>2026-05-05T11:29:00.996Z</time></trkpt><trkpt lat="40.4427751" lon="15.2544774"><ele>481.00000000000006</ele><time>2026-05-05T11:29:01.997Z</time></trkpt><trkpt lat="40.4427993" lon="15.2545746"><ele>481.0</ele><time>2026-05-05T11:29:02.997Z</time></trkpt><trkpt lat="40.4428165" lon="15.2546725"><ele>481.00000000000006</ele><time>2026-05-05T11:29:03.996Z</time></trkpt><trkpt lat="40.4428269" lon="15.2547622"><ele>481.0</ele><time>2026-05-05T11:29:04.997Z</time></trkpt><trkpt lat="40.4428314" lon="15.2548487"><ele>481.0</ele><time>2026-05-05T11:29:05.995Z</time></trkpt><trkpt lat="40.4428361" lon="15.2549353"><ele>481.0</ele><time>2026-05-05T11:29:06.997Z</time></trkpt><trkpt lat="40.4428407" lon="15.2550198"><ele>481.00000000000006</ele><time>2026-05-05T11:29:07.996Z</time></trkpt><trkpt lat="40.4428521" lon="15.255178"><ele>481.0</ele><time>2026-05-05T11:29:09.997Z</time></trkpt><trkpt lat="40.4428477" lon="15.2553205"><ele>477.75</ele><time>2026-05-05T11:29:11.997Z</time></trkpt><trkpt lat="40.442763" lon="15.2550895"><ele>474.5</ele><time>2026-05-05T11:36:06.996Z</time></trkpt><trkpt lat="40.4426566" lon="15.2551123"><ele>471.25</ele><time>2026-05-05T11:36:09.995Z</time></trkpt><trkpt lat="40.4425763" lon="15.2550848"><ele>468.0</ele><time>2026-05-05T11:36:12.996Z</time></trkpt><trkpt lat="40.4425649" lon="15.2549816"><ele>468.0</ele><time>2026-05-05T11:36:14.994Z</time></trkpt><trkpt lat="40.4425403" lon="15.254847"><ele>467.99999999999994</ele><time>2026-05-05T11:36:16.996Z</time></trkpt><trkpt lat="40.4424896" lon="15.2547149"><ele>467.99999999999994</ele><time>2026-05-05T11:36:18.995Z</time></trkpt><trkpt lat="40.4424114" lon="15.2546071"><ele>468.0</ele><time>2026-05-05T11:36:20.996Z</time></trkpt><trkpt lat="40.4423248" lon="15.2545246"><ele>468.0</ele><time>2026-05-05T11:36:22.995Z</time></trkpt><trkpt lat="40.4422571" lon="15.2545273"><ele>468.0</ele><time>2026-05-05T11:36:24.994Z</time></trkpt><trkpt lat="40.4422684" lon="15.2546224"><ele>467.99999999999994</ele><time>2026-05-05T11:36:26.995Z</time></trkpt><trkpt lat="40.4423306" lon="15.2547318"><ele>467.99999999999994</ele><time>2026-05-05T11:36:28.995Z</time></trkpt><trkpt lat="40.4423879" lon="15.2548634"><ele>468.0</ele><time>2026-05-05T11:36:30.996Z</time></trkpt><trkpt lat="40.4423947" lon="15.2550121"><ele>468.0</ele><time>2026-05-05T11:36:32.996Z</time></trkpt><trkpt lat="40.4423678" lon="15.2551629"><ele>468.0</ele><time>2026-05-05T11:36:34.996Z</time></trkpt><trkpt lat="40.4423175" lon="15.2553061"><ele>467.99999999999994</ele><time>2026-05-05T11:36:36.996Z</time></trkpt><trkpt lat="40.4422396" lon="15.2554086"><ele>467.99999999999994</ele><time>2026-05-05T11:36:38.995Z</time></trkpt><trkpt lat="40.4421718" lon="15.2554353"><ele>468.0</ele><time>2026-05-05T11:36:40.995Z</time></trkpt><trkpt lat="40.4421134" lon="15.2553364"><ele>468.0</ele><time>2026-05-05T11:36:47.996Z</time></trkpt><trkpt lat="40.4420964" lon="15.2552143"><ele>466.0</ele><time>2026-05-05T11:36:49.996Z</time></trkpt><trkpt lat="40.4420633" lon="15.255103"><ele>463.99999999999994</ele><time>2026-05-05T11:36:51.996Z</time></trkpt><trkpt lat="40.4420004" lon="15.2549812"><ele>461.99999999999994</ele><time>2026-05-05T11:36:53.995Z</time></trkpt><trkpt lat="40.4419342" lon="15.2548641"><ele>460.0</ele><time>2026-05-05T11:36:55.996Z</time></trkpt><trkpt lat="40.441869" lon="15.2547689"><ele>458.0</ele><time>2026-05-05T11:36:57.995Z</time></trkpt><trkpt lat="40.4418075" lon="15.2546959"><ele>457.99999999999994</ele><time>2026-05-05T11:36:59.996Z</time></trkpt><trkpt lat="40.4417402" lon="15.254646"><ele>458.0</ele><time>2026-05-05T11:37:01.995Z</time></trkpt><trkpt lat="40.4416824" lon="15.2545917"><ele>458.0</ele><time>2026-05-05T11:37:03.995Z</time></trkpt><trkpt lat="40.4416175" lon="15.2545439"><ele>458.0</ele><time>2026-05-05T11:37:06.995Z</time></trkpt><trkpt lat="40.4416186" lon="15.2546357"><ele>457.99999999999994</ele><time>2026-05-05T11:37:41.995Z</time></trkpt><trkpt lat="40.4416728" lon="15.2547526"><ele>458.0</ele><time>2026-05-05T11:37:44.995Z</time></trkpt><trkpt lat="40.4416864" lon="15.2548746"><ele>455.4</ele><time>2026-05-05T11:37:46.995Z</time></trkpt><trkpt lat="40.4416847" lon="15.2550139"><ele>452.79999999999995</ele><time>2026-05-05T11:37:48.995Z</time></trkpt><trkpt lat="40.4416639" lon="15.2551705"><ele>450.2</ele><time>2026-05-05T11:37:50.996Z</time></trkpt><trkpt lat="40.4416191" lon="15.2553242"><ele>447.6</ele><time>2026-05-05T11:37:52.996Z</time></trkpt><trkpt lat="40.4415981" lon="15.2554053"><ele>445.0</ele><time>2026-05-05T11:37:53.995Z</time></trkpt><trkpt lat="40.4415862" lon="15.2554897"><ele>445.0</ele><time>2026-05-05T11:37:54.996Z</time></trkpt><trkpt lat="40.4415801" lon="15.2555724"><ele>445.0</ele><time>2026-05-05T11:37:55.996Z</time></trkpt><trkpt lat="40.4415492" lon="15.2556936"><ele>445.0</ele><time>2026-05-05T11:37:57.996Z</time></trkpt><trkpt lat="40.4414697" lon="15.2557754"><ele>445.0</ele><time>2026-05-05T11:37:59.994Z</time></trkpt><trkpt lat="40.4413944" lon="15.2558529"><ele>445.0</ele><time>2026-05-05T11:38:01.996Z</time></trkpt><trkpt lat="40.4413291" lon="15.2559395"><ele>439.50000000000006</ele><time>2026-05-05T11:38:03.995Z</time></trkpt><trkpt lat="40.4412981" lon="15.2560205"><ele>434.0</ele><time>2026-05-05T11:38:04.996Z</time></trkpt><trkpt lat="40.4412902" lon="15.2561056"><ele>428.5</ele><time>2026-05-05T11:38:05.996Z</time></trkpt><trkpt lat="40.4412899" lon="15.2561895"><ele>423.0</ele><time>2026-05-05T11:38:06.995Z</time></trkpt><trkpt lat="40.4412865" lon="15.2562793"><ele>417.50000000000006</ele><time>2026-05-05T11:38:07.996Z</time></trkpt><trkpt lat="40.4412977" lon="15.2564372"><ele>412.0</ele><time>2026-05-05T11:38:09.996Z</time></trkpt><trkpt lat="40.4412339" lon="15.2565776"><ele>412.00000000000006</ele><time>2026-05-05T11:38:11.994Z</time></trkpt><trkpt lat="40.4411874" lon="15.2566473"><ele>412.0</ele><time>2026-05-05T11:38:12.995Z</time></trkpt><trkpt lat="40.4411686" lon="15.256728"><ele>412.0</ele><time>2026-05-05T11:38:13.996Z</time></trkpt><trkpt lat="40.4411398" lon="15.2568794"><ele>412.0</ele><time>2026-05-05T11:38:15.996Z</time></trkpt><trkpt lat="40.4410796" lon="15.2570042"><ele>412.00000000000006</ele><time>2026-05-05T11:38:17.995Z</time></trkpt><trkpt lat="40.4410331" lon="15.2570606"><ele>412.0</ele><time>2026-05-05T11:38:18.996Z</time></trkpt><trkpt lat="40.4409385" lon="15.2571011"><ele>412.00000000000006</ele><time>2026-05-05T11:38:20.996Z</time></trkpt><trkpt lat="40.4408589" lon="15.2571396"><ele>412.0</ele><time>2026-05-05T11:38:21.995Z</time></trkpt><trkpt lat="40.4407905" lon="15.2571868"><ele>412.0</ele><time>2026-05-05T11:38:22.995Z</time></trkpt><trkpt lat="40.4407221" lon="15.2572429"><ele>412.0</ele><time>2026-05-05T11:38:23.996Z</time></trkpt><trkpt lat="40.4406474" lon="15.2573076"><ele>412.00000000000006</ele><time>2026-05-05T11:38:24.996Z</time></trkpt><trkpt lat="40.4405833" lon="15.2573535"><ele>412.0</ele><time>2026-05-05T11:38:25.994Z</time></trkpt><trkpt lat="40.4405206" lon="15.2574011"><ele>409.6</ele><time>2026-05-05T11:38:26.995Z</time></trkpt><trkpt lat="40.4404598" lon="15.2574538"><ele>407.20000000000005</ele><time>2026-05-05T11:38:27.995Z</time></trkpt><trkpt lat="40.4403946" lon="15.2575087"><ele>404.8</ele><time>2026-05-05T11:38:28.996Z</time></trkpt><trkpt lat="40.4403342" lon="15.2575623"><ele>402.4</ele><time>2026-05-05T11:38:29.995Z</time></trkpt><trkpt lat="40.4402375" lon="15.2576409"><ele>400.0</ele><time>2026-05-05T11:38:31.996Z</time></trkpt><trkpt lat="40.4401065" lon="15.2576345"><ele>400.00000000000006</ele><time>2026-05-05T11:38:33.996Z</time></trkpt><trkpt lat="40.4400338" lon="15.2576005"><ele>400.0</ele><time>2026-05-05T11:38:34.996Z</time></trkpt><trkpt lat="40.4399563" lon="15.2575677"><ele>400.0</ele><time>2026-05-05T11:38:35.996Z</time></trkpt><trkpt lat="40.4398749" lon="15.2575364"><ele>400.0</ele><time>2026-05-05T11:38:36.996Z</time></trkpt><trkpt lat="40.4397953" lon="15.257507"><ele>400.00000000000006</ele><time>2026-05-05T11:38:37.995Z</time></trkpt><trkpt lat="40.439718" lon="15.2574786"><ele>400.0</ele><time>2026-05-05T11:38:38.996Z</time></trkpt><trkpt lat="40.4396433" lon="15.2574529"><ele>397.33333333333337</ele><time>2026-05-05T11:38:39.995Z</time></trkpt><trkpt lat="40.4395646" lon="15.2574143"><ele>394.6666666666667</ele><time>2026-05-05T11:38:40.996Z</time></trkpt><trkpt lat="40.4394921" lon="15.2573783"><ele>392.0</ele><time>2026-05-05T11:38:41.996Z</time></trkpt><trkpt lat="40.4394188" lon="15.2573448"><ele>389.33333333333337</ele><time>2026-05-05T11:38:42.996Z</time></trkpt><trkpt lat="40.4393457" lon="15.2573148"><ele>386.6666666666667</ele><time>2026-05-05T11:38:43.996Z</time></trkpt><trkpt lat="40.4392724" lon="15.257293"><ele>384.0</ele><time>2026-05-05T11:38:44.996Z</time></trkpt><trkpt lat="40.439195" lon="15.2572724"><ele>383.99999999999994</ele><time>2026-05-05T11:38:45.995Z</time></trkpt><trkpt lat="40.439118" lon="15.2572551"><ele>384.0</ele><time>2026-05-05T11:38:46.994Z</time></trkpt><trkpt lat="40.4390425" lon="15.257235"><ele>384.0</ele><time>2026-05-05T11:38:47.995Z</time></trkpt><trkpt lat="40.43897" lon="15.2572131"><ele>384.0</ele><time>2026-05-05T11:38:48.995Z</time></trkpt><trkpt lat="40.4389011" lon="15.2571846"><ele>384.0</ele><time>2026-05-05T11:38:49.995Z</time></trkpt><trkpt lat="40.4388326" lon="15.2571561"><ele>383.99999999999994</ele><time>2026-05-05T11:38:50.995Z</time></trkpt><trkpt lat="40.438767" lon="15.2571167"><ele>384.0</ele><time>2026-05-05T11:38:51.996Z</time></trkpt><trkpt lat="40.4387066" lon="15.2570613"><ele>382.4285714285714</ele><time>2026-05-05T11:38:52.996Z</time></trkpt><trkpt lat="40.4386577" lon="15.2569866"><ele>380.85714285714283</ele><time>2026-05-05T11:38:53.996Z</time></trkpt><trkpt lat="40.4386156" lon="15.2569102"><ele>379.2857142857143</ele><time>2026-05-05T11:38:54.995Z</time></trkpt><trkpt lat="40.4385785" lon="15.2568421"><ele>377.71428571428567</ele><time>2026-05-05T11:38:55.995Z</time></trkpt><trkpt lat="40.4385305" lon="15.2567847"><ele>376.14285714285717</ele><time>2026-05-05T11:38:56.994Z</time></trkpt><trkpt lat="40.4384749" lon="15.2567358"><ele>374.57142857142856</ele><time>2026-05-05T11:38:57.995Z</time></trkpt><trkpt lat="40.4384123" lon="15.2566949"><ele>373.0</ele><time>2026-05-05T11:38:58.995Z</time></trkpt><trkpt lat="40.4383505" lon="15.2566658"><ele>373.0</ele><time>2026-05-05T11:38:59.995Z</time></trkpt><trkpt lat="40.4382848" lon="15.2566315"><ele>373.0</ele><time>2026-05-05T11:39:00.996Z</time></trkpt><trkpt lat="40.4382168" lon="15.2565897"><ele>373.0</ele><time>2026-05-05T11:39:01.995Z</time></trkpt><trkpt lat="40.4381526" lon="15.2565294"><ele>373.0</ele><time>2026-05-05T11:39:02.996Z</time></trkpt><trkpt lat="40.4380917" lon="15.256471"><ele>373.0</ele><time>2026-05-05T11:39:03.995Z</time></trkpt><trkpt lat="40.4380264" lon="15.2564066"><ele>373.0</ele><time>2026-05-05T11:39:04.996Z</time></trkpt><trkpt lat="40.4380042" lon="15.2562973"><ele>372.8333333333333</ele><time>2026-05-05T11:39:05.996Z</time></trkpt><trkpt lat="40.4379691" lon="15.2562037"><ele>372.66666666666663</ele><time>2026-05-05T11:39:06.996Z</time></trkpt><trkpt lat="40.4379418" lon="15.2560809"><ele>372.5</ele><time>2026-05-05T11:39:07.995Z</time></trkpt><trkpt lat="40.4379194" lon="15.2559564"><ele>372.3333333333333</ele><time>2026-05-05T11:39:08.995Z</time></trkpt><trkpt lat="40.4379047" lon="15.2558482"><ele>372.1666666666667</ele><time>2026-05-05T11:39:09.996Z</time></trkpt><trkpt lat="40.4379223" lon="15.2557522"><ele>372.0</ele><time>2026-05-05T11:39:10.995Z</time></trkpt><trkpt lat="40.4379534" lon="15.2556703"><ele>371.00000000000006</ele><time>2026-05-05T11:39:11.995Z</time></trkpt><trkpt lat="40.4379906" lon="15.2555949"><ele>370.0</ele><time>2026-05-05T11:39:12.996Z</time></trkpt><trkpt lat="40.4380269" lon="15.2555202"><ele>369.0</ele><time>2026-05-05T11:39:13.996Z</time></trkpt><trkpt lat="40.4380647" lon="15.2554453"><ele>368.0</ele><time>2026-05-05T11:39:14.996Z</time></trkpt><trkpt lat="40.4381058" lon="15.255369"><ele>367.0</ele><time>2026-05-05T11:39:15.996Z</time></trkpt><trkpt lat="40.4381373" lon="15.2552886"><ele>366.00000000000006</ele><time>2026-05-05T11:39:16.995Z</time></trkpt><trkpt lat="40.4381473" lon="15.2552013"><ele>365.0</ele><time>2026-05-05T11:39:17.996Z</time></trkpt><trkpt lat="40.4381265" lon="15.2550335"><ele>365.00000000000006</ele><time>2026-05-05T11:39:19.996Z</time></trkpt><trkpt lat="40.4381065" lon="15.2549494"><ele>365.0</ele><time>2026-05-05T11:39:20.995Z</time></trkpt><trkpt lat="40.4380835" lon="15.2548582"><ele>365.0</ele><time>2026-05-05T11:39:21.994Z</time></trkpt><trkpt lat="40.4380597" lon="15.2547666"><ele>365.0</ele><time>2026-05-05T11:39:22.996Z</time></trkpt><trkpt lat="40.4380361" lon="15.2546814"><ele>365.0</ele><time>2026-05-05T11:39:23.995Z</time></trkpt><trkpt lat="40.4380225" lon="15.2545955"><ele>365.00000000000006</ele><time>2026-05-05T11:39:24.995Z</time></trkpt><trkpt lat="40.4380213" lon="15.2545066"><ele>365.0</ele><time>2026-05-05T11:39:25.996Z</time></trkpt><trkpt lat="40.4380322" lon="15.2544184"><ele>364.83333333333337</ele><time>2026-05-05T11:39:26.996Z</time></trkpt><trkpt lat="40.43805" lon="15.2543254"><ele>364.6666666666667</ele><time>2026-05-05T11:39:27.995Z</time></trkpt><trkpt lat="40.4380669" lon="15.2542356"><ele>364.5</ele><time>2026-05-05T11:39:28.995Z</time></trkpt><trkpt lat="40.4380815" lon="15.2541437"><ele>364.3333333333333</ele><time>2026-05-05T11:39:29.996Z</time></trkpt><trkpt lat="40.4380854" lon="15.2540518"><ele>364.16666666666663</ele><time>2026-05-05T11:39:30.996Z</time></trkpt><trkpt lat="40.4380855" lon="15.2539488"><ele>364.0</ele><time>2026-05-05T11:39:31.995Z</time></trkpt><trkpt lat="40.4380832" lon="15.2538324"><ele>364.0</ele><time>2026-05-05T11:39:32.996Z</time></trkpt><trkpt lat="40.4380749" lon="15.2537072"><ele>364.0</ele><time>2026-05-05T11:39:33.995Z</time></trkpt><trkpt lat="40.4380586" lon="15.2535772"><ele>364.0</ele><time>2026-05-05T11:39:34.996Z</time></trkpt><trkpt lat="40.4380331" lon="15.2534444"><ele>364.0</ele><time>2026-05-05T11:39:35.995Z</time></trkpt><trkpt lat="40.4379978" lon="15.2533115"><ele>364.0</ele><time>2026-05-05T11:39:36.994Z</time></trkpt><trkpt lat="40.4379609" lon="15.2531834"><ele>359.2</ele><time>2026-05-05T11:39:37.995Z</time></trkpt><trkpt lat="40.4379292" lon="15.2530526"><ele>354.4</ele><time>2026-05-05T11:39:38.996Z</time></trkpt><trkpt lat="40.4379004" lon="15.2529233"><ele>349.6</ele><time>2026-05-05T11:39:39.996Z</time></trkpt><trkpt lat="40.4378799" lon="15.252801"><ele>344.8</ele><time>2026-05-05T11:39:40.995Z</time></trkpt><trkpt lat="40.4378706" lon="15.2526855"><ele>340.0</ele><time>2026-05-05T11:39:41.995Z</time></trkpt><trkpt lat="40.437873" lon="15.2525661"><ele>340.0</ele><time>2026-05-05T11:39:42.996Z</time></trkpt><trkpt lat="40.4378836" lon="15.2524444"><ele>340.0</ele><time>2026-05-05T11:39:43.996Z</time></trkpt><trkpt lat="40.4379034" lon="15.2523233"><ele>340.0</ele><time>2026-05-05T11:39:44.996Z</time></trkpt><trkpt lat="40.4379317" lon="15.252202"><ele>340.0</ele><time>2026-05-05T11:39:45.996Z</time></trkpt><trkpt lat="40.4379623" lon="15.2520808"><ele>340.0</ele><time>2026-05-05T11:39:46.996Z</time></trkpt><trkpt lat="40.437991" lon="15.2519672"><ele>341.0</ele><time>2026-05-05T11:39:47.995Z</time></trkpt><trkpt lat="40.4380144" lon="15.251863"><ele>341.0</ele><time>2026-05-05T11:39:48.995Z</time></trkpt><trkpt lat="40.438048" lon="15.2517334"><ele>341.0</ele><time>2026-05-05T11:39:50.995Z</time></trkpt></trkseg><trkseg><trkpt lat="40.4381062" lon="15.2518144"><ele>341.0</ele><time>2026-05-05T12:00:36.994Z</time></trkpt><trkpt lat="40.4381215" lon="15.2516928"><ele>341.0</ele><time>2026-05-05T12:00:38.993Z</time></trkpt><trkpt lat="40.4381281" lon="15.2515266"><ele>341.0</ele><time>2026-05-05T12:00:40.994Z</time></trkpt><trkpt lat="40.438124" lon="15.2514324"><ele>341.0</ele><time>2026-05-05T12:00:41.994Z</time></trkpt><trkpt lat="40.438115" lon="15.2513367"><ele>341.0</ele><time>2026-05-05T12:00:42.993Z</time></trkpt><trkpt lat="40.4380824" lon="15.2512354"><ele>341.0</ele><time>2026-05-05T12:00:43.994Z</time></trkpt><trkpt lat="40.4380485" lon="15.251132"><ele>338.83333333333337</ele><time>2026-05-05T12:00:44.994Z</time></trkpt><trkpt lat="40.4380055" lon="15.2510353"><ele>336.6666666666667</ele><time>2026-05-05T12:00:45.994Z</time></trkpt><trkpt lat="40.4379599" lon="15.2509394"><ele>334.5</ele><time>2026-05-05T12:00:46.993Z</time></trkpt><trkpt lat="40.437913" lon="15.2508432"><ele>332.3333333333333</ele><time>2026-05-05T12:00:47.994Z</time></trkpt><trkpt lat="40.4378674" lon="15.2507451"><ele>330.16666666666663</ele><time>2026-05-05T12:00:48.994Z</time></trkpt><trkpt lat="40.437821" lon="15.2506543"><ele>328.0</ele><time>2026-05-05T12:00:49.993Z</time></trkpt><trkpt lat="40.4377705" lon="15.250569"><ele>327.3333333333333</ele><time>2026-05-05T12:00:50.993Z</time></trkpt><trkpt lat="40.437721" lon="15.2504871"><ele>326.66666666666663</ele><time>2026-05-05T12:00:51.994Z</time></trkpt><trkpt lat="40.4376701" lon="15.2504082"><ele>326.0</ele><time>2026-05-05T12:00:52.993Z</time></trkpt><trkpt lat="40.4376324" lon="15.2503327"><ele>325.3333333333333</ele><time>2026-05-05T12:00:53.994Z</time></trkpt><trkpt lat="40.4375964" lon="15.2501899"><ele>324.6666666666667</ele><time>2026-05-05T12:00:55.993Z</time></trkpt><trkpt lat="40.4375828" lon="15.2500677"><ele>324.0</ele><time>2026-05-05T12:00:57.993Z</time></trkpt><trkpt lat="40.4375674" lon="15.2499524"><ele>324.0</ele><time>2026-05-05T12:00:59.994Z</time></trkpt><trkpt lat="40.4374686" lon="15.2498356"><ele>324.0</ele><time>2026-05-05T12:01:01.994Z</time></trkpt><trkpt lat="40.4373997" lon="15.2497877"><ele>324.0</ele><time>2026-05-05T12:01:02.993Z</time></trkpt><trkpt lat="40.4373133" lon="15.2497479"><ele>324.0</ele><time>2026-05-05T12:01:03.994Z</time></trkpt><trkpt lat="40.4372341" lon="15.2497257"><ele>324.0</ele><time>2026-05-05T12:01:04.993Z</time></trkpt><trkpt lat="40.4371567" lon="15.2497122"><ele>323.0</ele><time>2026-05-05T12:01:05.993Z</time></trkpt><trkpt lat="40.4370815" lon="15.2497224"><ele>322.0</ele><time>2026-05-05T12:01:06.994Z</time></trkpt><trkpt lat="40.4370163" lon="15.2497479"><ele>321.0</ele><time>2026-05-05T12:01:07.994Z</time></trkpt><trkpt lat="40.4369465" lon="15.2497681"><ele>320.0</ele><time>2026-05-05T12:01:08.994Z</time></trkpt><trkpt lat="40.4368823" lon="15.2498346"><ele>319.0</ele><time>2026-05-05T12:01:09.994Z</time></trkpt><trkpt lat="40.4368103" lon="15.2498982"><ele>318.0</ele><time>2026-05-05T12:01:10.993Z</time></trkpt><trkpt lat="40.4367426" lon="15.2499434"><ele>317.2857142857143</ele><time>2026-05-05T12:01:11.994Z</time></trkpt><trkpt lat="40.4366731" lon="15.2499619"><ele>316.5714285714286</ele><time>2026-05-05T12:01:12.993Z</time></trkpt><trkpt lat="40.4366087" lon="15.2499611"><ele>315.8571428571429</ele><time>2026-05-05T12:01:13.994Z</time></trkpt><trkpt lat="40.4365426" lon="15.2499412"><ele>315.1428571428571</ele><time>2026-05-05T12:01:14.994Z</time></trkpt><trkpt lat="40.436474" lon="15.249921"><ele>314.42857142857144</ele><time>2026-05-05T12:01:15.994Z</time></trkpt><trkpt lat="40.4364051" lon="15.2498968"><ele>313.7142857142857</ele><time>2026-05-05T12:01:16.994Z</time></trkpt><trkpt lat="40.4363346" lon="15.2498628"><ele>313.0</ele><time>2026-05-05T12:01:17.994Z</time></trkpt><trkpt lat="40.4362786" lon="15.2497971"><ele>310.0</ele><time>2026-05-05T12:01:18.992Z</time></trkpt><trkpt lat="40.4362136" lon="15.2497661"><ele>307.0</ele><time>2026-05-05T12:01:19.993Z</time></trkpt><trkpt lat="40.4361808" lon="15.2496722"><ele>304.0</ele><time>2026-05-05T12:01:20.994Z</time></trkpt><trkpt lat="40.4361385" lon="15.2495989"><ele>301.0</ele><time>2026-05-05T12:01:21.994Z</time></trkpt><trkpt lat="40.4361068" lon="15.249516"><ele>298.0</ele><time>2026-05-05T12:01:22.992Z</time></trkpt><trkpt lat="40.4360895" lon="15.2494256"><ele>295.0</ele><time>2026-05-05T12:01:23.993Z</time></trkpt><trkpt lat="40.4360764" lon="15.249341"><ele>292.0</ele><time>2026-05-05T12:01:24.994Z</time></trkpt><trkpt lat="40.4360491" lon="15.249202"><ele>292.0</ele><time>2026-05-05T12:01:26.994Z</time></trkpt><trkpt lat="40.4360374" lon="15.2491199"><ele>292.0</ele><time>2026-05-05T12:01:27.994Z</time></trkpt><trkpt lat="40.4360313" lon="15.2490369"><ele>292.0</ele><time>2026-05-05T12:01:28.993Z</time></trkpt><trkpt lat="40.4360231" lon="15.2489499"><ele>292.0</ele><time>2026-05-05T12:01:29.994Z</time></trkpt><trkpt lat="40.4360158" lon="15.2488564"><ele>292.0</ele><time>2026-05-05T12:01:30.993Z</time></trkpt><trkpt lat="40.4360061" lon="15.2487623"><ele>292.0</ele><time>2026-05-05T12:01:31.994Z</time></trkpt><trkpt lat="40.435994" lon="15.248664"><ele>292.0</ele><time>2026-05-05T12:01:32.993Z</time></trkpt><trkpt lat="40.4359762" lon="15.2485662"><ele>291.2857142857143</ele><time>2026-05-05T12:01:33.993Z</time></trkpt><trkpt lat="40.4359625" lon="15.2484728"><ele>290.57142857142856</ele><time>2026-05-05T12:01:34.993Z</time></trkpt><trkpt lat="40.4359473" lon="15.2483818"><ele>289.8571428571429</ele><time>2026-05-05T12:01:35.994Z</time></trkpt><trkpt lat="40.4359316" lon="15.2482923"><ele>289.1428571428571</ele><time>2026-05-05T12:01:36.993Z</time></trkpt><trkpt lat="40.4359149" lon="15.2481935"><ele>288.42857142857144</ele><time>2026-05-05T12:01:37.993Z</time></trkpt><trkpt lat="40.4359004" lon="15.2480938"><ele>287.7142857142857</ele><time>2026-05-05T12:01:38.993Z</time></trkpt><trkpt lat="40.435892" lon="15.2479897"><ele>287.0</ele><time>2026-05-05T12:01:39.994Z</time></trkpt><trkpt lat="40.4358907" lon="15.2478865"><ele>286.1666666666667</ele><time>2026-05-05T12:01:40.994Z</time></trkpt><trkpt lat="40.4358901" lon="15.2477822"><ele>285.33333333333337</ele><time>2026-05-05T12:01:41.994Z</time></trkpt><trkpt lat="40.4358818" lon="15.2476777"><ele>284.5</ele><time>2026-05-05T12:01:42.994Z</time></trkpt><trkpt lat="40.4358672" lon="15.2475672"><ele>283.6666666666667</ele><time>2026-05-05T12:01:43.994Z</time></trkpt><trkpt lat="40.4358626" lon="15.2474533"><ele>282.8333333333333</ele><time>2026-05-05T12:01:44.994Z</time></trkpt><trkpt lat="40.4358534" lon="15.2473426"><ele>282.0</ele><time>2026-05-05T12:01:45.994Z</time></trkpt><trkpt lat="40.4358364" lon="15.2472388"><ele>281.0</ele><time>2026-05-05T12:01:46.993Z</time></trkpt><trkpt lat="40.4358197" lon="15.2471356"><ele>280.0</ele><time>2026-05-05T12:01:47.993Z</time></trkpt><trkpt lat="40.4358092" lon="15.2470343"><ele>279.0</ele><time>2026-05-05T12:01:48.992Z</time></trkpt><trkpt lat="40.4357946" lon="15.2469346"><ele>278.0</ele><time>2026-05-05T12:01:49.994Z</time></trkpt><trkpt lat="40.435784" lon="15.2468354"><ele>277.0</ele><time>2026-05-05T12:01:50.994Z</time></trkpt><trkpt lat="40.4357779" lon="15.246736"><ele>276.0</ele><time>2026-05-05T12:01:51.994Z</time></trkpt><trkpt lat="40.4357723" lon="15.2466375"><ele>276.0</ele><time>2026-05-05T12:01:52.994Z</time></trkpt><trkpt lat="40.4357682" lon="15.246552"><ele>276.0</ele><time>2026-05-05T12:01:53.993Z</time></trkpt><trkpt lat="40.4357579" lon="15.2464496"><ele>276.0</ele><time>2026-05-05T12:01:55.994Z</time></trkpt><trkpt lat="40.435681" lon="15.2464129"><ele>276.0</ele><time>2026-05-05T12:02:12.994Z</time></trkpt><trkpt lat="40.4355624" lon="15.2464051"><ele>276.0</ele><time>2026-05-05T12:02:14.993Z</time></trkpt><trkpt lat="40.4354556" lon="15.2463874"><ele>273.40000000000003</ele><time>2026-05-05T12:02:16.993Z</time></trkpt><trkpt lat="40.4354087" lon="15.2463252"><ele>270.8</ele><time>2026-05-05T12:02:50.993Z</time></trkpt><trkpt lat="40.4353957" lon="15.2462109"><ele>268.20000000000005</ele><time>2026-05-05T12:02:52.993Z</time></trkpt><trkpt lat="40.4353861" lon="15.2460089"><ele>265.6</ele><time>2026-05-05T12:02:55.993Z</time></trkpt><trkpt lat="40.4353899" lon="15.2458568"><ele>263.0</ele><time>2026-05-05T12:02:57.993Z</time></trkpt><trkpt lat="40.4354172" lon="15.2456678"><ele>261.5</ele><time>2026-05-05T12:02:59.993Z</time></trkpt><trkpt lat="40.4354252" lon="15.2455673"><ele>260.0</ele><time>2026-05-05T12:03:00.993Z</time></trkpt><trkpt lat="40.4354363" lon="15.245464"><ele>258.5</ele><time>2026-05-05T12:03:01.993Z</time></trkpt><trkpt lat="40.4354507" lon="15.2453622"><ele>257.0</ele><time>2026-05-05T12:03:02.992Z</time></trkpt><trkpt lat="40.4354579" lon="15.2452561"><ele>255.50000000000003</ele><time>2026-05-05T12:03:03.992Z</time></trkpt><trkpt lat="40.4354554" lon="15.2451576"><ele>254.0</ele><time>2026-05-05T12:03:04.992Z</time></trkpt><trkpt lat="40.4354393" lon="15.2450661"><ele>254.0</ele><time>2026-05-05T12:03:05.993Z</time></trkpt><trkpt lat="40.4353975" lon="15.2449864"><ele>254.0</ele><time>2026-05-05T12:03:06.993Z</time></trkpt><trkpt lat="40.4353457" lon="15.244928"><ele>254.0</ele><time>2026-05-05T12:03:07.993Z</time></trkpt><trkpt lat="40.4352847" lon="15.2448744"><ele>254.0</ele><time>2026-05-05T12:03:08.992Z</time></trkpt><trkpt lat="40.4352116" lon="15.2448326"><ele>254.0</ele><time>2026-05-05T12:03:09.993Z</time></trkpt><trkpt lat="40.4351506" lon="15.2447842"><ele>254.0</ele><time>2026-05-05T12:03:10.992Z</time></trkpt><trkpt lat="40.4350861" lon="15.2447324"><ele>254.0</ele><time>2026-05-05T12:03:11.992Z</time></trkpt><trkpt lat="40.4350244" lon="15.2446661"><ele>252.16666666666669</ele><time>2026-05-05T12:03:12.993Z</time></trkpt><trkpt lat="40.4349697" lon="15.244594"><ele>250.33333333333334</ele><time>2026-05-05T12:03:13.993Z</time></trkpt><trkpt lat="40.4349136" lon="15.2445175"><ele>248.5</ele><time>2026-05-05T12:03:14.992Z</time></trkpt><trkpt lat="40.4348614" lon="15.2444365"><ele>246.66666666666669</ele><time>2026-05-05T12:03:15.992Z</time></trkpt><trkpt lat="40.4348086" lon="15.2443571"><ele>244.83333333333334</ele><time>2026-05-05T12:03:16.993Z</time></trkpt><trkpt lat="40.4347615" lon="15.2442806"><ele>243.0</ele><time>2026-05-05T12:03:17.993Z</time></trkpt><trkpt lat="40.4347253" lon="15.2441927"><ele>243.0</ele><time>2026-05-05T12:03:18.992Z</time></trkpt><trkpt lat="40.4347011" lon="15.2440974"><ele>243.0</ele><time>2026-05-05T12:03:19.993Z</time></trkpt><trkpt lat="40.4346811" lon="15.2439991"><ele>243.0</ele><time>2026-05-05T12:03:20.992Z</time></trkpt><trkpt lat="40.4346723" lon="15.2438959"><ele>243.0</ele><time>2026-05-05T12:03:21.993Z</time></trkpt><trkpt lat="40.4346766" lon="15.2437943"><ele>243.0</ele><time>2026-05-05T12:03:22.993Z</time></trkpt><trkpt lat="40.434685" lon="15.2436969"><ele>243.0</ele><time>2026-05-05T12:03:23.992Z</time></trkpt><trkpt lat="40.434686" lon="15.243596"><ele>241.71428571428572</ele><time>2026-05-05T12:03:24.992Z</time></trkpt><trkpt lat="40.4346706" lon="15.2434965"><ele>240.42857142857144</ele><time>2026-05-05T12:03:25.993Z</time></trkpt><trkpt lat="40.4346434" lon="15.2434005"><ele>239.14285714285717</ele><time>2026-05-05T12:03:26.992Z</time></trkpt><trkpt lat="40.4346123" lon="15.2433125"><ele>237.85714285714286</ele><time>2026-05-05T12:03:27.993Z</time></trkpt><trkpt lat="40.4345728" lon="15.2432297"><ele>236.5714285714286</ele><time>2026-05-05T12:03:28.993Z</time></trkpt><trkpt lat="40.4345407" lon="15.2431521"><ele>235.2857142857143</ele><time>2026-05-05T12:03:29.993Z</time></trkpt><trkpt lat="40.4345186" lon="15.2430655"><ele>234.0</ele><time>2026-05-05T12:03:30.992Z</time></trkpt><trkpt lat="40.4344964" lon="15.2429792"><ele>231.5</ele><time>2026-05-05T12:03:31.992Z</time></trkpt><trkpt lat="40.434427" lon="15.2428428"><ele>229.0</ele><time>2026-05-05T12:03:33.992Z</time></trkpt><trkpt lat="40.4343794" lon="15.2427782"><ele>226.5</ele><time>2026-05-05T12:03:34.992Z</time></trkpt><trkpt lat="40.4343252" lon="15.2427164"><ele>224.0</ele><time>2026-05-05T12:03:35.993Z</time></trkpt><trkpt lat="40.4342736" lon="15.2426595"><ele>221.5</ele><time>2026-05-05T12:03:36.993Z</time></trkpt><trkpt lat="40.4342213" lon="15.2425917"><ele>219.0</ele><time>2026-05-05T12:03:37.993Z</time></trkpt><trkpt lat="40.4341673" lon="15.2425253"><ele>219.0</ele><time>2026-05-05T12:03:38.992Z</time></trkpt><trkpt lat="40.4341166" lon="15.2424617"><ele>219.0</ele><time>2026-05-05T12:03:39.993Z</time></trkpt><trkpt lat="40.4340632" lon="15.24239"><ele>219.0</ele><time>2026-05-05T12:03:40.993Z</time></trkpt><trkpt lat="40.4340099" lon="15.2423204"><ele>219.0</ele><time>2026-05-05T12:03:41.992Z</time></trkpt><trkpt lat="40.4339482" lon="15.2422584"><ele>219.0</ele><time>2026-05-05T12:03:42.993Z</time></trkpt><trkpt lat="40.4338828" lon="15.2422046"><ele>219.0</ele><time>2026-05-05T12:03:43.993Z</time></trkpt><trkpt lat="40.4338224" lon="15.2421551"><ele>219.0</ele><time>2026-05-05T12:03:44.992Z</time></trkpt><trkpt lat="40.4337685" lon="15.2420907"><ele>217.42857142857144</ele><time>2026-05-05T12:03:45.993Z</time></trkpt><trkpt lat="40.4337163" lon="15.242032"><ele>215.85714285714283</ele><time>2026-05-05T12:03:46.993Z</time></trkpt><trkpt lat="40.4336569" lon="15.2419817"><ele>214.28571428571428</ele><time>2026-05-05T12:03:47.992Z</time></trkpt><trkpt lat="40.4336091" lon="15.2419151"><ele>212.71428571428572</ele><time>2026-05-05T12:03:48.992Z</time></trkpt><trkpt lat="40.4335585" lon="15.24185"><ele>211.14285714285717</ele><time>2026-05-05T12:03:49.992Z</time></trkpt><trkpt lat="40.4335103" lon="15.241778"><ele>209.57142857142856</ele><time>2026-05-05T12:03:50.992Z</time></trkpt><trkpt lat="40.4334735" lon="15.241691"><ele>208.0</ele><time>2026-05-05T12:03:51.992Z</time></trkpt><trkpt lat="40.4334347" lon="15.2415966"><ele>207.99999999999997</ele><time>2026-05-05T12:03:52.993Z</time></trkpt><trkpt lat="40.4333965" lon="15.2414941"><ele>208.0</ele><time>2026-05-05T12:03:53.992Z</time></trkpt><trkpt lat="40.4333616" lon="15.2413868"><ele>208.0</ele><time>2026-05-05T12:03:54.992Z</time></trkpt><trkpt lat="40.4333274" lon="15.2412799"><ele>208.0</ele><time>2026-05-05T12:03:55.993Z</time></trkpt><trkpt lat="40.4332947" lon="15.2411763"><ele>207.99999999999997</ele><time>2026-05-05T12:03:56.992Z</time></trkpt><trkpt lat="40.4332661" lon="15.2410708"><ele>208.0</ele><time>2026-05-05T12:03:57.993Z</time></trkpt><trkpt lat="40.4332389" lon="15.2409678"><ele>205.60000000000002</ele><time>2026-05-05T12:03:58.992Z</time></trkpt><trkpt lat="40.4332149" lon="15.2408703"><ele>203.20000000000002</ele><time>2026-05-05T12:03:59.992Z</time></trkpt><trkpt lat="40.433178" lon="15.2407424"><ele>200.8</ele><time>2026-05-05T12:04:01.992Z</time></trkpt><trkpt lat="40.4331054" lon="15.2407229"><ele>198.4</ele><time>2026-05-05T12:04:04.992Z</time></trkpt><trkpt lat="40.4329905" lon="15.2408057"><ele>196.0</ele><time>2026-05-05T12:04:06.993Z</time></trkpt><trkpt lat="40.4329247" lon="15.2408493"><ele>194.0</ele><time>2026-05-05T12:04:07.992Z</time></trkpt><trkpt lat="40.4328464" lon="15.2408976"><ele>192.0</ele><time>2026-05-05T12:04:08.993Z</time></trkpt><trkpt lat="40.4327626" lon="15.2409447"><ele>190.0</ele><time>2026-05-05T12:04:09.992Z</time></trkpt><trkpt lat="40.4326747" lon="15.2409807"><ele>188.0</ele><time>2026-05-05T12:04:10.993Z</time></trkpt><trkpt lat="40.4325765" lon="15.2410121"><ele>186.0</ele><time>2026-05-05T12:04:11.993Z</time></trkpt><trkpt lat="40.4324731" lon="15.2410504"><ele>186.0</ele><time>2026-05-05T12:04:12.993Z</time></trkpt><trkpt lat="40.4323703" lon="15.2410986"><ele>186.0</ele><time>2026-05-05T12:04:13.993Z</time></trkpt><trkpt lat="40.4322701" lon="15.2411507"><ele>186.0</ele><time>2026-05-05T12:04:14.993Z</time></trkpt><trkpt lat="40.4321696" lon="15.241202"><ele>186.0</ele><time>2026-05-05T12:04:15.993Z</time></trkpt><trkpt lat="40.4320688" lon="15.2412515"><ele>186.0</ele><time>2026-05-05T12:04:16.992Z</time></trkpt><trkpt lat="40.4319674" lon="15.2413018"><ele>184.8</ele><time>2026-05-05T12:04:17.993Z</time></trkpt><trkpt lat="40.4318655" lon="15.2413562"><ele>183.60000000000002</ele><time>2026-05-05T12:04:18.993Z</time></trkpt><trkpt lat="40.4317642" lon="15.2414148"><ele>182.4</ele><time>2026-05-05T12:04:19.993Z</time></trkpt><trkpt lat="40.4316638" lon="15.2414834"><ele>181.2</ele><time>2026-05-05T12:04:20.992Z</time></trkpt><trkpt lat="40.4315645" lon="15.2415457"><ele>180.0</ele><time>2026-05-05T12:04:21.992Z</time></trkpt><trkpt lat="40.4314638" lon="15.2415984"><ele>180.0</ele><time>2026-05-05T12:04:22.993Z</time></trkpt><trkpt lat="40.4313604" lon="15.2416417"><ele>180.0</ele><time>2026-05-05T12:04:23.993Z</time></trkpt><trkpt lat="40.4312506" lon="15.2416707"><ele>180.0</ele><time>2026-05-05T12:04:24.992Z</time></trkpt><trkpt lat="40.4311354" lon="15.2416889"><ele>180.0</ele><time>2026-05-05T12:04:25.993Z</time></trkpt><trkpt lat="40.4310207" lon="15.2417044"><ele>178.8</ele><time>2026-05-05T12:04:26.993Z</time></trkpt><trkpt lat="40.4309124" lon="15.2417188"><ele>177.6</ele><time>2026-05-05T12:04:27.992Z</time></trkpt><trkpt lat="40.4308046" lon="15.2417289"><ele>176.39999999999998</ele><time>2026-05-05T12:04:28.993Z</time></trkpt><trkpt lat="40.4306972" lon="15.2417429"><ele>175.2</ele><time>2026-05-05T12:04:29.993Z</time></trkpt><trkpt lat="40.4305949" lon="15.2417621"><ele>174.0</ele><time>2026-05-05T12:04:30.993Z</time></trkpt><trkpt lat="40.430492" lon="15.241765"><ele>173.2</ele><time>2026-05-05T12:04:31.992Z</time></trkpt><trkpt lat="40.430387" lon="15.241742"><ele>172.39999999999998</ele><time>2026-05-05T12:04:32.993Z</time></trkpt><trkpt lat="40.4302819" lon="15.2417068"><ele>171.6</ele><time>2026-05-05T12:04:33.992Z</time></trkpt><trkpt lat="40.4301819" lon="15.2416702"><ele>170.8</ele><time>2026-05-05T12:04:34.993Z</time></trkpt><trkpt lat="40.4300811" lon="15.2416412"><ele>170.0</ele><time>2026-05-05T12:04:35.992Z</time></trkpt><trkpt lat="40.429979" lon="15.2416144"><ele>170.0</ele><time>2026-05-05T12:04:36.993Z</time></trkpt><trkpt lat="40.4298776" lon="15.2415884"><ele>170.0</ele><time>2026-05-05T12:04:37.991Z</time></trkpt><trkpt lat="40.4297818" lon="15.2415673"><ele>170.0</ele><time>2026-05-05T12:04:38.993Z</time></trkpt><trkpt lat="40.4296937" lon="15.2415524"><ele>170.0</ele><time>2026-05-05T12:04:39.993Z</time></trkpt><trkpt lat="40.4296213" lon="15.2415631"><ele>170.0</ele><time>2026-05-05T12:04:40.993Z</time></trkpt><trkpt lat="40.4295635" lon="15.2416122"><ele>170.0</ele><time>2026-05-05T12:04:41.993Z</time></trkpt><trkpt lat="40.4295013" lon="15.2416742"><ele>167.2</ele><time>2026-05-05T12:04:43.993Z</time></trkpt><trkpt lat="40.4294818" lon="15.2415818"><ele>164.4</ele><time>2026-05-05T12:04:46.992Z</time></trkpt><trkpt lat="40.4295619" lon="15.2414652"><ele>161.6</ele><time>2026-05-05T12:04:48.993Z</time></trkpt><trkpt lat="40.4296304" lon="15.2414079"><ele>158.8</ele><time>2026-05-05T12:04:49.993Z</time></trkpt><trkpt lat="40.4297052" lon="15.2413446"><ele>156.0</ele><time>2026-05-05T12:04:50.993Z</time></trkpt><trkpt lat="40.4297775" lon="15.2412709"><ele>156.0</ele><time>2026-05-05T12:04:51.993Z</time></trkpt><trkpt lat="40.4298418" lon="15.2411921"><ele>156.0</ele><time>2026-05-05T12:04:52.992Z</time></trkpt><trkpt lat="40.4299101" lon="15.2411016"><ele>156.0</ele><time>2026-05-05T12:04:53.993Z</time></trkpt><trkpt lat="40.4299704" lon="15.2409556"><ele>156.0</ele><time>2026-05-05T12:04:54.993Z</time></trkpt><trkpt lat="40.4299999" lon="15.2408102"><ele>156.0</ele><time>2026-05-05T12:04:55.992Z</time></trkpt><trkpt lat="40.4300028" lon="15.240591"><ele>153.0</ele><time>2026-05-05T12:04:56.993Z</time></trkpt><trkpt lat="40.4300446" lon="15.2404314"><ele>150.0</ele><time>2026-05-05T12:04:57.993Z</time></trkpt><trkpt lat="40.4300746" lon="15.2402717"><ele>147.0</ele><time>2026-05-05T12:04:58.993Z</time></trkpt><trkpt lat="40.4301149" lon="15.2401319"><ele>144.0</ele><time>2026-05-05T12:04:59.992Z</time></trkpt><trkpt lat="40.4301496" lon="15.2399769"><ele>144.0</ele><time>2026-05-05T12:05:00.992Z</time></trkpt><trkpt lat="40.430234" lon="15.2398443"><ele>144.0</ele><time>2026-05-05T12:05:01.993Z</time></trkpt><trkpt lat="40.4303139" lon="15.2396669"><ele>144.0</ele><time>2026-05-05T12:05:02.993Z</time></trkpt><trkpt lat="40.4303715" lon="15.2395242"><ele>144.0</ele><time>2026-05-05T12:05:03.993Z</time></trkpt><trkpt lat="40.4304212" lon="15.2393973"><ele>143.16666666666666</ele><time>2026-05-05T12:05:04.992Z</time></trkpt><trkpt lat="40.4304636" lon="15.2392994"><ele>142.33333333333334</ele><time>2026-05-05T12:05:05.993Z</time></trkpt><trkpt lat="40.430512" lon="15.2391943"><ele>141.5</ele><time>2026-05-05T12:05:06.993Z</time></trkpt><trkpt lat="40.4305431" lon="15.2390921"><ele>140.66666666666669</ele><time>2026-05-05T12:05:07.993Z</time></trkpt><trkpt lat="40.4305578" lon="15.2389856"><ele>139.83333333333334</ele><time>2026-05-05T12:05:08.992Z</time></trkpt><trkpt lat="40.4305571" lon="15.2388771"><ele>139.0</ele><time>2026-05-05T12:05:09.992Z</time></trkpt><trkpt lat="40.4305375" lon="15.2387781"><ele>138.85714285714286</ele><time>2026-05-05T12:05:10.993Z</time></trkpt><trkpt lat="40.4305086" lon="15.2386847"><ele>138.71428571428572</ele><time>2026-05-05T12:05:11.993Z</time></trkpt><trkpt lat="40.4304782" lon="15.2385937"><ele>138.57142857142858</ele><time>2026-05-05T12:05:12.991Z</time></trkpt><trkpt lat="40.430458" lon="15.2385028"><ele>138.42857142857144</ele><time>2026-05-05T12:05:13.993Z</time></trkpt><trkpt lat="40.4304422" lon="15.2384066"><ele>138.2857142857143</ele><time>2026-05-05T12:05:14.992Z</time></trkpt><trkpt lat="40.4304317" lon="15.2383127"><ele>138.14285714285714</ele><time>2026-05-05T12:05:15.993Z</time></trkpt><trkpt lat="40.4304305" lon="15.2382227"><ele>138.0</ele><time>2026-05-05T12:05:16.991Z</time></trkpt><trkpt lat="40.4304331" lon="15.2381329"><ele>137.20000000000002</ele><time>2026-05-05T12:05:17.991Z</time></trkpt><trkpt lat="40.4304642" lon="15.2380357"><ele>136.4</ele><time>2026-05-05T12:05:18.992Z</time></trkpt><trkpt lat="40.4305137" lon="15.2379284"><ele>135.60000000000002</ele><time>2026-05-05T12:05:19.992Z</time></trkpt><trkpt lat="40.4305755" lon="15.2377996"><ele>134.8</ele><time>2026-05-05T12:05:20.991Z</time></trkpt><trkpt lat="40.4306328" lon="15.2376661"><ele>134.0</ele><time>2026-05-05T12:05:21.991Z</time></trkpt><trkpt lat="40.4306896" lon="15.2375468"><ele>134.8</ele><time>2026-05-05T12:05:22.992Z</time></trkpt><trkpt lat="40.4307644" lon="15.2374039"><ele>135.60000000000002</ele><time>2026-05-05T12:05:23.992Z</time></trkpt><trkpt lat="40.4308289" lon="15.2372944"><ele>136.4</ele><time>2026-05-05T12:05:24.991Z</time></trkpt><trkpt lat="40.4308868" lon="15.2372046"><ele>137.20000000000002</ele><time>2026-05-05T12:05:25.992Z</time></trkpt><trkpt lat="40.4309493" lon="15.237137"><ele>138.0</ele><time>2026-05-05T12:05:26.992Z</time></trkpt><trkpt lat="40.4310366" lon="15.2370778"><ele>138.0</ele><time>2026-05-05T12:05:27.991Z</time></trkpt><trkpt lat="40.4311504" lon="15.2370321"><ele>138.0</ele><time>2026-05-05T12:05:28.991Z</time></trkpt><trkpt lat="40.431248" lon="15.2369811"><ele>138.0</ele><time>2026-05-05T12:05:29.992Z</time></trkpt><trkpt lat="40.4313362" lon="15.236902"><ele>138.0</ele><time>2026-05-05T12:05:30.991Z</time></trkpt><trkpt lat="40.431414" lon="15.2367954"><ele>138.0</ele><time>2026-05-05T12:05:31.992Z</time></trkpt><trkpt lat="40.4314962" lon="15.2366758"><ele>139.8</ele><time>2026-05-05T12:05:32.993Z</time></trkpt><trkpt lat="40.4315747" lon="15.2365905"><ele>141.60000000000002</ele><time>2026-05-05T12:05:33.993Z</time></trkpt><trkpt lat="40.4316412" lon="15.2365022"><ele>143.39999999999998</ele><time>2026-05-05T12:05:34.993Z</time></trkpt><trkpt lat="40.4316994" lon="15.236399"><ele>145.2</ele><time>2026-05-05T12:05:35.993Z</time></trkpt><trkpt lat="40.4317214" lon="15.2362618"><ele>147.0</ele><time>2026-05-05T12:05:36.992Z</time></trkpt><trkpt lat="40.43179" lon="15.2360162"><ele>147.16666666666666</ele><time>2026-05-05T12:05:38.993Z</time></trkpt><trkpt lat="40.4318277" lon="15.2359243"><ele>147.33333333333334</ele><time>2026-05-05T12:05:39.993Z</time></trkpt><trkpt lat="40.4318588" lon="15.2358449"><ele>147.5</ele><time>2026-05-05T12:05:40.992Z</time></trkpt><trkpt lat="40.431878" lon="15.2357234"><ele>147.66666666666669</ele><time>2026-05-05T12:05:42.992Z</time></trkpt><trkpt lat="40.4317824" lon="15.2356499"><ele>147.83333333333334</ele><time>2026-05-05T12:05:43.993Z</time></trkpt><trkpt lat="40.4317121" lon="15.2355851"><ele>148.0</ele><time>2026-05-05T12:05:44.993Z</time></trkpt><trkpt lat="40.4316461" lon="15.2355097"><ele>147.5</ele><time>2026-05-05T12:05:45.992Z</time></trkpt><trkpt lat="40.4315764" lon="15.2354405"><ele>147.0</ele><time>2026-05-05T12:05:46.992Z</time></trkpt><trkpt lat="40.4315098" lon="15.2353797"><ele>146.5</ele><time>2026-05-05T12:05:47.992Z</time></trkpt><trkpt lat="40.4314398" lon="15.2353175"><ele>146.0</ele><time>2026-05-05T12:05:48.993Z</time></trkpt><trkpt lat="40.4313732" lon="15.2352531"><ele>145.5</ele><time>2026-05-05T12:05:49.993Z</time></trkpt><trkpt lat="40.4313211" lon="15.2351978"><ele>145.0</ele><time>2026-05-05T12:05:50.993Z</time></trkpt><trkpt lat="40.4312681" lon="15.2351367"><ele>144.42857142857144</ele><time>2026-05-05T12:05:51.992Z</time></trkpt><trkpt lat="40.4312084" lon="15.2350735"><ele>143.85714285714286</ele><time>2026-05-05T12:05:52.993Z</time></trkpt><trkpt lat="40.4311533" lon="15.2350124"><ele>143.28571428571428</ele><time>2026-05-05T12:05:53.992Z</time></trkpt><trkpt lat="40.4311003" lon="15.2349521"><ele>142.71428571428572</ele><time>2026-05-05T12:05:54.993Z</time></trkpt><trkpt lat="40.4310456" lon="15.2348916"><ele>142.14285714285714</ele><time>2026-05-05T12:05:55.991Z</time></trkpt><trkpt lat="40.4309919" lon="15.2348368"><ele>141.57142857142858</ele><time>2026-05-05T12:05:56.992Z</time></trkpt><trkpt lat="40.4309375" lon="15.2347813"><ele>141.0</ele><time>2026-05-05T12:05:57.993Z</time></trkpt><trkpt lat="40.4308539" lon="15.2347045"><ele>141.0</ele><time>2026-05-05T12:05:59.993Z</time></trkpt><trkpt lat="40.4309317" lon="15.2347548"><ele>141.0</ele><time>2026-05-05T12:06:38.991Z</time></trkpt><trkpt lat="40.4309866" lon="15.2348387"><ele>141.0</ele><time>2026-05-05T12:06:40.993Z</time></trkpt><trkpt lat="40.4310469" lon="15.2348888"><ele>141.0</ele><time>2026-05-05T12:06:42.993Z</time></trkpt><trkpt lat="40.4311236" lon="15.2349893"><ele>141.0</ele><time>2026-05-05T12:07:16.993Z</time></trkpt><trkpt lat="40.4311746" lon="15.2350463"><ele>141.0</ele><time>2026-05-05T12:07:17.993Z</time></trkpt><trkpt lat="40.4312372" lon="15.2351041"><ele>141.0</ele><time>2026-05-05T12:07:18.993Z</time></trkpt><trkpt lat="40.431301" lon="15.2351711"><ele>141.0</ele><time>2026-05-05T12:07:19.993Z</time></trkpt><trkpt lat="40.431369" lon="15.235241"><ele>141.0</ele><time>2026-05-05T12:07:20.993Z</time></trkpt><trkpt lat="40.4314416" lon="15.2353098"><ele>141.0</ele><time>2026-05-05T12:07:21.993Z</time></trkpt><trkpt lat="40.4315185" lon="15.2353735"><ele>141.0</ele><time>2026-05-05T12:07:22.992Z</time></trkpt><trkpt lat="40.4315959" lon="15.2354448"><ele>141.0</ele><time>2026-05-05T12:07:23.993Z</time></trkpt><trkpt lat="40.4316713" lon="15.2355183"><ele>141.8</ele><time>2026-05-05T12:07:24.993Z</time></trkpt><trkpt lat="40.4317447" lon="15.2355993"><ele>142.6</ele><time>2026-05-05T12:07:25.993Z</time></trkpt><trkpt lat="40.4318051" lon="15.2356654"><ele>143.4</ele><time>2026-05-05T12:07:26.993Z</time></trkpt><trkpt lat="40.4318624" lon="15.2357788"><ele>144.2</ele><time>2026-05-05T12:07:28.992Z</time></trkpt><trkpt lat="40.4318177" lon="15.2359053"><ele>145.0</ele><time>2026-05-05T12:07:30.993Z</time></trkpt><trkpt lat="40.431788" lon="15.2359841"><ele>145.33333333333334</ele><time>2026-05-05T12:07:31.993Z</time></trkpt><trkpt lat="40.4317562" lon="15.2360701"><ele>145.66666666666669</ele><time>2026-05-05T12:07:32.993Z</time></trkpt><trkpt lat="40.4317341" lon="15.2361556"><ele>146.0</ele><time>2026-05-05T12:07:33.993Z</time></trkpt><trkpt lat="40.4317162" lon="15.2362419"><ele>146.33333333333334</ele><time>2026-05-05T12:07:34.993Z</time></trkpt><trkpt lat="40.4316949" lon="15.2363252"><ele>146.66666666666666</ele><time>2026-05-05T12:07:35.993Z</time></trkpt><trkpt lat="40.4316722" lon="15.2364025"><ele>147.0</ele><time>2026-05-05T12:07:36.992Z</time></trkpt><trkpt lat="40.4316052" lon="15.2365304"><ele>147.0</ele><time>2026-05-05T12:07:38.993Z</time></trkpt><trkpt lat="40.4315174" lon="15.2366302"><ele>147.0</ele><time>2026-05-05T12:07:40.993Z</time></trkpt><trkpt lat="40.4314445" lon="15.2367302"><ele>147.0</ele><time>2026-05-05T12:07:42.992Z</time></trkpt><trkpt lat="40.4313716" lon="15.2368437"><ele>147.0</ele><time>2026-05-05T12:07:44.993Z</time></trkpt><trkpt lat="40.4312771" lon="15.2369431"><ele>145.5</ele><time>2026-05-05T12:07:46.993Z</time></trkpt><trkpt lat="40.4312173" lon="15.2369846"><ele>144.0</ele><time>2026-05-05T12:07:47.993Z</time></trkpt><trkpt lat="40.4311465" lon="15.2370222"><ele>142.5</ele><time>2026-05-05T12:07:48.993Z</time></trkpt><trkpt lat="40.4310671" lon="15.2370505"><ele>141.0</ele><time>2026-05-05T12:07:49.992Z</time></trkpt><trkpt lat="40.4309889" lon="15.237084"><ele>139.5</ele><time>2026-05-05T12:07:50.992Z</time></trkpt><trkpt lat="40.4309236" lon="15.2371361"><ele>138.0</ele><time>2026-05-05T12:07:51.993Z</time></trkpt><trkpt lat="40.4308602" lon="15.2371873"><ele>139.6</ele><time>2026-05-05T12:07:52.993Z</time></trkpt><trkpt lat="40.4307958" lon="15.237327"><ele>141.20000000000002</ele><time>2026-05-05T12:07:54.993Z</time></trkpt><trkpt lat="40.4307519" lon="15.2374003"><ele>142.8</ele><time>2026-05-05T12:07:55.992Z</time></trkpt><trkpt lat="40.4306955" lon="15.2374911"><ele>144.4</ele><time>2026-05-05T12:07:57.993Z</time></trkpt><trkpt lat="40.4306621" lon="15.2376127"><ele>146.0</ele><time>2026-05-05T12:08:11.993Z</time></trkpt><trkpt lat="40.4306307" lon="15.2376957"><ele>146.0</ele><time>2026-05-05T12:08:12.993Z</time></trkpt><trkpt lat="40.4305886" lon="15.2377818"><ele>146.0</ele><time>2026-05-05T12:08:13.993Z</time></trkpt><trkpt lat="40.4305539" lon="15.2378513"><ele>146.0</ele><time>2026-05-05T12:08:14.992Z</time></trkpt><trkpt lat="40.4304844" lon="15.2379843"><ele>146.0</ele><time>2026-05-05T12:08:16.993Z</time></trkpt><trkpt lat="40.4304296" lon="15.238128"><ele>146.0</ele><time>2026-05-05T12:08:18.992Z</time></trkpt><trkpt lat="40.4304129" lon="15.2382832"><ele>144.66666666666666</ele><time>2026-05-05T12:08:20.993Z</time></trkpt><trkpt lat="40.4304365" lon="15.2384048"><ele>143.33333333333331</ele><time>2026-05-05T12:08:22.993Z</time></trkpt><trkpt lat="40.4304418" lon="15.2384909"><ele>142.0</ele><time>2026-05-05T12:08:25.993Z</time></trkpt><trkpt lat="40.430377" lon="15.2385131"><ele>140.66666666666666</ele><time>2026-05-05T12:08:30.993Z</time></trkpt><trkpt lat="40.430288" lon="15.2384514"><ele>139.33333333333334</ele><time>2026-05-05T12:08:32.992Z</time></trkpt><trkpt lat="40.4301952" lon="15.2384125"><ele>138.0</ele><time>2026-05-05T12:08:34.992Z</time></trkpt><trkpt lat="40.4300859" lon="15.2383936"><ele>138.0</ele><time>2026-05-05T12:08:36.993Z</time></trkpt><trkpt lat="40.4299866" lon="15.2384038"><ele>138.0</ele><time>2026-05-05T12:08:38.992Z</time></trkpt><trkpt lat="40.4299075" lon="15.2384075"><ele>138.0</ele><time>2026-05-05T12:08:40.992Z</time></trkpt><trkpt lat="40.4298338" lon="15.2384233"><ele>138.0</ele><time>2026-05-05T12:08:42.992Z</time></trkpt><trkpt lat="40.4297434" lon="15.2384596"><ele>138.0</ele><time>2026-05-05T12:08:44.993Z</time></trkpt><trkpt lat="40.4296621" lon="15.2385092"><ele>138.0</ele><time>2026-05-05T12:08:46.993Z</time></trkpt><trkpt lat="40.429566" lon="15.238569"><ele>135.5</ele><time>2026-05-05T12:08:48.993Z</time></trkpt><trkpt lat="40.4294844" lon="15.2386051"><ele>133.0</ele><time>2026-05-05T12:08:50.992Z</time></trkpt><trkpt lat="40.4294206" lon="15.2385141"><ele>130.5</ele><time>2026-05-05T12:08:54.993Z</time></trkpt><trkpt lat="40.4293815" lon="15.2384416"><ele>128.0</ele><time>2026-05-05T12:08:56.992Z</time></trkpt><trkpt lat="40.4293238" lon="15.2383985"><ele>125.5</ele><time>2026-05-05T12:08:59.992Z</time></trkpt><trkpt lat="40.4292737" lon="15.2383277"><ele>123.0</ele><time>2026-05-05T12:09:03.993Z</time></trkpt><trkpt lat="40.4292335" lon="15.2382606"><ele>123.0</ele><time>2026-05-05T12:09:05.993Z</time></trkpt><trkpt lat="40.4291806" lon="15.2381928"><ele>123.0</ele><time>2026-05-05T12:09:08.993Z</time></trkpt><trkpt lat="40.4291046" lon="15.238117"><ele>123.0</ele><time>2026-05-05T12:09:11.993Z</time></trkpt><trkpt lat="40.4290505" lon="15.2380492"><ele>123.0</ele><time>2026-05-05T12:09:13.992Z</time></trkpt><trkpt lat="40.4289867" lon="15.2380202"><ele>123.0</ele><time>2026-05-05T12:09:16.993Z</time></trkpt><trkpt lat="40.4289117" lon="15.2380317"><ele>123.0</ele><time>2026-05-05T12:09:19.993Z</time></trkpt><trkpt lat="40.4288538" lon="15.2379407"><ele>122.33333333333333</ele><time>2026-05-05T12:09:22.992Z</time></trkpt><trkpt lat="40.4288496" lon="15.2378515"><ele>121.66666666666666</ele><time>2026-05-05T12:09:24.992Z</time></trkpt><trkpt lat="40.4288424" lon="15.2377681"><ele>121.0</ele><time>2026-05-05T12:09:27.993Z</time></trkpt><trkpt lat="40.4289225" lon="15.2378326"><ele>120.33333333333333</ele><time>2026-05-05T12:09:34.993Z</time></trkpt><trkpt lat="40.4290254" lon="15.2378929"><ele>119.66666666666666</ele><time>2026-05-05T12:09:36.992Z</time></trkpt><trkpt lat="40.4291175" lon="15.2378772"><ele>119.0</ele><time>2026-05-05T12:09:39.993Z</time></trkpt><trkpt lat="40.4290183" lon="15.2378799"><ele>118.99999999999999</ele><time>2026-05-05T12:09:49.993Z</time></trkpt><trkpt lat="40.4289164" lon="15.2378277"><ele>119.0</ele><time>2026-05-05T12:09:51.992Z</time></trkpt><trkpt lat="40.4288492" lon="15.2377855"><ele>119.0</ele><time>2026-05-05T12:09:52.993Z</time></trkpt><trkpt lat="40.4287833" lon="15.2377354"><ele>119.0</ele><time>2026-05-05T12:09:53.992Z</time></trkpt><trkpt lat="40.428722" lon="15.237672"><ele>118.99999999999999</ele><time>2026-05-05T12:09:54.992Z</time></trkpt><trkpt lat="40.4286713" lon="15.2376109"><ele>119.0</ele><time>2026-05-05T12:09:55.993Z</time></trkpt><trkpt lat="40.4286201" lon="15.23756"><ele>118.6</ele><time>2026-05-05T12:09:56.993Z</time></trkpt><trkpt lat="40.4285127" lon="15.2374651"><ele>118.2</ele><time>2026-05-05T12:09:58.992Z</time></trkpt><trkpt lat="40.4283997" lon="15.2374453"><ele>117.79999999999998</ele><time>2026-05-05T12:10:00.992Z</time></trkpt><trkpt lat="40.4283278" lon="15.2374686"><ele>117.39999999999999</ele><time>2026-05-05T12:10:01.992Z</time></trkpt><trkpt lat="40.4282552" lon="15.2374801"><ele>117.0</ele><time>2026-05-05T12:10:02.993Z</time></trkpt><trkpt lat="40.4281789" lon="15.2374938"><ele>117.0</ele><time>2026-05-05T12:10:03.992Z</time></trkpt><trkpt lat="40.4281076" lon="15.2375403"><ele>117.0</ele><time>2026-05-05T12:10:04.993Z</time></trkpt><trkpt lat="40.4280362" lon="15.2375785"><ele>117.0</ele><time>2026-05-05T12:10:05.993Z</time></trkpt><trkpt lat="40.4279512" lon="15.2376386"><ele>117.0</ele><time>2026-05-05T12:10:06.993Z</time></trkpt><trkpt lat="40.4278781" lon="15.2376768"><ele>117.0</ele><time>2026-05-05T12:10:07.993Z</time></trkpt><trkpt lat="40.427803" lon="15.2376679"><ele>117.0</ele><time>2026-05-05T12:10:08.993Z</time></trkpt><trkpt lat="40.4277278" lon="15.2376874"><ele>117.0</ele><time>2026-05-05T12:10:09.992Z</time></trkpt><trkpt lat="40.4276591" lon="15.2377133"><ele>116.99999999999999</ele><time>2026-05-05T12:10:10.992Z</time></trkpt><trkpt lat="40.4275879" lon="15.2378575"><ele>116.99999999999999</ele><time>2026-05-05T12:10:12.993Z</time></trkpt><trkpt lat="40.4274511" lon="15.2379311"><ele>117.0</ele><time>2026-05-05T12:10:14.992Z</time></trkpt><trkpt lat="40.4273771" lon="15.2379752"><ele>117.0</ele><time>2026-05-05T12:10:15.993Z</time></trkpt><trkpt lat="40.4272908" lon="15.2379869"><ele>117.0</ele><time>2026-05-05T12:10:16.991Z</time></trkpt><trkpt lat="40.427205" lon="15.238008"><ele>117.00000000000001</ele><time>2026-05-05T12:10:17.992Z</time></trkpt><trkpt lat="40.4271311" lon="15.238026"><ele>117.0</ele><time>2026-05-05T12:10:18.993Z</time></trkpt><trkpt lat="40.4270616" lon="15.238048"><ele>117.0</ele><time>2026-05-05T12:10:19.993Z</time></trkpt><trkpt lat="40.4270075" lon="15.2380953"><ele>117.00000000000001</ele><time>2026-05-05T12:10:20.993Z</time></trkpt><trkpt lat="40.4269573" lon="15.2381523"><ele>117.0</ele><time>2026-05-05T12:10:21.993Z</time></trkpt><trkpt lat="40.4269025" lon="15.2382073"><ele>117.0</ele><time>2026-05-05T12:10:22.993Z</time></trkpt><trkpt lat="40.4268401" lon="15.2382615"><ele>116.83333333333333</ele><time>2026-05-05T12:10:23.993Z</time></trkpt><trkpt lat="40.4267763" lon="15.2383084"><ele>116.66666666666666</ele><time>2026-05-05T12:10:24.993Z</time></trkpt><trkpt lat="40.4267199" lon="15.2383582"><ele>116.5</ele><time>2026-05-05T12:10:25.991Z</time></trkpt><trkpt lat="40.4266658" lon="15.2384204"><ele>116.33333333333333</ele><time>2026-05-05T12:10:26.992Z</time></trkpt><trkpt lat="40.4266114" lon="15.2384942"><ele>116.16666666666666</ele><time>2026-05-05T12:10:27.993Z</time></trkpt><trkpt lat="40.426551" lon="15.2385611"><ele>116.0</ele><time>2026-05-05T12:10:28.992Z</time></trkpt><trkpt lat="40.4264901" lon="15.2386306"><ele>115.99999999999999</ele><time>2026-05-05T12:10:29.993Z</time></trkpt><trkpt lat="40.42644" lon="15.2387121"><ele>116.0</ele><time>2026-05-05T12:10:30.991Z</time></trkpt><trkpt lat="40.4263955" lon="15.2388056"><ele>116.0</ele><time>2026-05-05T12:10:31.993Z</time></trkpt><trkpt lat="40.4263471" lon="15.238899"><ele>116.0</ele><time>2026-05-05T12:10:32.993Z</time></trkpt><trkpt lat="40.4262966" lon="15.2389872"><ele>115.99999999999999</ele><time>2026-05-05T12:10:33.993Z</time></trkpt><trkpt lat="40.4262497" lon="15.2390745"><ele>116.0</ele><time>2026-05-05T12:10:34.993Z</time></trkpt><trkpt lat="40.426201" lon="15.2391614"><ele>116.16666666666666</ele><time>2026-05-05T12:10:35.992Z</time></trkpt><trkpt lat="40.4261494" lon="15.2392481"><ele>116.33333333333333</ele><time>2026-05-05T12:10:36.992Z</time></trkpt><trkpt lat="40.426102" lon="15.2393386"><ele>116.5</ele><time>2026-05-05T12:10:37.993Z</time></trkpt><trkpt lat="40.426056" lon="15.2394275"><ele>116.66666666666666</ele><time>2026-05-05T12:10:38.992Z</time></trkpt><trkpt lat="40.4260162" lon="15.2395125"><ele>116.83333333333333</ele><time>2026-05-05T12:10:39.992Z</time></trkpt><trkpt lat="40.4259787" lon="15.2396076"><ele>117.0</ele><time>2026-05-05T12:10:40.991Z</time></trkpt><trkpt lat="40.4259371" lon="15.2397017"><ele>117.0</ele><time>2026-05-05T12:10:41.992Z</time></trkpt><trkpt lat="40.4258871" lon="15.2397771"><ele>117.0</ele><time>2026-05-05T12:10:42.993Z</time></trkpt><trkpt lat="40.4258272" lon="15.2398407"><ele>117.0</ele><time>2026-05-05T12:10:43.992Z</time></trkpt><trkpt lat="40.425769" lon="15.2399163"><ele>117.0</ele><time>2026-05-05T12:10:44.993Z</time></trkpt><trkpt lat="40.4257259" lon="15.2400178"><ele>117.0</ele><time>2026-05-05T12:10:45.991Z</time></trkpt><trkpt lat="40.4256884" lon="15.2401283"><ele>117.0</ele><time>2026-05-05T12:10:46.991Z</time></trkpt><trkpt lat="40.4256506" lon="15.2402439"><ele>117.19999999999999</ele><time>2026-05-05T12:10:47.992Z</time></trkpt><trkpt lat="40.4256144" lon="15.2403568"><ele>117.39999999999999</ele><time>2026-05-05T12:10:48.991Z</time></trkpt><trkpt lat="40.4255717" lon="15.2404622"><ele>117.60000000000001</ele><time>2026-05-05T12:10:49.992Z</time></trkpt><trkpt lat="40.4255267" lon="15.2405637"><ele>117.80000000000001</ele><time>2026-05-05T12:10:50.992Z</time></trkpt><trkpt lat="40.4254891" lon="15.2406749"><ele>118.0</ele><time>2026-05-05T12:10:51.993Z</time></trkpt><trkpt lat="40.4254634" lon="15.2407999"><ele>118.2</ele><time>2026-05-05T12:10:52.992Z</time></trkpt><trkpt lat="40.4254481" lon="15.2409281"><ele>118.4</ele><time>2026-05-05T12:10:53.993Z</time></trkpt><trkpt lat="40.4254331" lon="15.2410527"><ele>118.60000000000001</ele><time>2026-05-05T12:10:54.992Z</time></trkpt><trkpt lat="40.4254254" lon="15.2411788"><ele>118.80000000000001</ele><time>2026-05-05T12:10:55.993Z</time></trkpt><trkpt lat="40.4254214" lon="15.241297"><ele>119.0</ele><time>2026-05-05T12:10:56.993Z</time></trkpt><trkpt lat="40.425407" lon="15.2414027"><ele>118.99999999999999</ele><time>2026-05-05T12:10:57.993Z</time></trkpt><trkpt lat="40.4253836" lon="15.2415086"><ele>119.0</ele><time>2026-05-05T12:10:58.991Z</time></trkpt><trkpt lat="40.4253513" lon="15.241615"><ele>119.0</ele><time>2026-05-05T12:10:59.993Z</time></trkpt><trkpt lat="40.4253161" lon="15.2417212"><ele>119.0</ele><time>2026-05-05T12:11:00.993Z</time></trkpt><trkpt lat="40.4252818" lon="15.2418237"><ele>118.99999999999999</ele><time>2026-05-05T12:11:01.993Z</time></trkpt><trkpt lat="40.42524" lon="15.2419313"><ele>119.0</ele><time>2026-05-05T12:11:02.993Z</time></trkpt><trkpt lat="40.4251979" lon="15.2420446"><ele>119.0</ele><time>2026-05-05T12:11:03.993Z</time></trkpt><trkpt lat="40.4251559" lon="15.2421508"><ele>119.0</ele><time>2026-05-05T12:11:04.993Z</time></trkpt><trkpt lat="40.4251089" lon="15.242255"><ele>119.0</ele><time>2026-05-05T12:11:05.991Z</time></trkpt><trkpt lat="40.4250567" lon="15.2423584"><ele>119.0</ele><time>2026-05-05T12:11:06.993Z</time></trkpt><trkpt lat="40.4250034" lon="15.2424576"><ele>119.0</ele><time>2026-05-05T12:11:07.992Z</time></trkpt><trkpt lat="40.4249632" lon="15.2425481"><ele>118.99999999999999</ele><time>2026-05-05T12:11:08.993Z</time></trkpt><trkpt lat="40.4249215" lon="15.2426309"><ele>119.0</ele><time>2026-05-05T12:11:09.993Z</time></trkpt><trkpt lat="40.4248724" lon="15.2427084"><ele>119.0</ele><time>2026-05-05T12:11:10.992Z</time></trkpt><trkpt lat="40.4248181" lon="15.2427852"><ele>119.0</ele><time>2026-05-05T12:11:11.993Z</time></trkpt><trkpt lat="40.424763" lon="15.242867"><ele>118.99999999999999</ele><time>2026-05-05T12:11:12.991Z</time></trkpt><trkpt lat="40.4247099" lon="15.2429518"><ele>119.0</ele><time>2026-05-05T12:11:13.993Z</time></trkpt><trkpt lat="40.4246421" lon="15.2430113"><ele>118.99999999999999</ele><time>2026-05-05T12:11:14.993Z</time></trkpt><trkpt lat="40.4245742" lon="15.2430394"><ele>119.0</ele><time>2026-05-05T12:11:15.993Z</time></trkpt><trkpt lat="40.4244954" lon="15.2430732"><ele>119.0</ele><time>2026-05-05T12:11:16.992Z</time></trkpt><trkpt lat="40.4244063" lon="15.2430939"><ele>119.0</ele><time>2026-05-05T12:11:17.993Z</time></trkpt><trkpt lat="40.424308" lon="15.2431138"><ele>118.99999999999999</ele><time>2026-05-05T12:11:18.993Z</time></trkpt><trkpt lat="40.4242082" lon="15.2431351"><ele>119.0</ele><time>2026-05-05T12:11:19.992Z</time></trkpt><trkpt lat="40.4240954" lon="15.2431536"><ele>119.4</ele><time>2026-05-05T12:11:20.993Z</time></trkpt><trkpt lat="40.4239979" lon="15.2431679"><ele>119.80000000000001</ele><time>2026-05-05T12:11:21.992Z</time></trkpt><trkpt lat="40.4239052" lon="15.2431762"><ele>120.19999999999999</ele><time>2026-05-05T12:11:22.993Z</time></trkpt><trkpt lat="40.4238129" lon="15.2431677"><ele>120.6</ele><time>2026-05-05T12:11:23.993Z</time></trkpt><trkpt lat="40.4237221" lon="15.2431517"><ele>121.0</ele><time>2026-05-05T12:11:24.992Z</time></trkpt><trkpt lat="40.4236245" lon="15.2431406"><ele>121.0</ele><time>2026-05-05T12:11:25.993Z</time></trkpt><trkpt lat="40.4235295" lon="15.2431338"><ele>121.0</ele><time>2026-05-05T12:11:26.993Z</time></trkpt><trkpt lat="40.4234347" lon="15.2431113"><ele>121.0</ele><time>2026-05-05T12:11:27.993Z</time></trkpt><trkpt lat="40.4233441" lon="15.2430836"><ele>121.0</ele><time>2026-05-05T12:11:28.992Z</time></trkpt><trkpt lat="40.423257" lon="15.2430476"><ele>121.0</ele><time>2026-05-05T12:11:29.993Z</time></trkpt><trkpt lat="40.4231737" lon="15.2430179"><ele>121.0</ele><time>2026-05-05T12:11:30.993Z</time></trkpt><trkpt lat="40.4230817" lon="15.2430062"><ele>121.0</ele><time>2026-05-05T12:11:31.992Z</time></trkpt><trkpt lat="40.4229827" lon="15.2429947"><ele>121.0</ele><time>2026-05-05T12:11:32.992Z</time></trkpt><trkpt lat="40.4228868" lon="15.2429694"><ele>121.0</ele><time>2026-05-05T12:11:33.992Z</time></trkpt><trkpt lat="40.4227911" lon="15.2429442"><ele>121.0</ele><time>2026-05-05T12:11:34.993Z</time></trkpt><trkpt lat="40.4227099" lon="15.2429157"><ele>121.0</ele><time>2026-05-05T12:11:35.992Z</time></trkpt><trkpt lat="40.422646" lon="15.2428802"><ele>120.99999999999999</ele><time>2026-05-05T12:11:36.992Z</time></trkpt><trkpt lat="40.4225927" lon="15.2428297"><ele>121.0</ele><time>2026-05-05T12:11:37.993Z</time></trkpt><trkpt lat="40.4225408" lon="15.2427618"><ele>121.0</ele><time>2026-05-05T12:11:38.993Z</time></trkpt><trkpt lat="40.422487" lon="15.2427119"><ele>120.99999999999999</ele><time>2026-05-05T12:11:39.993Z</time></trkpt><trkpt lat="40.42242" lon="15.242663"><ele>121.0</ele><time>2026-05-05T12:11:40.993Z</time></trkpt><trkpt lat="40.4223469" lon="15.2426158"><ele>121.0</ele><time>2026-05-05T12:11:41.993Z</time></trkpt><trkpt lat="40.422264" lon="15.2425665"><ele>121.00000000000001</ele><time>2026-05-05T12:11:42.992Z</time></trkpt><trkpt lat="40.4221881" lon="15.2425252"><ele>121.0</ele><time>2026-05-05T12:11:43.993Z</time></trkpt><trkpt lat="40.4221148" lon="15.2425099"><ele>121.0</ele><time>2026-05-05T12:11:44.992Z</time></trkpt><trkpt lat="40.4220491" lon="15.2425187"><ele>121.0</ele><time>2026-05-05T12:11:45.993Z</time></trkpt><trkpt lat="40.4219563" lon="15.2426096"><ele>121.00000000000001</ele><time>2026-05-05T12:11:47.992Z</time></trkpt><trkpt lat="40.4219234" lon="15.2426856"><ele>121.0</ele><time>2026-05-05T12:11:48.993Z</time></trkpt><trkpt lat="40.4218957" lon="15.2427839"><ele>121.4</ele><time>2026-05-05T12:11:49.992Z</time></trkpt><trkpt lat="40.4218705" lon="15.2428911"><ele>121.8</ele><time>2026-05-05T12:11:50.992Z</time></trkpt><trkpt lat="40.4218414" lon="15.2430061"><ele>122.20000000000002</ele><time>2026-05-05T12:11:51.993Z</time></trkpt><trkpt lat="40.421816" lon="15.2431323"><ele>122.60000000000001</ele><time>2026-05-05T12:11:52.992Z</time></trkpt><trkpt lat="40.421795" lon="15.2432697"><ele>123.0</ele><time>2026-05-05T12:11:53.993Z</time></trkpt><trkpt lat="40.4217759" lon="15.2434049"><ele>123.5</ele><time>2026-05-05T12:11:54.993Z</time></trkpt><trkpt lat="40.4217516" lon="15.2435236"><ele>124.0</ele><time>2026-05-05T12:11:55.992Z</time></trkpt><trkpt lat="40.4217049" lon="15.2436073"><ele>124.5</ele><time>2026-05-05T12:11:56.993Z</time></trkpt><trkpt lat="40.4216335" lon="15.2436567"><ele>125.0</ele><time>2026-05-05T12:11:57.993Z</time></trkpt><trkpt lat="40.4215438" lon="15.2436806"><ele>125.5</ele><time>2026-05-05T12:11:58.993Z</time></trkpt><trkpt lat="40.4214441" lon="15.2436853"><ele>126.0</ele><time>2026-05-05T12:11:59.993Z</time></trkpt><trkpt lat="40.4213382" lon="15.2436817"><ele>125.83333333333333</ele><time>2026-05-05T12:12:00.993Z</time></trkpt><trkpt lat="40.421245" lon="15.2436795"><ele>125.66666666666666</ele><time>2026-05-05T12:12:01.992Z</time></trkpt><trkpt lat="40.4211641" lon="15.2436843"><ele>125.5</ele><time>2026-05-05T12:12:02.993Z</time></trkpt><trkpt lat="40.4210978" lon="15.2437279"><ele>125.33333333333333</ele><time>2026-05-05T12:12:03.992Z</time></trkpt><trkpt lat="40.421054" lon="15.2438041"><ele>125.16666666666666</ele><time>2026-05-05T12:12:04.992Z</time></trkpt><trkpt lat="40.42104" lon="15.2439103"><ele>125.0</ele><time>2026-05-05T12:12:05.992Z</time></trkpt><trkpt lat="40.4210531" lon="15.2440341"><ele>125.5</ele><time>2026-05-05T12:12:06.991Z</time></trkpt><trkpt lat="40.4210809" lon="15.2441684"><ele>126.0</ele><time>2026-05-05T12:12:07.993Z</time></trkpt><trkpt lat="40.4211129" lon="15.2443186"><ele>126.5</ele><time>2026-05-05T12:12:08.992Z</time></trkpt><trkpt lat="40.4211512" lon="15.2444782"><ele>127.0</ele><time>2026-05-05T12:12:09.992Z</time></trkpt><trkpt lat="40.4211956" lon="15.2446468"><ele>127.25</ele><time>2026-05-05T12:12:10.993Z</time></trkpt><trkpt lat="40.4212315" lon="15.2448361"><ele>127.5</ele><time>2026-05-05T12:12:11.992Z</time></trkpt><trkpt lat="40.4212292" lon="15.2450125"><ele>127.75</ele><time>2026-05-05T12:12:12.993Z</time></trkpt><trkpt lat="40.4212183" lon="15.2451857"><ele>128.0</ele><time>2026-05-05T12:12:13.993Z</time></trkpt><trkpt lat="40.4212134" lon="15.2453568"><ele>128.0</ele><time>2026-05-05T12:12:14.993Z</time></trkpt><trkpt lat="40.4212075" lon="15.2455028"><ele>128.0</ele><time>2026-05-05T12:12:15.993Z</time></trkpt><trkpt lat="40.4211994" lon="15.2456032"><ele>128.0</ele><time>2026-05-05T12:12:16.993Z</time></trkpt><trkpt lat="40.4212634" lon="15.2456628"><ele>128.0</ele><time>2026-05-05T12:12:19.993Z</time></trkpt><trkpt lat="40.4213678" lon="15.2455916"><ele>128.0</ele><time>2026-05-05T12:12:21.993Z</time></trkpt><trkpt lat="40.4214295" lon="15.2454893"><ele>130.5</ele><time>2026-05-05T12:12:22.993Z</time></trkpt><trkpt lat="40.4214933" lon="15.2453725"><ele>133.0</ele><time>2026-05-05T12:12:23.992Z</time></trkpt><trkpt lat="40.4215665" lon="15.2452368"><ele>135.5</ele><time>2026-05-05T12:12:24.992Z</time></trkpt><trkpt lat="40.4216474" lon="15.2450872"><ele>138.0</ele><time>2026-05-05T12:12:25.992Z</time></trkpt><trkpt lat="40.4217345" lon="15.2449294"><ele>135.66666666666666</ele><time>2026-05-05T12:12:26.992Z</time></trkpt><trkpt lat="40.4218272" lon="15.2447584"><ele>133.33333333333331</ele><time>2026-05-05T12:12:27.993Z</time></trkpt><trkpt lat="40.4219238" lon="15.2445809"><ele>131.0</ele><time>2026-05-05T12:12:28.993Z</time></trkpt><trkpt lat="40.4220245" lon="15.2443966"><ele>131.0</ele><time>2026-05-05T12:12:29.993Z</time></trkpt><trkpt lat="40.4221283" lon="15.2442078"><ele>131.0</ele><time>2026-05-05T12:12:30.992Z</time></trkpt><trkpt lat="40.4222293" lon="15.2440104"><ele>131.0</ele><time>2026-05-05T12:12:31.992Z</time></trkpt><trkpt lat="40.422326" lon="15.2438075"><ele>127.66666666666666</ele><time>2026-05-05T12:12:32.992Z</time></trkpt><trkpt lat="40.4224149" lon="15.2435949"><ele>124.33333333333334</ele><time>2026-05-05T12:12:33.993Z</time></trkpt><trkpt lat="40.4224926" lon="15.243372"><ele>121.0</ele><time>2026-05-05T12:12:34.993Z</time></trkpt><trkpt lat="40.4225599" lon="15.2431465"><ele>121.0</ele><time>2026-05-05T12:12:35.993Z</time></trkpt><trkpt lat="40.4226226" lon="15.2429167"><ele>121.0</ele><time>2026-05-05T12:12:36.993Z</time></trkpt><trkpt lat="40.4226869" lon="15.2426859"><ele>121.0</ele><time>2026-05-05T12:12:37.993Z</time></trkpt><trkpt lat="40.422751" lon="15.2424556"><ele>122.33333333333334</ele><time>2026-05-05T12:12:38.993Z</time></trkpt><trkpt lat="40.4228187" lon="15.2422245"><ele>123.66666666666666</ele><time>2026-05-05T12:12:39.993Z</time></trkpt><trkpt lat="40.4228844" lon="15.241993"><ele>125.0</ele><time>2026-05-05T12:12:40.993Z</time></trkpt><trkpt lat="40.42295" lon="15.2417606"><ele>125.33333333333333</ele><time>2026-05-05T12:12:41.992Z</time></trkpt><trkpt lat="40.4230147" lon="15.2415287"><ele>125.66666666666666</ele><time>2026-05-05T12:12:42.992Z</time></trkpt><trkpt lat="40.4230795" lon="15.2412976"><ele>126.0</ele><time>2026-05-05T12:12:43.992Z</time></trkpt><trkpt lat="40.4231421" lon="15.2410695"><ele>126.0</ele><time>2026-05-05T12:12:44.993Z</time></trkpt><trkpt lat="40.4232049" lon="15.2408451"><ele>126.0</ele><time>2026-05-05T12:12:45.993Z</time></trkpt><trkpt lat="40.4232602" lon="15.2406199"><ele>126.0</ele><time>2026-05-05T12:12:46.993Z</time></trkpt><trkpt lat="40.4232994" lon="15.2403935"><ele>128.5</ele><time>2026-05-05T12:12:47.993Z</time></trkpt><trkpt lat="40.4233212" lon="15.2401793"><ele>131.0</ele><time>2026-05-05T12:12:48.992Z</time></trkpt><trkpt lat="40.4233368" lon="15.2399858"><ele>133.5</ele><time>2026-05-05T12:12:49.993Z</time></trkpt><trkpt lat="40.4233498" lon="15.2398608"><ele>136.0</ele><time>2026-05-05T12:12:50.993Z</time></trkpt><trkpt lat="40.4234231" lon="15.2398982"><ele>136.0</ele><time>2026-05-05T12:12:59.993Z</time></trkpt><trkpt lat="40.4234815" lon="15.2399489"><ele>136.0</ele><time>2026-05-05T12:13:00.992Z</time></trkpt><trkpt lat="40.4235426" lon="15.2400019"><ele>136.0</ele><time>2026-05-05T12:13:01.993Z</time></trkpt><trkpt lat="40.4236023" lon="15.2400556"><ele>136.0</ele><time>2026-05-05T12:13:02.993Z</time></trkpt><trkpt lat="40.4236661" lon="15.2401659"><ele>136.0</ele><time>2026-05-05T12:13:04.993Z</time></trkpt><trkpt lat="40.4236673" lon="15.240301"><ele>136.0</ele><time>2026-05-05T12:13:06.993Z</time></trkpt><trkpt lat="40.4236051" lon="15.2404437"><ele>136.0</ele><time>2026-05-05T12:13:08.993Z</time></trkpt><trkpt lat="40.4235534" lon="15.2405169"><ele>136.0</ele><time>2026-05-05T12:13:09.993Z</time></trkpt><trkpt lat="40.4234943" lon="15.2405915"><ele>136.0</ele><time>2026-05-05T12:13:10.993Z</time></trkpt><trkpt lat="40.4234453" lon="15.2406694"><ele>136.0</ele><time>2026-05-05T12:13:11.993Z</time></trkpt><trkpt lat="40.423413" lon="15.2407648"><ele>136.0</ele><time>2026-05-05T12:13:12.993Z</time></trkpt><trkpt lat="40.4233895" lon="15.2408685"><ele>136.0</ele><time>2026-05-05T12:13:13.992Z</time></trkpt><trkpt lat="40.4233608" lon="15.240964"><ele>134.0</ele><time>2026-05-05T12:13:14.993Z</time></trkpt><trkpt lat="40.4233365" lon="15.2410549"><ele>132.0</ele><time>2026-05-05T12:13:15.993Z</time></trkpt><trkpt lat="40.4233414" lon="15.2411879"><ele>130.0</ele><time>2026-05-05T12:13:17.992Z</time></trkpt><trkpt lat="40.4233947" lon="15.2412908"><ele>128.0</ele><time>2026-05-05T12:13:19.993Z</time></trkpt><trkpt lat="40.423468" lon="15.2414307"><ele>126.0</ele><time>2026-05-05T12:13:21.992Z</time></trkpt><trkpt lat="40.4235123" lon="15.2415081"><ele>125.0</ele><time>2026-05-05T12:13:22.993Z</time></trkpt><trkpt lat="40.4235601" lon="15.2415859"><ele>124.0</ele><time>2026-05-05T12:13:23.992Z</time></trkpt><trkpt lat="40.4236094" lon="15.2416519"><ele>123.0</ele><time>2026-05-05T12:13:24.992Z</time></trkpt><trkpt lat="40.4236657" lon="15.241722"><ele>122.0</ele><time>2026-05-05T12:13:25.993Z</time></trkpt><trkpt lat="40.4237253" lon="15.2417975"><ele>121.0</ele><time>2026-05-05T12:13:26.993Z</time></trkpt><trkpt lat="40.4237798" lon="15.2418677"><ele>120.0</ele><time>2026-05-05T12:13:27.992Z</time></trkpt><trkpt lat="40.4238223" lon="15.2419454"><ele>119.83333333333333</ele><time>2026-05-05T12:13:28.993Z</time></trkpt><trkpt lat="40.4238662" lon="15.2420274"><ele>119.66666666666666</ele><time>2026-05-05T12:13:29.993Z</time></trkpt><trkpt lat="40.4239159" lon="15.2421181"><ele>119.5</ele><time>2026-05-05T12:13:30.992Z</time></trkpt><trkpt lat="40.423961" lon="15.2421884"><ele>119.33333333333333</ele><time>2026-05-05T12:13:31.992Z</time></trkpt><trkpt lat="40.4240649" lon="15.2422367"><ele>119.16666666666666</ele><time>2026-05-05T12:13:33.993Z</time></trkpt><trkpt lat="40.4241285" lon="15.2422208"><ele>119.0</ele><time>2026-05-05T12:13:34.993Z</time></trkpt><trkpt lat="40.4242058" lon="15.2421747"><ele>119.0</ele><time>2026-05-05T12:13:35.993Z</time></trkpt><trkpt lat="40.4242806" lon="15.2421131"><ele>119.0</ele><time>2026-05-05T12:13:36.993Z</time></trkpt><trkpt lat="40.4243637" lon="15.2420433"><ele>119.0</ele><time>2026-05-05T12:13:37.993Z</time></trkpt><trkpt lat="40.4244455" lon="15.2419839"><ele>119.0</ele><time>2026-05-05T12:13:38.992Z</time></trkpt><trkpt lat="40.4245158" lon="15.2419151"><ele>119.0</ele><time>2026-05-05T12:13:39.993Z</time></trkpt><trkpt lat="40.4245757" lon="15.2418241"><ele>118.99999999999999</ele><time>2026-05-05T12:13:40.992Z</time></trkpt><trkpt lat="40.4246347" lon="15.2417182"><ele>119.0</ele><time>2026-05-05T12:13:41.992Z</time></trkpt><trkpt lat="40.4246932" lon="15.2416066"><ele>119.0</ele><time>2026-05-05T12:13:42.993Z</time></trkpt><trkpt lat="40.4247254" lon="15.2415103"><ele>119.0</ele><time>2026-05-05T12:13:43.992Z</time></trkpt><trkpt lat="40.4247263" lon="15.2414164"><ele>118.99999999999999</ele><time>2026-05-05T12:13:44.992Z</time></trkpt><trkpt lat="40.4247073" lon="15.2413083"><ele>119.0</ele><time>2026-05-05T12:13:45.993Z</time></trkpt><trkpt lat="40.4246876" lon="15.2411857"><ele>118.99999999999999</ele><time>2026-05-05T12:13:46.992Z</time></trkpt><trkpt lat="40.4246906" lon="15.2410758"><ele>119.0</ele><time>2026-05-05T12:13:47.993Z</time></trkpt><trkpt lat="40.4247105" lon="15.2409804"><ele>119.0</ele><time>2026-05-05T12:13:48.992Z</time></trkpt><trkpt lat="40.4247514" lon="15.2408991"><ele>119.0</ele><time>2026-05-05T12:13:49.993Z</time></trkpt><trkpt lat="40.4248227" lon="15.2408179"><ele>118.99999999999999</ele><time>2026-05-05T12:13:50.993Z</time></trkpt><trkpt lat="40.4248992" lon="15.2407331"><ele>119.0</ele><time>2026-05-05T12:13:51.992Z</time></trkpt><trkpt lat="40.4249726" lon="15.2406369"><ele>118.80000000000001</ele><time>2026-05-05T12:13:52.993Z</time></trkpt><trkpt lat="40.4250289" lon="15.2405298"><ele>118.60000000000001</ele><time>2026-05-05T12:13:53.992Z</time></trkpt><trkpt lat="40.4250764" lon="15.2403964"><ele>118.4</ele><time>2026-05-05T12:13:54.992Z</time></trkpt><trkpt lat="40.4251128" lon="15.2402451"><ele>118.2</ele><time>2026-05-05T12:13:55.993Z</time></trkpt><trkpt lat="40.425144" lon="15.2400991"><ele>118.0</ele><time>2026-05-05T12:13:56.993Z</time></trkpt><trkpt lat="40.4251787" lon="15.2399667"><ele>118.0</ele><time>2026-05-05T12:13:57.992Z</time></trkpt><trkpt lat="40.4252142" lon="15.2398404"><ele>118.00000000000001</ele><time>2026-05-05T12:13:58.993Z</time></trkpt><trkpt lat="40.4252495" lon="15.2397236"><ele>118.00000000000001</ele><time>2026-05-05T12:13:59.992Z</time></trkpt><trkpt lat="40.4252735" lon="15.2396093"><ele>118.0</ele><time>2026-05-05T12:14:00.992Z</time></trkpt><trkpt lat="40.4252947" lon="15.2395015"><ele>118.0</ele><time>2026-05-05T12:14:01.993Z</time></trkpt><trkpt lat="40.4253197" lon="15.2393959"><ele>118.33333333333334</ele><time>2026-05-05T12:14:02.993Z</time></trkpt><trkpt lat="40.4253321" lon="15.2393062"><ele>118.66666666666667</ele><time>2026-05-05T12:14:03.993Z</time></trkpt><trkpt lat="40.4253566" lon="15.2392256"><ele>119.0</ele><time>2026-05-05T12:14:04.993Z</time></trkpt><trkpt lat="40.4253043" lon="15.2391401"><ele>119.33333333333334</ele><time>2026-05-05T12:14:05.993Z</time></trkpt><trkpt lat="40.4252122" lon="15.2390211"><ele>119.66666666666667</ele><time>2026-05-05T12:14:07.992Z</time></trkpt><trkpt lat="40.4251541" lon="15.2389792"><ele>120.0</ele><time>2026-05-05T12:14:08.992Z</time></trkpt><trkpt lat="40.4250724" lon="15.2388876"><ele>120.85714285714286</ele><time>2026-05-05T12:14:10.993Z</time></trkpt><trkpt lat="40.4250407" lon="15.2388133"><ele>121.71428571428571</ele><time>2026-05-05T12:14:11.992Z</time></trkpt><trkpt lat="40.4250044" lon="15.2387366"><ele>122.57142857142857</ele><time>2026-05-05T12:14:12.993Z</time></trkpt><trkpt lat="40.4249731" lon="15.2386548"><ele>123.42857142857143</ele><time>2026-05-05T12:14:13.992Z</time></trkpt><trkpt lat="40.4249379" lon="15.2385808"><ele>124.28571428571428</ele><time>2026-05-05T12:14:14.993Z</time></trkpt><trkpt lat="40.4248991" lon="15.2385086"><ele>125.14285714285714</ele><time>2026-05-05T12:14:15.993Z</time></trkpt><trkpt lat="40.4248515" lon="15.2384295"><ele>126.0</ele><time>2026-05-05T12:14:16.993Z</time></trkpt><trkpt lat="40.4248064" lon="15.238348"><ele>126.0</ele><time>2026-05-05T12:14:17.992Z</time></trkpt><trkpt lat="40.4247666" lon="15.2382627"><ele>126.0</ele><time>2026-05-05T12:14:18.992Z</time></trkpt><trkpt lat="40.4247345" lon="15.2381747"><ele>126.0</ele><time>2026-05-05T12:14:19.993Z</time></trkpt><trkpt lat="40.4247433" lon="15.2380907"><ele>126.0</ele><time>2026-05-05T12:14:20.993Z</time></trkpt><trkpt lat="40.4247817" lon="15.2380141"><ele>126.0</ele><time>2026-05-05T12:14:21.993Z</time></trkpt><trkpt lat="40.4248409" lon="15.237948"><ele>126.0</ele><time>2026-05-05T12:14:22.993Z</time></trkpt><trkpt lat="40.4249061" lon="15.2378937"><ele>126.0</ele><time>2026-05-05T12:14:23.992Z</time></trkpt><trkpt lat="40.4249647" lon="15.2378475"><ele>127.33333333333333</ele><time>2026-05-05T12:14:24.992Z</time></trkpt><trkpt lat="40.4249701" lon="15.2377064"><ele>128.66666666666666</ele><time>2026-05-05T12:14:26.993Z</time></trkpt><trkpt lat="40.4249446" lon="15.2376291"><ele>130.0</ele><time>2026-05-05T12:14:27.992Z</time></trkpt><trkpt lat="40.424914" lon="15.2375485"><ele>131.33333333333331</ele><time>2026-05-05T12:14:28.993Z</time></trkpt><trkpt lat="40.4248738" lon="15.2374699"><ele>132.66666666666666</ele><time>2026-05-05T12:14:29.992Z</time></trkpt><trkpt lat="40.424794" lon="15.2374602"><ele>134.0</ele><time>2026-05-05T12:14:30.992Z</time></trkpt><trkpt lat="40.4247207" lon="15.2374465"><ele>134.6</ele><time>2026-05-05T12:14:31.991Z</time></trkpt><trkpt lat="40.4246371" lon="15.2374593"><ele>135.2</ele><time>2026-05-05T12:14:32.991Z</time></trkpt><trkpt lat="40.4245449" lon="15.2374832"><ele>135.79999999999998</ele><time>2026-05-05T12:14:33.993Z</time></trkpt><trkpt lat="40.4244519" lon="15.2375022"><ele>136.4</ele><time>2026-05-05T12:14:34.993Z</time></trkpt><trkpt lat="40.4243569" lon="15.2375138"><ele>137.0</ele><time>2026-05-05T12:14:35.993Z</time></trkpt><trkpt lat="40.4242637" lon="15.23753"><ele>137.0</ele><time>2026-05-05T12:14:36.993Z</time></trkpt><trkpt lat="40.4241791" lon="15.2375453"><ele>137.0</ele><time>2026-05-05T12:14:37.993Z</time></trkpt><trkpt lat="40.4241038" lon="15.2375756"><ele>137.0</ele><time>2026-05-05T12:14:38.993Z</time></trkpt><trkpt lat="40.4240296" lon="15.2376976"><ele>137.0</ele><time>2026-05-05T12:14:39.993Z</time></trkpt><trkpt lat="40.4239637" lon="15.2377581"><ele>137.0</ele><time>2026-05-05T12:14:40.992Z</time></trkpt><trkpt lat="40.4238813" lon="15.2377955"><ele>137.79999999999998</ele><time>2026-05-05T12:14:41.993Z</time></trkpt><trkpt lat="40.4237986" lon="15.2378362"><ele>138.6</ele><time>2026-05-05T12:14:42.993Z</time></trkpt><trkpt lat="40.4237217" lon="15.2379206"><ele>139.39999999999998</ele><time>2026-05-05T12:14:43.993Z</time></trkpt><trkpt lat="40.4236513" lon="15.2380149"><ele>140.2</ele><time>2026-05-05T12:14:44.993Z</time></trkpt><trkpt lat="40.4235815" lon="15.2380912"><ele>141.0</ele><time>2026-05-05T12:14:45.993Z</time></trkpt><trkpt lat="40.4235278" lon="15.2381887"><ele>141.0</ele><time>2026-05-05T12:14:46.992Z</time></trkpt><trkpt lat="40.4234707" lon="15.2382557"><ele>141.0</ele><time>2026-05-05T12:14:47.993Z</time></trkpt><trkpt lat="40.4234026" lon="15.2382925"><ele>141.0</ele><time>2026-05-05T12:14:48.991Z</time></trkpt><trkpt lat="40.4233379" lon="15.2383008"><ele>141.0</ele><time>2026-05-05T12:14:49.991Z</time></trkpt><trkpt lat="40.4232513" lon="15.2383159"><ele>141.0</ele><time>2026-05-05T12:14:51.993Z</time></trkpt><trkpt lat="40.4231799" lon="15.2382961"><ele>141.0</ele><time>2026-05-05T12:14:54.993Z</time></trkpt><trkpt lat="40.4231337" lon="15.2381836"><ele>141.66666666666666</ele><time>2026-05-05T12:14:56.993Z</time></trkpt><trkpt lat="40.4231132" lon="15.2381012"><ele>142.33333333333334</ele><time>2026-05-05T12:14:57.993Z</time></trkpt><trkpt lat="40.4230913" lon="15.238014"><ele>143.0</ele><time>2026-05-05T12:14:58.993Z</time></trkpt><trkpt lat="40.4230464" lon="15.2378617"><ele>143.66666666666669</ele><time>2026-05-05T12:15:00.993Z</time></trkpt><trkpt lat="40.4230219" lon="15.2377829"><ele>144.33333333333334</ele><time>2026-05-05T12:15:01.993Z</time></trkpt><trkpt lat="40.4229959" lon="15.2376983"><ele>145.0</ele><time>2026-05-05T12:15:02.993Z</time></trkpt><trkpt lat="40.422975" lon="15.2375099"><ele>145.0</ele><time>2026-05-05T12:15:04.992Z</time></trkpt><trkpt lat="40.4229828" lon="15.2374133"><ele>145.0</ele><time>2026-05-05T12:15:05.992Z</time></trkpt><trkpt lat="40.4230065" lon="15.2373182"><ele>145.0</ele><time>2026-05-05T12:15:06.992Z</time></trkpt><trkpt lat="40.4230394" lon="15.2372257"><ele>145.0</ele><time>2026-05-05T12:15:07.993Z</time></trkpt><trkpt lat="40.4230754" lon="15.2371334"><ele>145.0</ele><time>2026-05-05T12:15:08.993Z</time></trkpt><trkpt lat="40.4231177" lon="15.2370455"><ele>145.0</ele><time>2026-05-05T12:15:09.993Z</time></trkpt><trkpt lat="40.423157" lon="15.2369559"><ele>146.5</ele><time>2026-05-05T12:15:10.992Z</time></trkpt><trkpt lat="40.4231972" lon="15.236869"><ele>148.0</ele><time>2026-05-05T12:15:11.993Z</time></trkpt><trkpt lat="40.4232369" lon="15.2367791"><ele>149.5</ele><time>2026-05-05T12:15:12.992Z</time></trkpt><trkpt lat="40.4232763" lon="15.2366912"><ele>151.0</ele><time>2026-05-05T12:15:13.992Z</time></trkpt><trkpt lat="40.4233144" lon="15.2366112"><ele>152.5</ele><time>2026-05-05T12:15:14.992Z</time></trkpt><trkpt lat="40.4233609" lon="15.2365336"><ele>154.0</ele><time>2026-05-05T12:15:15.992Z</time></trkpt><trkpt lat="40.423418" lon="15.2364688"><ele>154.16666666666669</ele><time>2026-05-05T12:15:16.991Z</time></trkpt><trkpt lat="40.4234881" lon="15.2364244"><ele>154.33333333333334</ele><time>2026-05-05T12:15:17.993Z</time></trkpt><trkpt lat="40.4235644" lon="15.2363984"><ele>154.5</ele><time>2026-05-05T12:15:18.993Z</time></trkpt><trkpt lat="40.4236424" lon="15.2363904"><ele>154.66666666666666</ele><time>2026-05-05T12:15:19.992Z</time></trkpt><trkpt lat="40.423726" lon="15.2363836"><ele>154.83333333333331</ele><time>2026-05-05T12:15:20.993Z</time></trkpt><trkpt lat="40.4238058" lon="15.2363655"><ele>155.0</ele><time>2026-05-05T12:15:21.993Z</time></trkpt><trkpt lat="40.4238783" lon="15.236337"><ele>155.0</ele><time>2026-05-05T12:15:22.993Z</time></trkpt><trkpt lat="40.4239454" lon="15.236286"><ele>155.0</ele><time>2026-05-05T12:15:23.993Z</time></trkpt><trkpt lat="40.4240012" lon="15.2362084"><ele>155.0</ele><time>2026-05-05T12:15:24.992Z</time></trkpt><trkpt lat="40.424049" lon="15.2361179"><ele>155.0</ele><time>2026-05-05T12:15:25.992Z</time></trkpt><trkpt lat="40.4240966" lon="15.2360232"><ele>155.0</ele><time>2026-05-05T12:15:26.992Z</time></trkpt><trkpt lat="40.4241396" lon="15.2359266"><ele>155.0</ele><time>2026-05-05T12:15:27.991Z</time></trkpt><trkpt lat="40.4241777" lon="15.2358253"><ele>155.0</ele><time>2026-05-05T12:15:28.991Z</time></trkpt><trkpt lat="40.424222" lon="15.2357294"><ele>155.0</ele><time>2026-05-05T12:15:29.992Z</time></trkpt><trkpt lat="40.4242665" lon="15.2356325"><ele>155.0</ele><time>2026-05-05T12:15:30.991Z</time></trkpt><trkpt lat="40.424308" lon="15.2355343"><ele>155.0</ele><time>2026-05-05T12:15:31.993Z</time></trkpt><trkpt lat="40.4243515" lon="15.2354417"><ele>155.0</ele><time>2026-05-05T12:15:32.992Z</time></trkpt><trkpt lat="40.4243938" lon="15.2353611"><ele>155.0</ele><time>2026-05-05T12:15:33.993Z</time></trkpt><trkpt lat="40.4244303" lon="15.2352903"><ele>156.0</ele><time>2026-05-05T12:15:34.993Z</time></trkpt><trkpt lat="40.4244868" lon="15.2351723"><ele>157.0</ele><time>2026-05-05T12:15:36.993Z</time></trkpt><trkpt lat="40.4245617" lon="15.2350214"><ele>158.0</ele><time>2026-05-05T12:15:38.993Z</time></trkpt><trkpt lat="40.4246031" lon="15.2349294"><ele>159.0</ele><time>2026-05-05T12:15:39.993Z</time></trkpt><trkpt lat="40.4246513" lon="15.2348282"><ele>160.0</ele><time>2026-05-05T12:15:40.992Z</time></trkpt><trkpt lat="40.4247015" lon="15.2347183"><ele>160.4</ele><time>2026-05-05T12:15:41.993Z</time></trkpt><trkpt lat="40.4247542" lon="15.2346059"><ele>160.8</ele><time>2026-05-05T12:15:42.993Z</time></trkpt><trkpt lat="40.4247973" lon="15.234486"><ele>161.2</ele><time>2026-05-05T12:15:43.992Z</time></trkpt><trkpt lat="40.4248199" lon="15.2343438"><ele>161.6</ele><time>2026-05-05T12:15:44.992Z</time></trkpt><trkpt lat="40.4248166" lon="15.2341887"><ele>162.0</ele><time>2026-05-05T12:15:45.993Z</time></trkpt><trkpt lat="40.4247983" lon="15.2340245"><ele>162.75</ele><time>2026-05-05T12:15:46.992Z</time></trkpt><trkpt lat="40.4247754" lon="15.2338517"><ele>163.5</ele><time>2026-05-05T12:15:47.993Z</time></trkpt><trkpt lat="40.4247482" lon="15.2336668"><ele>164.25</ele><time>2026-05-05T12:15:48.992Z</time></trkpt><trkpt lat="40.4247229" lon="15.2334744"><ele>165.0</ele><time>2026-05-05T12:15:49.993Z</time></trkpt><trkpt lat="40.4247054" lon="15.2332842"><ele>166.25</ele><time>2026-05-05T12:15:50.992Z</time></trkpt><trkpt lat="40.4247103" lon="15.2331052"><ele>167.5</ele><time>2026-05-05T12:15:51.993Z</time></trkpt><trkpt lat="40.4247438" lon="15.2329368"><ele>168.75</ele><time>2026-05-05T12:15:52.992Z</time></trkpt><trkpt lat="40.4247919" lon="15.2327709"><ele>170.0</ele><time>2026-05-05T12:15:53.992Z</time></trkpt><trkpt lat="40.4248465" lon="15.2326066"><ele>170.0</ele><time>2026-05-05T12:15:54.992Z</time></trkpt><trkpt lat="40.4249066" lon="15.2324514"><ele>170.0</ele><time>2026-05-05T12:15:55.992Z</time></trkpt><trkpt lat="40.4249755" lon="15.232306"><ele>170.0</ele><time>2026-05-05T12:15:56.992Z</time></trkpt><trkpt lat="40.4250554" lon="15.2321698"><ele>170.0</ele><time>2026-05-05T12:15:57.993Z</time></trkpt><trkpt lat="40.4251435" lon="15.2320436"><ele>171.75</ele><time>2026-05-05T12:15:58.993Z</time></trkpt><trkpt lat="40.4252333" lon="15.2319302"><ele>173.5</ele><time>2026-05-05T12:15:59.993Z</time></trkpt><trkpt lat="40.4253146" lon="15.231822"><ele>175.25</ele><time>2026-05-05T12:16:00.993Z</time></trkpt><trkpt lat="40.4253824" lon="15.2317016"><ele>177.0</ele><time>2026-05-05T12:16:01.993Z</time></trkpt><trkpt lat="40.4254355" lon="15.2315635"><ele>176.5</ele><time>2026-05-05T12:16:02.992Z</time></trkpt><trkpt lat="40.4254782" lon="15.2314147"><ele>176.0</ele><time>2026-05-05T12:16:03.993Z</time></trkpt><trkpt lat="40.4255132" lon="15.2312585"><ele>175.5</ele><time>2026-05-05T12:16:04.993Z</time></trkpt><trkpt lat="40.4255446" lon="15.2310995"><ele>175.0</ele><time>2026-05-05T12:16:05.992Z</time></trkpt><trkpt lat="40.4255743" lon="15.2309423"><ele>175.0</ele><time>2026-05-05T12:16:06.992Z</time></trkpt><trkpt lat="40.4255916" lon="15.2307862"><ele>175.0</ele><time>2026-05-05T12:16:07.992Z</time></trkpt><trkpt lat="40.4255923" lon="15.2306255"><ele>175.0</ele><time>2026-05-05T12:16:08.992Z</time></trkpt><trkpt lat="40.4255698" lon="15.2304681"><ele>175.0</ele><time>2026-05-05T12:16:09.993Z</time></trkpt><trkpt lat="40.4255368" lon="15.2303084"><ele>176.75</ele><time>2026-05-05T12:16:10.992Z</time></trkpt><trkpt lat="40.4255052" lon="15.2301506"><ele>178.5</ele><time>2026-05-05T12:16:11.993Z</time></trkpt><trkpt lat="40.4254818" lon="15.2299936"><ele>180.25</ele><time>2026-05-05T12:16:12.993Z</time></trkpt><trkpt lat="40.4254727" lon="15.2298377"><ele>182.0</ele><time>2026-05-05T12:16:13.992Z</time></trkpt><trkpt lat="40.4254784" lon="15.2296803"><ele>183.25</ele><time>2026-05-05T12:16:14.992Z</time></trkpt><trkpt lat="40.4254993" lon="15.2295225"><ele>184.5</ele><time>2026-05-05T12:16:15.993Z</time></trkpt><trkpt lat="40.4255302" lon="15.229364"><ele>185.75</ele><time>2026-05-05T12:16:16.993Z</time></trkpt><trkpt lat="40.4255699" lon="15.2292083"><ele>187.0</ele><time>2026-05-05T12:16:17.992Z</time></trkpt><trkpt lat="40.4256169" lon="15.2290568"><ele>188.25</ele><time>2026-05-05T12:16:18.992Z</time></trkpt><trkpt lat="40.4256789" lon="15.2289145"><ele>189.5</ele><time>2026-05-05T12:16:19.993Z</time></trkpt><trkpt lat="40.4257569" lon="15.2287874"><ele>190.75</ele><time>2026-05-05T12:16:20.993Z</time></trkpt><trkpt lat="40.4258496" lon="15.2286769"><ele>192.0</ele><time>2026-05-05T12:16:21.992Z</time></trkpt><trkpt lat="40.4259459" lon="15.2285714"><ele>192.0</ele><time>2026-05-05T12:16:22.992Z</time></trkpt><trkpt lat="40.4260344" lon="15.2284566"><ele>192.0</ele><time>2026-05-05T12:16:23.992Z</time></trkpt><trkpt lat="40.426105" lon="15.2283285"><ele>192.0</ele><time>2026-05-05T12:16:24.991Z</time></trkpt><trkpt lat="40.4261333" lon="15.2281891"><ele>192.0</ele><time>2026-05-05T12:16:25.991Z</time></trkpt><trkpt lat="40.4261241" lon="15.2280513"><ele>192.5</ele><time>2026-05-05T12:16:26.992Z</time></trkpt><trkpt lat="40.4260823" lon="15.2279162"><ele>193.0</ele><time>2026-05-05T12:16:27.992Z</time></trkpt><trkpt lat="40.4260129" lon="15.227789"><ele>193.5</ele><time>2026-05-05T12:16:28.992Z</time></trkpt><trkpt lat="40.4259376" lon="15.2276548"><ele>194.0</ele><time>2026-05-05T12:16:29.992Z</time></trkpt><trkpt lat="40.4258653" lon="15.2275151"><ele>194.0</ele><time>2026-05-05T12:16:30.991Z</time></trkpt><trkpt lat="40.4258181" lon="15.2273686"><ele>194.0</ele><time>2026-05-05T12:16:31.991Z</time></trkpt><trkpt lat="40.4258019" lon="15.227211"><ele>194.0</ele><time>2026-05-05T12:16:32.991Z</time></trkpt><trkpt lat="40.4258092" lon="15.2270448"><ele>194.0</ele><time>2026-05-05T12:16:33.99Z</time></trkpt><trkpt lat="40.4258239" lon="15.2268724"><ele>195.0</ele><time>2026-05-05T12:16:34.991Z</time></trkpt><trkpt lat="40.4258368" lon="15.2266917"><ele>196.0</ele><time>2026-05-05T12:16:35.991Z</time></trkpt><trkpt lat="40.4258504" lon="15.226509"><ele>197.0</ele><time>2026-05-05T12:16:36.992Z</time></trkpt><trkpt lat="40.4258674" lon="15.2263242"><ele>198.0</ele><time>2026-05-05T12:16:37.991Z</time></trkpt><trkpt lat="40.4258818" lon="15.22614"><ele>200.25</ele><time>2026-05-05T12:16:38.99Z</time></trkpt><trkpt lat="40.425895" lon="15.2259551"><ele>202.5</ele><time>2026-05-05T12:16:39.992Z</time></trkpt><trkpt lat="40.4259072" lon="15.2257691"><ele>204.75</ele><time>2026-05-05T12:16:40.991Z</time></trkpt><trkpt lat="40.4259225" lon="15.2255798"><ele>207.0</ele><time>2026-05-05T12:16:41.991Z</time></trkpt><trkpt lat="40.4259375" lon="15.2253862"><ele>208.33333333333331</ele><time>2026-05-05T12:16:42.99Z</time></trkpt><trkpt lat="40.4259499" lon="15.2251908"><ele>209.66666666666666</ele><time>2026-05-05T12:16:43.992Z</time></trkpt><trkpt lat="40.4259643" lon="15.224996"><ele>211.0</ele><time>2026-05-05T12:16:44.992Z</time></trkpt><trkpt lat="40.425975" lon="15.2247957"><ele>214.66666666666666</ele><time>2026-05-05T12:16:45.992Z</time></trkpt><trkpt lat="40.4259844" lon="15.2245971"><ele>218.33333333333331</ele><time>2026-05-05T12:16:46.991Z</time></trkpt><trkpt lat="40.4259956" lon="15.2243997"><ele>222.0</ele><time>2026-05-05T12:16:47.991Z</time></trkpt><trkpt lat="40.4260113" lon="15.2242069"><ele>222.0</ele><time>2026-05-05T12:16:48.992Z</time></trkpt><trkpt lat="40.4260428" lon="15.2240189"><ele>222.0</ele><time>2026-05-05T12:16:49.992Z</time></trkpt><trkpt lat="40.4260971" lon="15.2238396"><ele>222.0</ele><time>2026-05-05T12:16:50.991Z</time></trkpt><trkpt lat="40.4261783" lon="15.2236768"><ele>222.0</ele><time>2026-05-05T12:16:51.991Z</time></trkpt><trkpt lat="40.4262841" lon="15.2235384"><ele>218.33333333333331</ele><time>2026-05-05T12:16:52.992Z</time></trkpt><trkpt lat="40.4264112" lon="15.2234215"><ele>214.66666666666666</ele><time>2026-05-05T12:16:53.991Z</time></trkpt><trkpt lat="40.4265439" lon="15.2233106"><ele>211.0</ele><time>2026-05-05T12:16:54.992Z</time></trkpt><trkpt lat="40.4266793" lon="15.2231977"><ele>217.33333333333331</ele><time>2026-05-05T12:16:55.991Z</time></trkpt><trkpt lat="40.4268174" lon="15.2230808"><ele>223.66666666666669</ele><time>2026-05-05T12:16:56.992Z</time></trkpt><trkpt lat="40.4269556" lon="15.2229637"><ele>230.0</ele><time>2026-05-05T12:16:57.992Z</time></trkpt><trkpt lat="40.4270928" lon="15.2228476"><ele>227.33333333333334</ele><time>2026-05-05T12:16:58.992Z</time></trkpt><trkpt lat="40.4272266" lon="15.2227342"><ele>224.66666666666669</ele><time>2026-05-05T12:16:59.992Z</time></trkpt><trkpt lat="40.4273559" lon="15.2226223"><ele>222.0</ele><time>2026-05-05T12:17:00.992Z</time></trkpt><trkpt lat="40.4274808" lon="15.2225162"><ele>222.0</ele><time>2026-05-05T12:17:01.992Z</time></trkpt><trkpt lat="40.4275913" lon="15.2224205"><ele>222.0</ele><time>2026-05-05T12:17:02.992Z</time></trkpt><trkpt lat="40.4276863" lon="15.222326"><ele>222.0</ele><time>2026-05-05T12:17:03.991Z</time></trkpt><trkpt lat="40.4277535" lon="15.2222186"><ele>222.0</ele><time>2026-05-05T12:17:04.991Z</time></trkpt><trkpt lat="40.4277914" lon="15.2220939"><ele>224.5</ele><time>2026-05-05T12:17:05.99Z</time></trkpt><trkpt lat="40.4277941" lon="15.2219514"><ele>227.0</ele><time>2026-05-05T12:17:06.992Z</time></trkpt><trkpt lat="40.4277819" lon="15.2218053"><ele>229.5</ele><time>2026-05-05T12:17:07.991Z</time></trkpt><trkpt lat="40.4277704" lon="15.2216546"><ele>232.0</ele><time>2026-05-05T12:17:08.992Z</time></trkpt><trkpt lat="40.4277568" lon="15.2214996"><ele>232.75</ele><time>2026-05-05T12:17:09.992Z</time></trkpt><trkpt lat="40.4277227" lon="15.2213442"><ele>233.5</ele><time>2026-05-05T12:17:10.992Z</time></trkpt><trkpt lat="40.4276661" lon="15.2212034"><ele>234.25</ele><time>2026-05-05T12:17:11.992Z</time></trkpt><trkpt lat="40.4276095" lon="15.2210641"><ele>235.0</ele><time>2026-05-05T12:17:12.991Z</time></trkpt><trkpt lat="40.4275874" lon="15.2209104"><ele>235.0</ele><time>2026-05-05T12:17:13.991Z</time></trkpt><trkpt lat="40.427603" lon="15.2207567"><ele>235.0</ele><time>2026-05-05T12:17:14.991Z</time></trkpt><trkpt lat="40.4276409" lon="15.2206078"><ele>235.0</ele><time>2026-05-05T12:17:15.991Z</time></trkpt><trkpt lat="40.4276787" lon="15.2204555"><ele>235.0</ele><time>2026-05-05T12:17:16.992Z</time></trkpt><trkpt lat="40.4277068" lon="15.2202969"><ele>236.75</ele><time>2026-05-05T12:17:17.992Z</time></trkpt><trkpt lat="40.4277192" lon="15.2201354"><ele>238.5</ele><time>2026-05-05T12:17:18.992Z</time></trkpt><trkpt lat="40.4277175" lon="15.219981"><ele>240.25</ele><time>2026-05-05T12:17:19.991Z</time></trkpt><trkpt lat="40.4277082" lon="15.2198319"><ele>242.0</ele><time>2026-05-05T12:17:20.992Z</time></trkpt><trkpt lat="40.4276983" lon="15.2196884"><ele>243.2</ele><time>2026-05-05T12:17:21.991Z</time></trkpt><trkpt lat="40.4277079" lon="15.219546"><ele>244.39999999999998</ele><time>2026-05-05T12:17:22.991Z</time></trkpt><trkpt lat="40.4277394" lon="15.2194044"><ele>245.60000000000002</ele><time>2026-05-05T12:17:23.992Z</time></trkpt><trkpt lat="40.427781" lon="15.2192656"><ele>246.8</ele><time>2026-05-05T12:17:24.992Z</time></trkpt><trkpt lat="40.4278309" lon="15.2191332"><ele>248.0</ele><time>2026-05-05T12:17:25.992Z</time></trkpt><trkpt lat="40.4278886" lon="15.2190128"><ele>248.33333333333334</ele><time>2026-05-05T12:17:26.992Z</time></trkpt><trkpt lat="40.4279475" lon="15.2189105"><ele>248.66666666666669</ele><time>2026-05-05T12:17:27.992Z</time></trkpt><trkpt lat="40.4280025" lon="15.2188179"><ele>249.0</ele><time>2026-05-05T12:17:28.991Z</time></trkpt><trkpt lat="40.4280558" lon="15.2187376"><ele>249.33333333333331</ele><time>2026-05-05T12:17:29.992Z</time></trkpt><trkpt lat="40.4281108" lon="15.2186585"><ele>249.66666666666666</ele><time>2026-05-05T12:17:30.992Z</time></trkpt><trkpt lat="40.4281783" lon="15.2186101"><ele>250.0</ele><time>2026-05-05T12:17:31.992Z</time></trkpt><trkpt lat="40.4282665" lon="15.2184611"><ele>247.99999999999997</ele><time>2026-05-05T12:17:33.992Z</time></trkpt><trkpt lat="40.4283135" lon="15.2183714"><ele>246.0</ele><time>2026-05-05T12:17:34.991Z</time></trkpt><trkpt lat="40.4283611" lon="15.2182821"><ele>244.0</ele><time>2026-05-05T12:17:35.992Z</time></trkpt><trkpt lat="40.4284069" lon="15.2181908"><ele>242.0</ele><time>2026-05-05T12:17:36.992Z</time></trkpt><trkpt lat="40.4284571" lon="15.218102"><ele>239.99999999999997</ele><time>2026-05-05T12:17:37.992Z</time></trkpt><trkpt lat="40.4285126" lon="15.2180155"><ele>238.0</ele><time>2026-05-05T12:17:38.991Z</time></trkpt><trkpt lat="40.4285741" lon="15.2179392"><ele>237.83333333333331</ele><time>2026-05-05T12:17:39.991Z</time></trkpt><trkpt lat="40.4286414" lon="15.2178717"><ele>237.66666666666666</ele><time>2026-05-05T12:17:40.991Z</time></trkpt><trkpt lat="40.4287107" lon="15.2178037"><ele>237.5</ele><time>2026-05-05T12:17:41.991Z</time></trkpt><trkpt lat="40.4287786" lon="15.2177454"><ele>237.33333333333331</ele><time>2026-05-05T12:17:42.992Z</time></trkpt><trkpt lat="40.4288618" lon="15.2177256"><ele>237.16666666666666</ele><time>2026-05-05T12:17:43.991Z</time></trkpt><trkpt lat="40.4289511" lon="15.2177207"><ele>237.0</ele><time>2026-05-05T12:17:44.991Z</time></trkpt><trkpt lat="40.4290413" lon="15.2177058"><ele>235.0</ele><time>2026-05-05T12:17:45.991Z</time></trkpt><trkpt lat="40.4291304" lon="15.2176784"><ele>233.0</ele><time>2026-05-05T12:17:46.991Z</time></trkpt><trkpt lat="40.42922" lon="15.2176482"><ele>231.0</ele><time>2026-05-05T12:17:47.991Z</time></trkpt><trkpt lat="40.4293082" lon="15.2176133"><ele>229.0</ele><time>2026-05-05T12:17:48.991Z</time></trkpt><trkpt lat="40.4293954" lon="15.2175756"><ele>227.0</ele><time>2026-05-05T12:17:49.991Z</time></trkpt><trkpt lat="40.4294841" lon="15.2175393"><ele>227.0</ele><time>2026-05-05T12:17:50.991Z</time></trkpt><trkpt lat="40.4295733" lon="15.2175058"><ele>227.0</ele><time>2026-05-05T12:17:51.992Z</time></trkpt><trkpt lat="40.4296596" lon="15.2174687"><ele>227.0</ele><time>2026-05-05T12:17:52.992Z</time></trkpt><trkpt lat="40.4297482" lon="15.2174204"><ele>227.0</ele><time>2026-05-05T12:17:53.991Z</time></trkpt><trkpt lat="40.4298384" lon="15.2173666"><ele>227.0</ele><time>2026-05-05T12:17:54.992Z</time></trkpt><trkpt lat="40.4299292" lon="15.2173071"><ele>227.0</ele><time>2026-05-05T12:17:55.991Z</time></trkpt><trkpt lat="40.4300183" lon="15.2172377"><ele>227.0</ele><time>2026-05-05T12:17:56.992Z</time></trkpt><trkpt lat="40.4301075" lon="15.2171692"><ele>227.0</ele><time>2026-05-05T12:17:57.992Z</time></trkpt><trkpt lat="40.4301963" lon="15.2170998"><ele>227.0</ele><time>2026-05-05T12:17:58.991Z</time></trkpt><trkpt lat="40.4302835" lon="15.217026"><ele>227.0</ele><time>2026-05-05T12:17:59.992Z</time></trkpt><trkpt lat="40.4303735" lon="15.2169665"><ele>227.00000000000003</ele><time>2026-05-05T12:18:00.991Z</time></trkpt><trkpt lat="40.4304636" lon="15.2169175"><ele>227.0</ele><time>2026-05-05T12:18:01.992Z</time></trkpt><trkpt lat="40.4305467" lon="15.2168734"><ele>227.0</ele><time>2026-05-05T12:18:02.991Z</time></trkpt><trkpt lat="40.4306268" lon="15.2168434"><ele>227.0</ele><time>2026-05-05T12:18:03.99Z</time></trkpt><trkpt lat="40.4307095" lon="15.2168299"><ele>227.00000000000003</ele><time>2026-05-05T12:18:04.992Z</time></trkpt><trkpt lat="40.4307927" lon="15.2168374"><ele>227.0</ele><time>2026-05-05T12:18:05.992Z</time></trkpt><trkpt lat="40.4308765" lon="15.2168558"><ele>226.0</ele><time>2026-05-05T12:18:06.992Z</time></trkpt><trkpt lat="40.4309534" lon="15.2168776"><ele>225.0</ele><time>2026-05-05T12:18:07.992Z</time></trkpt><trkpt lat="40.4310376" lon="15.2169133"><ele>224.0</ele><time>2026-05-05T12:18:09.992Z</time></trkpt><trkpt lat="40.4310676" lon="15.2170377"><ele>223.0</ele><time>2026-05-05T12:18:12.991Z</time></trkpt><trkpt lat="40.431061" lon="15.2171762"><ele>222.0</ele><time>2026-05-05T12:18:14.992Z</time></trkpt><trkpt lat="40.4311222" lon="15.2172949"><ele>221.0</ele><time>2026-05-05T12:18:16.991Z</time></trkpt><trkpt lat="40.4311781" lon="15.217368"><ele>220.0</ele><time>2026-05-05T12:18:17.992Z</time></trkpt><trkpt lat="40.4312414" lon="15.2174542"><ele>219.0</ele><time>2026-05-05T12:18:18.992Z</time></trkpt><trkpt lat="40.4313015" lon="15.2175484"><ele>218.0</ele><time>2026-05-05T12:18:19.991Z</time></trkpt><trkpt lat="40.4313631" lon="15.2176472"><ele>217.0</ele><time>2026-05-05T12:18:20.992Z</time></trkpt><trkpt lat="40.4314302" lon="15.2177457"><ele>216.16666666666666</ele><time>2026-05-05T12:18:21.992Z</time></trkpt><trkpt lat="40.4314978" lon="15.2178412"><ele>215.33333333333331</ele><time>2026-05-05T12:18:22.991Z</time></trkpt><trkpt lat="40.431556" lon="15.2179341"><ele>214.5</ele><time>2026-05-05T12:18:23.992Z</time></trkpt><trkpt lat="40.4316025" lon="15.2180168"><ele>213.66666666666669</ele><time>2026-05-05T12:18:24.992Z</time></trkpt><trkpt lat="40.4316587" lon="15.2180861"><ele>212.83333333333334</ele><time>2026-05-05T12:18:25.992Z</time></trkpt><trkpt lat="40.431731" lon="15.2181497"><ele>212.0</ele><time>2026-05-05T12:18:26.992Z</time></trkpt><trkpt lat="40.431813" lon="15.2182114"><ele>210.6</ele><time>2026-05-05T12:18:27.992Z</time></trkpt><trkpt lat="40.4319042" lon="15.2182708"><ele>209.2</ele><time>2026-05-05T12:18:28.992Z</time></trkpt><trkpt lat="40.4320028" lon="15.218333"><ele>207.8</ele><time>2026-05-05T12:18:29.991Z</time></trkpt><trkpt lat="40.432097" lon="15.2183972"><ele>206.4</ele><time>2026-05-05T12:18:30.991Z</time></trkpt><trkpt lat="40.4321859" lon="15.2184681"><ele>205.0</ele><time>2026-05-05T12:18:31.991Z</time></trkpt><trkpt lat="40.4322634" lon="15.2185354"><ele>204.83333333333331</ele><time>2026-05-05T12:18:32.992Z</time></trkpt><trkpt lat="40.4323351" lon="15.2185765"><ele>204.66666666666666</ele><time>2026-05-05T12:18:33.992Z</time></trkpt><trkpt lat="40.4324034" lon="15.2185801"><ele>204.5</ele><time>2026-05-05T12:18:34.992Z</time></trkpt><trkpt lat="40.432471" lon="15.2185557"><ele>204.33333333333331</ele><time>2026-05-05T12:18:35.992Z</time></trkpt><trkpt lat="40.4325493" lon="15.2185238"><ele>204.16666666666666</ele><time>2026-05-05T12:18:36.992Z</time></trkpt><trkpt lat="40.4326354" lon="15.2184827"><ele>204.0</ele><time>2026-05-05T12:18:37.992Z</time></trkpt><trkpt lat="40.432724" lon="15.2184368"><ele>204.0</ele><time>2026-05-05T12:18:38.992Z</time></trkpt><trkpt lat="40.4328159" lon="15.2183882"><ele>204.0</ele><time>2026-05-05T12:18:39.992Z</time></trkpt><trkpt lat="40.4329085" lon="15.2183374"><ele>204.0</ele><time>2026-05-05T12:18:40.991Z</time></trkpt><trkpt lat="40.4329933" lon="15.2182873"><ele>204.0</ele><time>2026-05-05T12:18:41.992Z</time></trkpt><trkpt lat="40.4330745" lon="15.218246"><ele>204.0</ele><time>2026-05-05T12:18:42.992Z</time></trkpt><trkpt lat="40.4331571" lon="15.2182205"><ele>202.5</ele><time>2026-05-05T12:18:43.992Z</time></trkpt><trkpt lat="40.4332379" lon="15.2182049"><ele>201.0</ele><time>2026-05-05T12:18:44.991Z</time></trkpt><trkpt lat="40.4333222" lon="15.2182093"><ele>199.5</ele><time>2026-05-05T12:18:45.991Z</time></trkpt><trkpt lat="40.433404" lon="15.2182199"><ele>198.0</ele><time>2026-05-05T12:18:46.992Z</time></trkpt><trkpt lat="40.433486" lon="15.2182342"><ele>196.5</ele><time>2026-05-05T12:18:47.992Z</time></trkpt><trkpt lat="40.4335709" lon="15.2182512"><ele>195.0</ele><time>2026-05-05T12:18:48.992Z</time></trkpt><trkpt lat="40.4336585" lon="15.2182749"><ele>195.0</ele><time>2026-05-05T12:18:49.992Z</time></trkpt><trkpt lat="40.43374" lon="15.2182962"><ele>195.0</ele><time>2026-05-05T12:18:50.992Z</time></trkpt><trkpt lat="40.4338189" lon="15.2183227"><ele>195.0</ele><time>2026-05-05T12:18:51.991Z</time></trkpt><trkpt lat="40.4339029" lon="15.2183521"><ele>195.0</ele><time>2026-05-05T12:18:52.99Z</time></trkpt><trkpt lat="40.4339743" lon="15.2183875"><ele>195.0</ele><time>2026-05-05T12:18:53.992Z</time></trkpt><trkpt lat="40.4340509" lon="15.2184262"><ele>195.0</ele><time>2026-05-05T12:18:54.992Z</time></trkpt><trkpt lat="40.4341254" lon="15.2184709"><ele>193.5</ele><time>2026-05-05T12:18:55.992Z</time></trkpt><trkpt lat="40.4342037" lon="15.2185164"><ele>192.0</ele><time>2026-05-05T12:18:56.991Z</time></trkpt><trkpt lat="40.4342713" lon="15.2185647"><ele>190.5</ele><time>2026-05-05T12:18:57.991Z</time></trkpt><trkpt lat="40.4343401" lon="15.2186126"><ele>189.0</ele><time>2026-05-05T12:18:58.992Z</time></trkpt><trkpt lat="40.4344326" lon="15.2186686"><ele>187.5</ele><time>2026-05-05T12:19:00.991Z</time></trkpt><trkpt lat="40.4345122" lon="15.2186526"><ele>186.0</ele><time>2026-05-05T12:19:02.992Z</time></trkpt><trkpt lat="40.4345918" lon="15.2185857"><ele>182.8</ele><time>2026-05-05T12:19:04.99Z</time></trkpt><trkpt lat="40.434671" lon="15.218496"><ele>179.60000000000002</ele><time>2026-05-05T12:19:06.991Z</time></trkpt><trkpt lat="40.4347442" lon="15.2184043"><ele>176.4</ele><time>2026-05-05T12:19:08.992Z</time></trkpt><trkpt lat="40.4348173" lon="15.2184105"><ele>173.2</ele><time>2026-05-05T12:19:10.991Z</time></trkpt><trkpt lat="40.4348839" lon="15.2184716"><ele>170.0</ele><time>2026-05-05T12:19:12.991Z</time></trkpt><trkpt lat="40.434983" lon="15.2185546"><ele>170.0</ele><time>2026-05-05T12:19:14.991Z</time></trkpt><trkpt lat="40.4350862" lon="15.2186356"><ele>170.0</ele><time>2026-05-05T12:19:16.992Z</time></trkpt><trkpt lat="40.4351833" lon="15.2187078"><ele>170.0</ele><time>2026-05-05T12:19:18.992Z</time></trkpt><trkpt lat="40.4352639" lon="15.2187502"><ele>170.0</ele><time>2026-05-05T12:19:20.992Z</time></trkpt><trkpt lat="40.4353613" lon="15.2187858"><ele>170.0</ele><time>2026-05-05T12:19:22.992Z</time></trkpt><trkpt lat="40.4354653" lon="15.2188284"><ele>167.2</ele><time>2026-05-05T12:19:24.991Z</time></trkpt><trkpt lat="40.4355735" lon="15.2188756"><ele>164.4</ele><time>2026-05-05T12:19:26.991Z</time></trkpt><trkpt lat="40.4356726" lon="15.2189297"><ele>161.6</ele><time>2026-05-05T12:19:28.991Z</time></trkpt><trkpt lat="40.4357463" lon="15.2189869"><ele>158.8</ele><time>2026-05-05T12:19:30.991Z</time></trkpt><trkpt lat="40.4358395" lon="15.2190726"><ele>156.0</ele><time>2026-05-05T12:19:32.992Z</time></trkpt><trkpt lat="40.4358992" lon="15.2191458"><ele>156.0</ele><time>2026-05-05T12:19:33.991Z</time></trkpt><trkpt lat="40.4359724" lon="15.2192302"><ele>156.0</ele><time>2026-05-05T12:19:34.991Z</time></trkpt><trkpt lat="40.4360547" lon="15.2193344"><ele>156.0</ele><time>2026-05-05T12:19:35.992Z</time></trkpt><trkpt lat="40.4361341" lon="15.219422"><ele>156.0</ele><time>2026-05-05T12:19:36.992Z</time></trkpt><trkpt lat="40.4362157" lon="15.2194972"><ele>156.0</ele><time>2026-05-05T12:19:37.991Z</time></trkpt><trkpt lat="40.4362974" lon="15.2195644"><ele>155.5</ele><time>2026-05-05T12:19:38.992Z</time></trkpt><trkpt lat="40.4363547" lon="15.2196375"><ele>155.0</ele><time>2026-05-05T12:19:39.992Z</time></trkpt><trkpt lat="40.4363908" lon="15.2197185"><ele>154.5</ele><time>2026-05-05T12:19:40.991Z</time></trkpt><trkpt lat="40.4364203" lon="15.2197923"><ele>154.0</ele><time>2026-05-05T12:19:41.99Z</time></trkpt><trkpt lat="40.436528" lon="15.2198645"><ele>153.5</ele><time>2026-05-05T12:19:43.992Z</time></trkpt><trkpt lat="40.4365978" lon="15.2198746"><ele>153.0</ele><time>2026-05-05T12:19:44.99Z</time></trkpt><trkpt lat="40.4366692" lon="15.2198672"><ele>153.0</ele><time>2026-05-05T12:19:45.991Z</time></trkpt><trkpt lat="40.4367297" lon="15.2198201"><ele>153.0</ele><time>2026-05-05T12:19:46.992Z</time></trkpt><trkpt lat="40.4367963" lon="15.2197428"><ele>153.0</ele><time>2026-05-05T12:19:47.991Z</time></trkpt><trkpt lat="40.4368582" lon="15.2196587"><ele>153.0</ele><time>2026-05-05T12:19:48.991Z</time></trkpt><trkpt lat="40.4369168" lon="15.2195732"><ele>153.0</ele><time>2026-05-05T12:19:49.992Z</time></trkpt><trkpt lat="40.4369721" lon="15.219479"><ele>153.0</ele><time>2026-05-05T12:19:50.992Z</time></trkpt><trkpt lat="40.4370255" lon="15.2193847"><ele>153.0</ele><time>2026-05-05T12:19:51.992Z</time></trkpt><trkpt lat="40.4370665" lon="15.2192867"><ele>153.0</ele><time>2026-05-05T12:19:52.992Z</time></trkpt><trkpt lat="40.4371027" lon="15.2191841"><ele>153.0</ele><time>2026-05-05T12:19:53.991Z</time></trkpt><trkpt lat="40.437144" lon="15.2190864"><ele>153.0</ele><time>2026-05-05T12:19:54.992Z</time></trkpt><trkpt lat="40.4371834" lon="15.2189913"><ele>153.0</ele><time>2026-05-05T12:19:55.991Z</time></trkpt><trkpt lat="40.4372208" lon="15.2189003"><ele>153.0</ele><time>2026-05-05T12:19:56.991Z</time></trkpt><trkpt lat="40.4372632" lon="15.2188092"><ele>151.0</ele><time>2026-05-05T12:19:57.99Z</time></trkpt><trkpt lat="40.4373165" lon="15.2187132"><ele>149.0</ele><time>2026-05-05T12:19:58.991Z</time></trkpt><trkpt lat="40.437376" lon="15.218613"><ele>147.0</ele><time>2026-05-05T12:19:59.991Z</time></trkpt><trkpt lat="40.4374311" lon="15.2185055"><ele>145.0</ele><time>2026-05-05T12:20:00.992Z</time></trkpt><trkpt lat="40.4374771" lon="15.218394"><ele>143.0</ele><time>2026-05-05T12:20:01.992Z</time></trkpt><trkpt lat="40.4375199" lon="15.218283"><ele>143.0</ele><time>2026-05-05T12:20:02.991Z</time></trkpt><trkpt lat="40.4375695" lon="15.2181794"><ele>143.0</ele><time>2026-05-05T12:20:03.991Z</time></trkpt><trkpt lat="40.4376253" lon="15.2180893"><ele>143.0</ele><time>2026-05-05T12:20:04.992Z</time></trkpt><trkpt lat="40.4376747" lon="15.2180034"><ele>143.0</ele><time>2026-05-05T12:20:05.992Z</time></trkpt><trkpt lat="40.4377051" lon="15.2179125"><ele>143.0</ele><time>2026-05-05T12:20:06.992Z</time></trkpt><trkpt lat="40.4377058" lon="15.2178226"><ele>143.0</ele><time>2026-05-05T12:20:07.991Z</time></trkpt><trkpt lat="40.4376938" lon="15.2177337"><ele>144.16666666666666</ele><time>2026-05-05T12:20:08.992Z</time></trkpt><trkpt lat="40.4376761" lon="15.2176409"><ele>145.33333333333331</ele><time>2026-05-05T12:20:09.991Z</time></trkpt><trkpt lat="40.4376597" lon="15.2175551"><ele>146.5</ele><time>2026-05-05T12:20:10.991Z</time></trkpt><trkpt lat="40.4376599" lon="15.2174489"><ele>147.66666666666666</ele><time>2026-05-05T12:20:12.991Z</time></trkpt><trkpt lat="40.4377231" lon="15.2173918"><ele>148.83333333333334</ele><time>2026-05-05T12:20:14.992Z</time></trkpt><trkpt lat="40.4378296" lon="15.2173362"><ele>150.0</ele><time>2026-05-05T12:20:16.991Z</time></trkpt><trkpt lat="40.4379419" lon="15.217267"><ele>148.4</ele><time>2026-05-05T12:20:18.992Z</time></trkpt><trkpt lat="40.4380167" lon="15.2172361"><ele>146.8</ele><time>2026-05-05T12:20:19.992Z</time></trkpt><trkpt lat="40.4381081" lon="15.2172111"><ele>145.2</ele><time>2026-05-05T12:20:20.991Z</time></trkpt><trkpt lat="40.4382044" lon="15.2172049"><ele>143.6</ele><time>2026-05-05T12:20:21.992Z</time></trkpt><trkpt lat="40.4383095" lon="15.21721"><ele>142.0</ele><time>2026-05-05T12:20:22.992Z</time></trkpt><trkpt lat="40.438415" lon="15.2172203"><ele>142.0</ele><time>2026-05-05T12:20:23.991Z</time></trkpt><trkpt lat="40.438518" lon="15.2172442"><ele>142.0</ele><time>2026-05-05T12:20:24.992Z</time></trkpt><trkpt lat="40.4386185" lon="15.2172754"><ele>142.0</ele><time>2026-05-05T12:20:25.992Z</time></trkpt><trkpt lat="40.4387152" lon="15.2173072"><ele>142.0</ele><time>2026-05-05T12:20:26.992Z</time></trkpt><trkpt lat="40.4387945" lon="15.2173341"><ele>142.0</ele><time>2026-05-05T12:20:27.991Z</time></trkpt><trkpt lat="40.4388548" lon="15.2173608"><ele>141.5</ele><time>2026-05-05T12:20:28.99Z</time></trkpt><trkpt lat="40.43896" lon="15.2173914"><ele>141.0</ele><time>2026-05-05T12:20:30.992Z</time></trkpt><trkpt lat="40.4390241" lon="15.2173819"><ele>140.5</ele><time>2026-05-05T12:20:31.992Z</time></trkpt><trkpt lat="40.4390921" lon="15.2173731"><ele>140.0</ele><time>2026-05-05T12:20:32.992Z</time></trkpt><trkpt lat="40.4391642" lon="15.2173678"><ele>139.5</ele><time>2026-05-05T12:20:33.991Z</time></trkpt><trkpt lat="40.4392462" lon="15.217371"><ele>139.0</ele><time>2026-05-05T12:20:34.992Z</time></trkpt><trkpt lat="40.4393325" lon="15.2173769"><ele>139.0</ele><time>2026-05-05T12:20:35.992Z</time></trkpt><trkpt lat="40.4394229" lon="15.2173798"><ele>139.0</ele><time>2026-05-05T12:20:36.992Z</time></trkpt><trkpt lat="40.4395145" lon="15.2173818"><ele>139.0</ele><time>2026-05-05T12:20:37.99Z</time></trkpt><trkpt lat="40.4396086" lon="15.2173853"><ele>139.0</ele><time>2026-05-05T12:20:38.991Z</time></trkpt><trkpt lat="40.439705" lon="15.2173881"><ele>139.0</ele><time>2026-05-05T12:20:39.991Z</time></trkpt><trkpt lat="40.4398036" lon="15.21739"><ele>138.8</ele><time>2026-05-05T12:20:40.992Z</time></trkpt><trkpt lat="40.4398996" lon="15.2173911"><ele>138.60000000000002</ele><time>2026-05-05T12:20:41.992Z</time></trkpt><trkpt lat="40.4399958" lon="15.2173911"><ele>138.4</ele><time>2026-05-05T12:20:42.991Z</time></trkpt><trkpt lat="40.4400921" lon="15.2173946"><ele>138.20000000000002</ele><time>2026-05-05T12:20:43.992Z</time></trkpt><trkpt lat="40.4401881" lon="15.2173977"><ele>138.0</ele><time>2026-05-05T12:20:44.992Z</time></trkpt><trkpt lat="40.4402831" lon="15.2174"><ele>138.0</ele><time>2026-05-05T12:20:45.991Z</time></trkpt><trkpt lat="40.4403795" lon="15.217409"><ele>138.0</ele><time>2026-05-05T12:20:46.992Z</time></trkpt><trkpt lat="40.4404727" lon="15.217414"><ele>138.0</ele><time>2026-05-05T12:20:47.991Z</time></trkpt><trkpt lat="40.4405596" lon="15.2174152"><ele>138.0</ele><time>2026-05-05T12:20:48.992Z</time></trkpt><trkpt lat="40.4406365" lon="15.2174054"><ele>138.0</ele><time>2026-05-05T12:20:49.992Z</time></trkpt><trkpt lat="40.4407037" lon="15.2173812"><ele>138.0</ele><time>2026-05-05T12:20:50.992Z</time></trkpt><trkpt lat="40.440817" lon="15.2173136"><ele>137.20000000000002</ele><time>2026-05-05T12:20:52.991Z</time></trkpt><trkpt lat="40.4408783" lon="15.2172569"><ele>136.4</ele><time>2026-05-05T12:20:53.992Z</time></trkpt><trkpt lat="40.4409459" lon="15.2171888"><ele>135.60000000000002</ele><time>2026-05-05T12:20:54.991Z</time></trkpt><trkpt lat="40.4410215" lon="15.2171176"><ele>134.8</ele><time>2026-05-05T12:20:55.992Z</time></trkpt><trkpt lat="40.441098" lon="15.2170377"><ele>134.0</ele><time>2026-05-05T12:20:56.992Z</time></trkpt><trkpt lat="40.4411815" lon="15.2169536"><ele>134.0</ele><time>2026-05-05T12:20:57.992Z</time></trkpt><trkpt lat="40.4412679" lon="15.2168731"><ele>134.0</ele><time>2026-05-05T12:20:58.992Z</time></trkpt><trkpt lat="40.4413523" lon="15.2167923"><ele>134.0</ele><time>2026-05-05T12:20:59.992Z</time></trkpt><trkpt lat="40.4414401" lon="15.2167097"><ele>134.0</ele><time>2026-05-05T12:21:00.992Z</time></trkpt><trkpt lat="40.4415255" lon="15.2166253"><ele>134.0</ele><time>2026-05-05T12:21:01.992Z</time></trkpt><trkpt lat="40.4416149" lon="15.2165429"><ele>133.0</ele><time>2026-05-05T12:21:02.991Z</time></trkpt><trkpt lat="40.4416966" lon="15.2164673"><ele>132.0</ele><time>2026-05-05T12:21:03.992Z</time></trkpt><trkpt lat="40.4417737" lon="15.2163781"><ele>131.0</ele><time>2026-05-05T12:21:04.99Z</time></trkpt><trkpt lat="40.4418431" lon="15.2162825"><ele>130.0</ele><time>2026-05-05T12:21:05.992Z</time></trkpt><trkpt lat="40.4419196" lon="15.2161898"><ele>129.0</ele><time>2026-05-05T12:21:06.992Z</time></trkpt><trkpt lat="40.4419964" lon="15.2160931"><ele>129.0</ele><time>2026-05-05T12:21:07.992Z</time></trkpt><trkpt lat="40.4420733" lon="15.215995"><ele>129.0</ele><time>2026-05-05T12:21:08.992Z</time></trkpt><trkpt lat="40.4421473" lon="15.2158915"><ele>129.0</ele><time>2026-05-05T12:21:09.992Z</time></trkpt><trkpt lat="40.4422223" lon="15.2157886"><ele>129.0</ele><time>2026-05-05T12:21:10.99Z</time></trkpt><trkpt lat="40.4422988" lon="15.2156861"><ele>129.0</ele><time>2026-05-05T12:21:11.99Z</time></trkpt><trkpt lat="40.4423762" lon="15.2155873"><ele>128.2</ele><time>2026-05-05T12:21:12.992Z</time></trkpt><trkpt lat="40.4424519" lon="15.2154973"><ele>127.4</ele><time>2026-05-05T12:21:13.991Z</time></trkpt><trkpt lat="40.4425282" lon="15.215418"><ele>126.6</ele><time>2026-05-05T12:21:14.99Z</time></trkpt><trkpt lat="40.4426125" lon="15.2153594"><ele>125.8</ele><time>2026-05-05T12:21:15.991Z</time></trkpt><trkpt lat="40.4426947" lon="15.215309"><ele>125.0</ele><time>2026-05-05T12:21:16.992Z</time></trkpt><trkpt lat="40.4427769" lon="15.2152618"><ele>124.99999999999999</ele><time>2026-05-05T12:21:17.992Z</time></trkpt><trkpt lat="40.4428575" lon="15.2152164"><ele>125.0</ele><time>2026-05-05T12:21:18.991Z</time></trkpt><trkpt lat="40.4429357" lon="15.2151685"><ele>125.0</ele><time>2026-05-05T12:21:19.992Z</time></trkpt><trkpt lat="40.4430088" lon="15.2151181"><ele>125.0</ele><time>2026-05-05T12:21:20.992Z</time></trkpt><trkpt lat="40.4430751" lon="15.2150538"><ele>124.99999999999999</ele><time>2026-05-05T12:21:21.991Z</time></trkpt><trkpt lat="40.4431373" lon="15.2149751"><ele>125.0</ele><time>2026-05-05T12:21:22.992Z</time></trkpt><trkpt lat="40.4431956" lon="15.2148897"><ele>125.2</ele><time>2026-05-05T12:21:23.992Z</time></trkpt><trkpt lat="40.4432516" lon="15.214801"><ele>125.4</ele><time>2026-05-05T12:21:24.992Z</time></trkpt><trkpt lat="40.4433111" lon="15.2147091"><ele>125.6</ele><time>2026-05-05T12:21:25.991Z</time></trkpt><trkpt lat="40.4433712" lon="15.214613"><ele>125.8</ele><time>2026-05-05T12:21:26.992Z</time></trkpt><trkpt lat="40.4434343" lon="15.2145236"><ele>126.0</ele><time>2026-05-05T12:21:27.992Z</time></trkpt><trkpt lat="40.4435" lon="15.2144378"><ele>126.0</ele><time>2026-05-05T12:21:28.991Z</time></trkpt><trkpt lat="40.4435776" lon="15.2143656"><ele>126.0</ele><time>2026-05-05T12:21:29.992Z</time></trkpt><trkpt lat="40.4436633" lon="15.2143024"><ele>126.0</ele><time>2026-05-05T12:21:30.992Z</time></trkpt><trkpt lat="40.4437524" lon="15.2142353"><ele>126.0</ele><time>2026-05-05T12:21:31.991Z</time></trkpt><trkpt lat="40.4438378" lon="15.2141611"><ele>126.0</ele><time>2026-05-05T12:21:32.992Z</time></trkpt><trkpt lat="40.443923" lon="15.2140812"><ele>126.4</ele><time>2026-05-05T12:21:33.992Z</time></trkpt><trkpt lat="40.4440046" lon="15.2139975"><ele>126.8</ele><time>2026-05-05T12:21:34.991Z</time></trkpt><trkpt lat="40.4440835" lon="15.2139083"><ele>127.20000000000002</ele><time>2026-05-05T12:21:35.991Z</time></trkpt><trkpt lat="40.4441594" lon="15.2138135"><ele>127.60000000000001</ele><time>2026-05-05T12:21:36.992Z</time></trkpt><trkpt lat="40.4442338" lon="15.2137147"><ele>128.0</ele><time>2026-05-05T12:21:37.991Z</time></trkpt><trkpt lat="40.4443053" lon="15.2136204"><ele>128.0</ele><time>2026-05-05T12:21:38.99Z</time></trkpt><trkpt lat="40.4443807" lon="15.2135349"><ele>128.0</ele><time>2026-05-05T12:21:39.991Z</time></trkpt><trkpt lat="40.444466" lon="15.2134601"><ele>128.0</ele><time>2026-05-05T12:21:40.991Z</time></trkpt><trkpt lat="40.4445601" lon="15.2133915"><ele>128.0</ele><time>2026-05-05T12:21:41.991Z</time></trkpt><trkpt lat="40.4446602" lon="15.2133278"><ele>128.0</ele><time>2026-05-05T12:21:42.991Z</time></trkpt><trkpt lat="40.4447615" lon="15.2132594"><ele>128.0</ele><time>2026-05-05T12:21:43.992Z</time></trkpt><trkpt lat="40.4448602" lon="15.2131938"><ele>128.0</ele><time>2026-05-05T12:21:44.991Z</time></trkpt><trkpt lat="40.4449572" lon="15.2131289"><ele>128.0</ele><time>2026-05-05T12:21:45.992Z</time></trkpt><trkpt lat="40.4450518" lon="15.2130674"><ele>128.0</ele><time>2026-05-05T12:21:46.991Z</time></trkpt><trkpt lat="40.445145" lon="15.2130021"><ele>128.0</ele><time>2026-05-05T12:21:47.992Z</time></trkpt><trkpt lat="40.4452326" lon="15.2129271"><ele>128.0</ele><time>2026-05-05T12:21:48.992Z</time></trkpt><trkpt lat="40.4453196" lon="15.2128498"><ele>128.0</ele><time>2026-05-05T12:21:49.991Z</time></trkpt><trkpt lat="40.445405" lon="15.212772"><ele>128.0</ele><time>2026-05-05T12:21:50.991Z</time></trkpt><trkpt lat="40.4454854" lon="15.2126866"><ele>128.0</ele><time>2026-05-05T12:21:51.992Z</time></trkpt><trkpt lat="40.4455576" lon="15.2125918"><ele>128.0</ele><time>2026-05-05T12:21:52.991Z</time></trkpt><trkpt lat="40.4456263" lon="15.2124908"><ele>127.83333333333333</ele><time>2026-05-05T12:21:53.991Z</time></trkpt><trkpt lat="40.445689" lon="15.2123916"><ele>127.66666666666666</ele><time>2026-05-05T12:21:54.992Z</time></trkpt><trkpt lat="40.4457301" lon="15.2123074"><ele>127.5</ele><time>2026-05-05T12:21:55.992Z</time></trkpt><trkpt lat="40.445738" lon="15.2122182"><ele>127.33333333333334</ele><time>2026-05-05T12:21:56.992Z</time></trkpt><trkpt lat="40.4457151" lon="15.2121324"><ele>127.16666666666667</ele><time>2026-05-05T12:21:57.991Z</time></trkpt><trkpt lat="40.4456655" lon="15.212055"><ele>127.0</ele><time>2026-05-05T12:21:58.992Z</time></trkpt><trkpt lat="40.4456062" lon="15.2119724"><ele>126.8</ele><time>2026-05-05T12:21:59.991Z</time></trkpt><trkpt lat="40.4455484" lon="15.2118758"><ele>126.6</ele><time>2026-05-05T12:22:00.991Z</time></trkpt><trkpt lat="40.4455069" lon="15.2117638"><ele>126.39999999999999</ele><time>2026-05-05T12:22:01.991Z</time></trkpt><trkpt lat="40.4454842" lon="15.2116397"><ele>126.19999999999999</ele><time>2026-05-05T12:22:02.992Z</time></trkpt><trkpt lat="40.4454779" lon="15.2115054"><ele>126.0</ele><time>2026-05-05T12:22:03.992Z</time></trkpt><trkpt lat="40.4454799" lon="15.211363"><ele>125.8</ele><time>2026-05-05T12:22:04.992Z</time></trkpt><trkpt lat="40.4454819" lon="15.2112228"><ele>125.6</ele><time>2026-05-05T12:22:05.991Z</time></trkpt><trkpt lat="40.4454817" lon="15.2110904"><ele>125.4</ele><time>2026-05-05T12:22:06.992Z</time></trkpt><trkpt lat="40.4454742" lon="15.2109637"><ele>125.2</ele><time>2026-05-05T12:22:07.992Z</time></trkpt><trkpt lat="40.4454479" lon="15.2108383"><ele>125.0</ele><time>2026-05-05T12:22:08.991Z</time></trkpt><trkpt lat="40.4454056" lon="15.2107117"><ele>126.0</ele><time>2026-05-05T12:22:09.992Z</time></trkpt><trkpt lat="40.445362" lon="15.2105831"><ele>127.0</ele><time>2026-05-05T12:22:10.992Z</time></trkpt><trkpt lat="40.4453153" lon="15.2104559"><ele>128.0</ele><time>2026-05-05T12:22:11.992Z</time></trkpt><trkpt lat="40.4452636" lon="15.2103281"><ele>129.0</ele><time>2026-05-05T12:22:12.992Z</time></trkpt><trkpt lat="40.4452088" lon="15.2101997"><ele>130.0</ele><time>2026-05-05T12:22:13.991Z</time></trkpt><trkpt lat="40.4451495" lon="15.2100669"><ele>130.0</ele><time>2026-05-05T12:22:14.992Z</time></trkpt><trkpt lat="40.4450813" lon="15.209929"><ele>130.0</ele><time>2026-05-05T12:22:15.992Z</time></trkpt><trkpt lat="40.4450092" lon="15.2097959"><ele>130.0</ele><time>2026-05-05T12:22:16.992Z</time></trkpt><trkpt lat="40.4449474" lon="15.2096793"><ele>130.0</ele><time>2026-05-05T12:22:17.992Z</time></trkpt><trkpt lat="40.4448984" lon="15.2095673"><ele>130.0</ele><time>2026-05-05T12:22:18.992Z</time></trkpt><trkpt lat="40.4448725" lon="15.2094584"><ele>130.0</ele><time>2026-05-05T12:22:19.992Z</time></trkpt><trkpt lat="40.4448661" lon="15.2093497"><ele>130.0</ele><time>2026-05-05T12:22:20.992Z</time></trkpt><trkpt lat="40.4448686" lon="15.2092293"><ele>130.0</ele><time>2026-05-05T12:22:21.991Z</time></trkpt><trkpt lat="40.4448703" lon="15.2091012"><ele>130.0</ele><time>2026-05-05T12:22:22.992Z</time></trkpt><trkpt lat="40.4448744" lon="15.2089697"><ele>129.83333333333334</ele><time>2026-05-05T12:22:23.991Z</time></trkpt><trkpt lat="40.4448841" lon="15.2088442"><ele>129.66666666666669</ele><time>2026-05-05T12:22:24.99Z</time></trkpt><trkpt lat="40.4449041" lon="15.208724"><ele>129.5</ele><time>2026-05-05T12:22:25.991Z</time></trkpt><trkpt lat="40.4449299" lon="15.2086082"><ele>129.33333333333334</ele><time>2026-05-05T12:22:26.991Z</time></trkpt><trkpt lat="40.4449472" lon="15.2084991"><ele>129.16666666666666</ele><time>2026-05-05T12:22:27.992Z</time></trkpt><trkpt lat="40.4449478" lon="15.2083944"><ele>129.0</ele><time>2026-05-05T12:22:28.991Z</time></trkpt><trkpt lat="40.4449249" lon="15.2083026"><ele>129.0</ele><time>2026-05-05T12:22:29.992Z</time></trkpt><trkpt lat="40.4448745" lon="15.2082315"><ele>129.0</ele><time>2026-05-05T12:22:30.991Z</time></trkpt><trkpt lat="40.4448037" lon="15.2081763"><ele>129.0</ele><time>2026-05-05T12:22:31.991Z</time></trkpt><trkpt lat="40.4447216" lon="15.2081373"><ele>129.0</ele><time>2026-05-05T12:22:32.992Z</time></trkpt><trkpt lat="40.4446296" lon="15.208113"><ele>129.0</ele><time>2026-05-05T12:22:33.991Z</time></trkpt><trkpt lat="40.444533" lon="15.2081029"><ele>129.0</ele><time>2026-05-05T12:22:34.99Z</time></trkpt><trkpt lat="40.4444408" lon="15.2080858"><ele>130.0</ele><time>2026-05-05T12:22:35.991Z</time></trkpt><trkpt lat="40.4443514" lon="15.2080655"><ele>131.0</ele><time>2026-05-05T12:22:36.992Z</time></trkpt><trkpt lat="40.4442731" lon="15.208029"><ele>132.0</ele><time>2026-05-05T12:22:37.991Z</time></trkpt><trkpt lat="40.4442221" lon="15.2079538"><ele>133.0</ele><time>2026-05-05T12:22:38.992Z</time></trkpt><trkpt lat="40.4442033" lon="15.207856"><ele>134.0</ele><time>2026-05-05T12:22:39.992Z</time></trkpt><trkpt lat="40.4441988" lon="15.2077566"><ele>135.0</ele><time>2026-05-05T12:22:40.992Z</time></trkpt><trkpt lat="40.4441582" lon="15.2076863"><ele>135.0</ele><time>2026-05-05T12:22:41.992Z</time></trkpt><trkpt lat="40.4440928" lon="15.2076499"><ele>135.0</ele><time>2026-05-05T12:22:42.992Z</time></trkpt><trkpt lat="40.4440171" lon="15.2076486"><ele>135.0</ele><time>2026-05-05T12:22:43.992Z</time></trkpt><trkpt lat="40.4439304" lon="15.2076466"><ele>135.0</ele><time>2026-05-05T12:22:44.991Z</time></trkpt><trkpt lat="40.4438382" lon="15.2076483"><ele>135.0</ele><time>2026-05-05T12:22:45.992Z</time></trkpt><trkpt lat="40.4437406" lon="15.2076506"><ele>135.0</ele><time>2026-05-05T12:22:46.991Z</time></trkpt><trkpt lat="40.4436364" lon="15.2076529"><ele>136.2</ele><time>2026-05-05T12:22:47.992Z</time></trkpt><trkpt lat="40.4435291" lon="15.2076554"><ele>137.4</ele><time>2026-05-05T12:22:48.992Z</time></trkpt><trkpt lat="40.443416" lon="15.2076587"><ele>138.6</ele><time>2026-05-05T12:22:49.992Z</time></trkpt><trkpt lat="40.4433018" lon="15.2076649"><ele>139.8</ele><time>2026-05-05T12:22:50.992Z</time></trkpt><trkpt lat="40.4431897" lon="15.2076814"><ele>141.0</ele><time>2026-05-05T12:22:51.992Z</time></trkpt><trkpt lat="40.4430793" lon="15.2077071"><ele>141.0</ele><time>2026-05-05T12:22:52.992Z</time></trkpt><trkpt lat="40.4429774" lon="15.2077299"><ele>141.0</ele><time>2026-05-05T12:22:53.991Z</time></trkpt><trkpt lat="40.4428885" lon="15.2077522"><ele>141.0</ele><time>2026-05-05T12:22:54.992Z</time></trkpt><trkpt lat="40.4428134" lon="15.207775"><ele>141.0</ele><time>2026-05-05T12:22:55.991Z</time></trkpt><trkpt lat="40.4427314" lon="15.2077423"><ele>141.0</ele><time>2026-05-05T12:22:57.992Z</time></trkpt><trkpt lat="40.4427147" lon="15.2076385"><ele>141.0</ele><time>2026-05-05T12:22:59.991Z</time></trkpt><trkpt lat="40.4427636" lon="15.20746"><ele>141.4</ele><time>2026-05-05T12:23:01.992Z</time></trkpt><trkpt lat="40.442795" lon="15.207351"><ele>141.8</ele><time>2026-05-05T12:23:02.992Z</time></trkpt><trkpt lat="40.4428316" lon="15.2072316"><ele>142.20000000000002</ele><time>2026-05-05T12:23:03.992Z</time></trkpt><trkpt lat="40.442869" lon="15.207116"><ele>142.6</ele><time>2026-05-05T12:23:04.991Z</time></trkpt><trkpt lat="40.4429078" lon="15.207004"><ele>143.0</ele><time>2026-05-05T12:23:05.992Z</time></trkpt><trkpt lat="40.4429536" lon="15.2068949"><ele>143.0</ele><time>2026-05-05T12:23:06.992Z</time></trkpt><trkpt lat="40.4430081" lon="15.2067818"><ele>143.0</ele><time>2026-05-05T12:23:07.992Z</time></trkpt><trkpt lat="40.4430667" lon="15.206673"><ele>143.0</ele><time>2026-05-05T12:23:08.991Z</time></trkpt><trkpt lat="40.4431184" lon="15.2065622"><ele>143.0</ele><time>2026-05-05T12:23:09.992Z</time></trkpt><trkpt lat="40.4431761" lon="15.2064571"><ele>143.0</ele><time>2026-05-05T12:23:10.99Z</time></trkpt><trkpt lat="40.4432259" lon="15.2063511"><ele>143.0</ele><time>2026-05-05T12:23:11.992Z</time></trkpt><trkpt lat="40.4432827" lon="15.2062429"><ele>143.0</ele><time>2026-05-05T12:23:12.992Z</time></trkpt><trkpt lat="40.4433392" lon="15.2061358"><ele>143.0</ele><time>2026-05-05T12:23:13.991Z</time></trkpt><trkpt lat="40.4433975" lon="15.2060249"><ele>143.0</ele><time>2026-05-05T12:23:14.992Z</time></trkpt><trkpt lat="40.4434517" lon="15.2059067"><ele>143.0</ele><time>2026-05-05T12:23:15.991Z</time></trkpt><trkpt lat="40.443511" lon="15.2057965"><ele>143.0</ele><time>2026-05-05T12:23:16.992Z</time></trkpt><trkpt lat="40.4435673" lon="15.2056848"><ele>143.0</ele><time>2026-05-05T12:23:17.992Z</time></trkpt><trkpt lat="40.443616" lon="15.2055646"><ele>143.0</ele><time>2026-05-05T12:23:18.991Z</time></trkpt><trkpt lat="40.4436604" lon="15.2054442"><ele>143.0</ele><time>2026-05-05T12:23:19.992Z</time></trkpt><trkpt lat="40.4436962" lon="15.2053279"><ele>143.0</ele><time>2026-05-05T12:23:20.991Z</time></trkpt><trkpt lat="40.4437359" lon="15.2052034"><ele>143.0</ele><time>2026-05-05T12:23:21.992Z</time></trkpt><trkpt lat="40.4437807" lon="15.2050726"><ele>143.0</ele><time>2026-05-05T12:23:22.991Z</time></trkpt><trkpt lat="40.4438261" lon="15.2049337"><ele>143.0</ele><time>2026-05-05T12:23:23.992Z</time></trkpt><trkpt lat="40.4438733" lon="15.2047879"><ele>143.0</ele><time>2026-05-05T12:23:24.992Z</time></trkpt><trkpt lat="40.4439183" lon="15.2046385"><ele>143.0</ele><time>2026-05-05T12:23:25.993Z</time></trkpt><trkpt lat="40.4439502" lon="15.2044988"><ele>143.0</ele><time>2026-05-05T12:23:26.992Z</time></trkpt><trkpt lat="40.4439854" lon="15.2043626"><ele>143.0</ele><time>2026-05-05T12:23:27.991Z</time></trkpt><trkpt lat="40.4440328" lon="15.2042376"><ele>143.0</ele><time>2026-05-05T12:23:28.991Z</time></trkpt><trkpt lat="40.4440736" lon="15.2041103"><ele>143.0</ele><time>2026-05-05T12:23:29.992Z</time></trkpt><trkpt lat="40.4441138" lon="15.2039802"><ele>143.0</ele><time>2026-05-05T12:23:30.991Z</time></trkpt><trkpt lat="40.4441568" lon="15.2038428"><ele>143.0</ele><time>2026-05-05T12:23:31.992Z</time></trkpt><trkpt lat="40.4441971" lon="15.203718"><ele>143.0</ele><time>2026-05-05T12:23:32.991Z</time></trkpt><trkpt lat="40.4442395" lon="15.2035911"><ele>143.0</ele><time>2026-05-05T12:23:33.992Z</time></trkpt><trkpt lat="40.4442899" lon="15.2034689"><ele>143.0</ele><time>2026-05-05T12:23:34.992Z</time></trkpt><trkpt lat="40.4443431" lon="15.2033386"><ele>143.0</ele><time>2026-05-05T12:23:35.992Z</time></trkpt><trkpt lat="40.4443921" lon="15.2032085"><ele>143.0</ele><time>2026-05-05T12:23:36.992Z</time></trkpt><trkpt lat="40.4444479" lon="15.203084"><ele>143.0</ele><time>2026-05-05T12:23:37.99Z</time></trkpt><trkpt lat="40.4445047" lon="15.2029667"><ele>143.0</ele><time>2026-05-05T12:23:38.992Z</time></trkpt><trkpt lat="40.4445612" lon="15.2028511"><ele>143.0</ele><time>2026-05-05T12:23:39.992Z</time></trkpt><trkpt lat="40.4446152" lon="15.2027326"><ele>142.6</ele><time>2026-05-05T12:23:40.992Z</time></trkpt><trkpt lat="40.4446715" lon="15.2026128"><ele>142.20000000000002</ele><time>2026-05-05T12:23:41.991Z</time></trkpt><trkpt lat="40.444732" lon="15.2024917"><ele>141.8</ele><time>2026-05-05T12:23:42.991Z</time></trkpt><trkpt lat="40.444787" lon="15.2023791"><ele>141.4</ele><time>2026-05-05T12:23:43.991Z</time></trkpt><trkpt lat="40.4448425" lon="15.2022724"><ele>141.0</ele><time>2026-05-05T12:23:44.991Z</time></trkpt><trkpt lat="40.4448981" lon="15.2021745"><ele>141.0</ele><time>2026-05-05T12:23:45.992Z</time></trkpt><trkpt lat="40.4449424" lon="15.2020851"><ele>141.0</ele><time>2026-05-05T12:23:46.992Z</time></trkpt><trkpt lat="40.4449777" lon="15.2020062"><ele>141.0</ele><time>2026-05-05T12:23:47.992Z</time></trkpt><trkpt lat="40.4450121" lon="15.2018916"><ele>141.0</ele><time>2026-05-05T12:23:49.991Z</time></trkpt><trkpt lat="40.4450297" lon="15.2018071"><ele>141.0</ele><time>2026-05-05T12:23:50.991Z</time></trkpt><trkpt lat="40.4450503" lon="15.2017154"><ele>141.0</ele><time>2026-05-05T12:23:51.992Z</time></trkpt><trkpt lat="40.4450729" lon="15.2016208"><ele>141.0</ele><time>2026-05-05T12:23:52.992Z</time></trkpt><trkpt lat="40.4450965" lon="15.2015255"><ele>141.0</ele><time>2026-05-05T12:23:53.991Z</time></trkpt><trkpt lat="40.4451155" lon="15.2014275"><ele>141.0</ele><time>2026-05-05T12:23:54.991Z</time></trkpt><trkpt lat="40.4451369" lon="15.2013246"><ele>141.0</ele><time>2026-05-05T12:23:55.992Z</time></trkpt><trkpt lat="40.4451612" lon="15.2012213"><ele>141.0</ele><time>2026-05-05T12:23:56.992Z</time></trkpt><trkpt lat="40.4451865" lon="15.2011171"><ele>141.0</ele><time>2026-05-05T12:23:57.99Z</time></trkpt><trkpt lat="40.4452175" lon="15.2010135"><ele>139.0</ele><time>2026-05-05T12:23:58.992Z</time></trkpt><trkpt lat="40.4452548" lon="15.2009173"><ele>137.0</ele><time>2026-05-05T12:23:59.992Z</time></trkpt><trkpt lat="40.4452894" lon="15.2008247"><ele>135.0</ele><time>2026-05-05T12:24:00.992Z</time></trkpt><trkpt lat="40.4453164" lon="15.2007287"><ele>133.0</ele><time>2026-05-05T12:24:01.991Z</time></trkpt><trkpt lat="40.4453332" lon="15.2006365"><ele>131.0</ele><time>2026-05-05T12:24:02.992Z</time></trkpt><trkpt lat="40.4453352" lon="15.2005411"><ele>129.0</ele><time>2026-05-05T12:24:03.99Z</time></trkpt><trkpt lat="40.4453374" lon="15.2004364"><ele>126.2</ele><time>2026-05-05T12:24:04.992Z</time></trkpt><trkpt lat="40.4453366" lon="15.2003234"><ele>123.4</ele><time>2026-05-05T12:24:05.991Z</time></trkpt><trkpt lat="40.4453305" lon="15.2002027"><ele>120.6</ele><time>2026-05-05T12:24:06.991Z</time></trkpt><trkpt lat="40.4453226" lon="15.20008"><ele>117.8</ele><time>2026-05-05T12:24:07.992Z</time></trkpt><trkpt lat="40.4453112" lon="15.199955"><ele>115.0</ele><time>2026-05-05T12:24:08.991Z</time></trkpt><trkpt lat="40.4452968" lon="15.1998317"><ele>113.0</ele><time>2026-05-05T12:24:09.991Z</time></trkpt><trkpt lat="40.445282" lon="15.1997081"><ele>111.0</ele><time>2026-05-05T12:24:10.991Z</time></trkpt><trkpt lat="40.4452708" lon="15.1995871"><ele>109.0</ele><time>2026-05-05T12:24:11.992Z</time></trkpt><trkpt lat="40.4452571" lon="15.1994742"><ele>107.0</ele><time>2026-05-05T12:24:12.992Z</time></trkpt><trkpt lat="40.445243" lon="15.199377"><ele>105.0</ele><time>2026-05-05T12:24:13.992Z</time></trkpt><trkpt lat="40.4452116" lon="15.1992471"><ele>105.0</ele><time>2026-05-05T12:24:15.992Z</time></trkpt><trkpt lat="40.4451157" lon="15.1991816"><ele>105.0</ele><time>2026-05-05T12:24:17.991Z</time></trkpt><trkpt lat="40.4450431" lon="15.1991602"><ele>105.0</ele><time>2026-05-05T12:24:18.991Z</time></trkpt><trkpt lat="40.4449591" lon="15.1991291"><ele>105.0</ele><time>2026-05-05T12:24:19.992Z</time></trkpt><trkpt lat="40.4448742" lon="15.199087"><ele>105.0</ele><time>2026-05-05T12:24:20.992Z</time></trkpt><trkpt lat="40.4447889" lon="15.1990413"><ele>105.0</ele><time>2026-05-05T12:24:21.991Z</time></trkpt><trkpt lat="40.4446974" lon="15.1990026"><ele>105.0</ele><time>2026-05-05T12:24:22.992Z</time></trkpt><trkpt lat="40.4446054" lon="15.1989677"><ele>105.0</ele><time>2026-05-05T12:24:23.992Z</time></trkpt><trkpt lat="40.444511" lon="15.1989449"><ele>105.0</ele><time>2026-05-05T12:24:24.992Z</time></trkpt><trkpt lat="40.4444052" lon="15.1989318"><ele>105.0</ele><time>2026-05-05T12:24:25.991Z</time></trkpt><trkpt lat="40.444291" lon="15.1989195"><ele>105.0</ele><time>2026-05-05T12:24:26.992Z</time></trkpt><trkpt lat="40.4441748" lon="15.1989025"><ele>105.0</ele><time>2026-05-05T12:24:27.991Z</time></trkpt><trkpt lat="40.444056" lon="15.1988901"><ele>105.0</ele><time>2026-05-05T12:24:28.991Z</time></trkpt><trkpt lat="40.4439468" lon="15.1988898"><ele>105.0</ele><time>2026-05-05T12:24:29.99Z</time></trkpt><trkpt lat="40.4438452" lon="15.1988929"><ele>105.0</ele><time>2026-05-05T12:24:30.992Z</time></trkpt><trkpt lat="40.4437532" lon="15.1988983"><ele>106.16666666666667</ele><time>2026-05-05T12:24:31.99Z</time></trkpt><trkpt lat="40.4436731" lon="15.1988908"><ele>107.33333333333334</ele><time>2026-05-05T12:24:32.992Z</time></trkpt><trkpt lat="40.4436125" lon="15.1988524"><ele>108.5</ele><time>2026-05-05T12:24:33.991Z</time></trkpt><trkpt lat="40.4435783" lon="15.198699"><ele>109.66666666666667</ele><time>2026-05-05T12:24:35.991Z</time></trkpt><trkpt lat="40.4435773" lon="15.1985911"><ele>110.83333333333334</ele><time>2026-05-05T12:24:36.991Z</time></trkpt><trkpt lat="40.4435717" lon="15.1984624"><ele>112.0</ele><time>2026-05-05T12:24:37.992Z</time></trkpt><trkpt lat="40.4435613" lon="15.1983252"><ele>112.0</ele><time>2026-05-05T12:24:38.991Z</time></trkpt><trkpt lat="40.4435505" lon="15.1981785"><ele>111.99999999999999</ele><time>2026-05-05T12:24:39.992Z</time></trkpt><trkpt lat="40.4435414" lon="15.1980364"><ele>111.99999999999999</ele><time>2026-05-05T12:24:40.991Z</time></trkpt><trkpt lat="40.4435314" lon="15.1979114"><ele>112.0</ele><time>2026-05-05T12:24:41.992Z</time></trkpt><trkpt lat="40.4435235" lon="15.1977965"><ele>112.0</ele><time>2026-05-05T12:24:42.992Z</time></trkpt><trkpt lat="40.4435165" lon="15.1976872"><ele>112.83333333333334</ele><time>2026-05-05T12:24:43.992Z</time></trkpt><trkpt lat="40.443498" lon="15.197593"><ele>113.66666666666667</ele><time>2026-05-05T12:24:44.991Z</time></trkpt><trkpt lat="40.4434626" lon="15.1975086"><ele>114.5</ele><time>2026-05-05T12:24:45.99Z</time></trkpt><trkpt lat="40.4434129" lon="15.1974358"><ele>115.33333333333334</ele><time>2026-05-05T12:24:46.991Z</time></trkpt><trkpt lat="40.4433468" lon="15.1973772"><ele>116.16666666666667</ele><time>2026-05-05T12:24:47.992Z</time></trkpt><trkpt lat="40.4432703" lon="15.1973421"><ele>117.0</ele><time>2026-05-05T12:24:48.992Z</time></trkpt><trkpt lat="40.4431909" lon="15.1973298"><ele>117.0</ele><time>2026-05-05T12:24:49.992Z</time></trkpt><trkpt lat="40.4431255" lon="15.1973499"><ele>117.0</ele><time>2026-05-05T12:24:50.991Z</time></trkpt><trkpt lat="40.4430321" lon="15.1973533"><ele>117.0</ele><time>2026-05-05T12:24:52.991Z</time></trkpt><trkpt lat="40.4430803" lon="15.1972365"><ele>117.0</ele><time>2026-05-05T12:24:55.992Z</time></trkpt><trkpt lat="40.4431461" lon="15.1971878"><ele>117.0</ele><time>2026-05-05T12:24:56.991Z</time></trkpt><trkpt lat="40.4432117" lon="15.1971134"><ele>117.0</ele><time>2026-05-05T12:24:57.992Z</time></trkpt><trkpt lat="40.4432717" lon="15.197019"><ele>117.39999999999999</ele><time>2026-05-05T12:24:58.991Z</time></trkpt><trkpt lat="40.4433293" lon="15.1969011"><ele>117.79999999999998</ele><time>2026-05-05T12:24:59.991Z</time></trkpt><trkpt lat="40.4433777" lon="15.1967758"><ele>118.2</ele><time>2026-05-05T12:25:00.992Z</time></trkpt><trkpt lat="40.4434193" lon="15.1966503"><ele>118.6</ele><time>2026-05-05T12:25:01.99Z</time></trkpt><trkpt lat="40.443457" lon="15.1965225"><ele>119.0</ele><time>2026-05-05T12:25:02.991Z</time></trkpt><trkpt lat="40.4434836" lon="15.1963938"><ele>119.0</ele><time>2026-05-05T12:25:03.991Z</time></trkpt><trkpt lat="40.4434992" lon="15.1962654"><ele>119.0</ele><time>2026-05-05T12:25:04.992Z</time></trkpt><trkpt lat="40.4434997" lon="15.1961425"><ele>119.0</ele><time>2026-05-05T12:25:05.991Z</time></trkpt><trkpt lat="40.4434761" lon="15.1960255"><ele>119.0</ele><time>2026-05-05T12:25:06.992Z</time></trkpt><trkpt lat="40.4434314" lon="15.1959121"><ele>119.0</ele><time>2026-05-05T12:25:07.992Z</time></trkpt><trkpt lat="40.4433723" lon="15.1958047"><ele>119.0</ele><time>2026-05-05T12:25:08.992Z</time></trkpt><trkpt lat="40.4433061" lon="15.1957087"><ele>119.0</ele><time>2026-05-05T12:25:09.991Z</time></trkpt><trkpt lat="40.4432356" lon="15.1956083"><ele>119.0</ele><time>2026-05-05T12:25:10.992Z</time></trkpt><trkpt lat="40.4431725" lon="15.1955095"><ele>119.0</ele><time>2026-05-05T12:25:11.991Z</time></trkpt><trkpt lat="40.4431184" lon="15.1954054"><ele>119.0</ele><time>2026-05-05T12:25:12.991Z</time></trkpt><trkpt lat="40.4430813" lon="15.1952875"><ele>118.83333333333333</ele><time>2026-05-05T12:25:13.992Z</time></trkpt><trkpt lat="40.4430738" lon="15.1951672"><ele>118.66666666666666</ele><time>2026-05-05T12:25:14.991Z</time></trkpt><trkpt lat="40.443095" lon="15.1950538"><ele>118.5</ele><time>2026-05-05T12:25:15.992Z</time></trkpt><trkpt lat="40.4431444" lon="15.1949594"><ele>118.33333333333334</ele><time>2026-05-05T12:25:16.992Z</time></trkpt><trkpt lat="40.4432183" lon="15.194912"><ele>118.16666666666667</ele><time>2026-05-05T12:25:17.992Z</time></trkpt><trkpt lat="40.4433047" lon="15.1949074"><ele>118.0</ele><time>2026-05-05T12:25:18.99Z</time></trkpt><trkpt lat="40.4434006" lon="15.1949303"><ele>118.0</ele><time>2026-05-05T12:25:19.991Z</time></trkpt><trkpt lat="40.4435037" lon="15.1949562"><ele>118.00000000000001</ele><time>2026-05-05T12:25:20.992Z</time></trkpt><trkpt lat="40.4436118" lon="15.1949818"><ele>118.00000000000001</ele><time>2026-05-05T12:25:21.992Z</time></trkpt><trkpt lat="40.4437232" lon="15.1950065"><ele>118.0</ele><time>2026-05-05T12:25:22.992Z</time></trkpt><trkpt lat="40.4438337" lon="15.1950283"><ele>118.0</ele><time>2026-05-05T12:25:23.991Z</time></trkpt><trkpt lat="40.4439429" lon="15.195035"><ele>118.25</ele><time>2026-05-05T12:25:24.991Z</time></trkpt><trkpt lat="40.444054" lon="15.1950154"><ele>118.5</ele><time>2026-05-05T12:25:25.992Z</time></trkpt><trkpt lat="40.4441587" lon="15.1949607"><ele>118.75</ele><time>2026-05-05T12:25:26.992Z</time></trkpt><trkpt lat="40.4442563" lon="15.1948678"><ele>119.0</ele><time>2026-05-05T12:25:27.992Z</time></trkpt><trkpt lat="40.4443505" lon="15.1947541"><ele>119.0</ele><time>2026-05-05T12:25:28.992Z</time></trkpt><trkpt lat="40.4444445" lon="15.1946284"><ele>119.0</ele><time>2026-05-05T12:25:29.992Z</time></trkpt><trkpt lat="40.4445436" lon="15.1945041"><ele>119.0</ele><time>2026-05-05T12:25:30.991Z</time></trkpt><trkpt lat="40.4446451" lon="15.1943774"><ele>119.0</ele><time>2026-05-05T12:25:31.991Z</time></trkpt><trkpt lat="40.444746" lon="15.1942516"><ele>118.0</ele><time>2026-05-05T12:25:32.99Z</time></trkpt><trkpt lat="40.4448425" lon="15.1941278"><ele>117.0</ele><time>2026-05-05T12:25:33.99Z</time></trkpt><trkpt lat="40.4449418" lon="15.1940051"><ele>116.0</ele><time>2026-05-05T12:25:34.991Z</time></trkpt><trkpt lat="40.4450411" lon="15.1938842"><ele>115.0</ele><time>2026-05-05T12:25:35.992Z</time></trkpt><trkpt lat="40.4451344" lon="15.1937679"><ele>115.0</ele><time>2026-05-05T12:25:36.991Z</time></trkpt><trkpt lat="40.4452214" lon="15.1936557"><ele>115.0</ele><time>2026-05-05T12:25:37.992Z</time></trkpt><trkpt lat="40.4453015" lon="15.1935453"><ele>115.0</ele><time>2026-05-05T12:25:38.992Z</time></trkpt><trkpt lat="40.445385" lon="15.193453"><ele>115.0</ele><time>2026-05-05T12:25:39.991Z</time></trkpt><trkpt lat="40.4454767" lon="15.1933928"><ele>114.66666666666667</ele><time>2026-05-05T12:25:40.992Z</time></trkpt><trkpt lat="40.4455669" lon="15.1933681"><ele>114.33333333333334</ele><time>2026-05-05T12:25:41.992Z</time></trkpt><trkpt lat="40.4456405" lon="15.193368"><ele>114.0</ele><time>2026-05-05T12:25:42.991Z</time></trkpt><trkpt lat="40.4457057" lon="15.1933611"><ele>113.66666666666666</ele><time>2026-05-05T12:25:43.992Z</time></trkpt><trkpt lat="40.4457675" lon="15.1933221"><ele>113.33333333333333</ele><time>2026-05-05T12:25:44.992Z</time></trkpt><trkpt lat="40.44582" lon="15.1932518"><ele>113.0</ele><time>2026-05-05T12:25:45.991Z</time></trkpt><trkpt lat="40.445853" lon="15.193148"><ele>113.0</ele><time>2026-05-05T12:25:46.991Z</time></trkpt><trkpt lat="40.4458742" lon="15.1930303"><ele>113.00000000000001</ele><time>2026-05-05T12:25:47.992Z</time></trkpt><trkpt lat="40.4458915" lon="15.192904"><ele>113.00000000000001</ele><time>2026-05-05T12:25:48.991Z</time></trkpt><trkpt lat="40.4459063" lon="15.192769"><ele>113.0</ele><time>2026-05-05T12:25:49.992Z</time></trkpt><trkpt lat="40.4459214" lon="15.1926316"><ele>113.0</ele><time>2026-05-05T12:25:50.991Z</time></trkpt><trkpt lat="40.4459358" lon="15.1924892"><ele>113.0</ele><time>2026-05-05T12:25:51.992Z</time></trkpt><trkpt lat="40.445952" lon="15.1923492"><ele>113.00000000000001</ele><time>2026-05-05T12:25:52.992Z</time></trkpt><trkpt lat="40.4459653" lon="15.1922081"><ele>113.00000000000001</ele><time>2026-05-05T12:25:53.992Z</time></trkpt><trkpt lat="40.4459801" lon="15.1920667"><ele>113.0</ele><time>2026-05-05T12:25:54.992Z</time></trkpt><trkpt lat="40.4459966" lon="15.1919242"><ele>113.0</ele><time>2026-05-05T12:25:55.991Z</time></trkpt><trkpt lat="40.4460119" lon="15.1917818"><ele>113.0</ele><time>2026-05-05T12:25:56.992Z</time></trkpt><trkpt lat="40.4460261" lon="15.1916371"><ele>113.0</ele><time>2026-05-05T12:25:57.991Z</time></trkpt><trkpt lat="40.4460419" lon="15.1914906"><ele>113.0</ele><time>2026-05-05T12:25:58.991Z</time></trkpt><trkpt lat="40.4460546" lon="15.1913418"><ele>113.0</ele><time>2026-05-05T12:25:59.991Z</time></trkpt><trkpt lat="40.4460616" lon="15.1911943"><ele>113.0</ele><time>2026-05-05T12:26:00.992Z</time></trkpt><trkpt lat="40.4460659" lon="15.1910489"><ele>113.0</ele><time>2026-05-05T12:26:01.991Z</time></trkpt><trkpt lat="40.4460579" lon="15.1909044"><ele>113.0</ele><time>2026-05-05T12:26:02.991Z</time></trkpt><trkpt lat="40.4460285" lon="15.1907599"><ele>113.0</ele><time>2026-05-05T12:26:03.992Z</time></trkpt><trkpt lat="40.4459783" lon="15.1906235"><ele>114.75</ele><time>2026-05-05T12:26:04.992Z</time></trkpt><trkpt lat="40.4459164" lon="15.1904942"><ele>116.5</ele><time>2026-05-05T12:26:05.992Z</time></trkpt><trkpt lat="40.4458382" lon="15.1903715"><ele>118.25</ele><time>2026-05-05T12:26:06.992Z</time></trkpt><trkpt lat="40.4457562" lon="15.1902503"><ele>120.0</ele><time>2026-05-05T12:26:07.99Z</time></trkpt><trkpt lat="40.4456749" lon="15.1901365"><ele>120.0</ele><time>2026-05-05T12:26:08.991Z</time></trkpt><trkpt lat="40.4455962" lon="15.1900331"><ele>120.0</ele><time>2026-05-05T12:26:09.99Z</time></trkpt><trkpt lat="40.4455312" lon="15.1899383"><ele>120.0</ele><time>2026-05-05T12:26:10.99Z</time></trkpt><trkpt lat="40.4455069" lon="15.1898325"><ele>120.0</ele><time>2026-05-05T12:26:11.992Z</time></trkpt><trkpt lat="40.4455275" lon="15.1897387"><ele>120.0</ele><time>2026-05-05T12:26:12.991Z</time></trkpt><trkpt lat="40.4455761" lon="15.1896512"><ele>120.0</ele><time>2026-05-05T12:26:13.991Z</time></trkpt><trkpt lat="40.4456427" lon="15.1895661"><ele>123.4</ele><time>2026-05-05T12:26:14.992Z</time></trkpt><trkpt lat="40.445715" lon="15.1894698"><ele>126.8</ele><time>2026-05-05T12:26:15.992Z</time></trkpt><trkpt lat="40.4457919" lon="15.1893708"><ele>130.2</ele><time>2026-05-05T12:26:16.991Z</time></trkpt><trkpt lat="40.4458786" lon="15.1892826"><ele>133.6</ele><time>2026-05-05T12:26:17.991Z</time></trkpt><trkpt lat="40.4459593" lon="15.1892044"><ele>137.0</ele><time>2026-05-05T12:26:18.991Z</time></trkpt><trkpt lat="40.4460165" lon="15.1891273"><ele>137.0</ele><time>2026-05-05T12:26:19.991Z</time></trkpt><trkpt lat="40.446032" lon="15.1890369"><ele>137.0</ele><time>2026-05-05T12:26:20.991Z</time></trkpt><trkpt lat="40.4460087" lon="15.1889589"><ele>137.0</ele><time>2026-05-05T12:26:21.991Z</time></trkpt><trkpt lat="40.4459372" lon="15.1888975"><ele>137.0</ele><time>2026-05-05T12:26:22.991Z</time></trkpt><trkpt lat="40.4458513" lon="15.1888559"><ele>137.0</ele><time>2026-05-05T12:26:23.991Z</time></trkpt><trkpt lat="40.4457638" lon="15.1888068"><ele>137.0</ele><time>2026-05-05T12:26:24.991Z</time></trkpt><trkpt lat="40.4456806" lon="15.1887463"><ele>138.83333333333331</ele><time>2026-05-05T12:26:25.992Z</time></trkpt><trkpt lat="40.4456145" lon="15.1886716"><ele>140.66666666666666</ele><time>2026-05-05T12:26:26.992Z</time></trkpt><trkpt lat="40.4455887" lon="15.1885683"><ele>142.5</ele><time>2026-05-05T12:26:27.99Z</time></trkpt><trkpt lat="40.4456082" lon="15.1884575"><ele>144.33333333333334</ele><time>2026-05-05T12:26:28.99Z</time></trkpt><trkpt lat="40.4456523" lon="15.1883529"><ele>146.16666666666669</ele><time>2026-05-05T12:26:29.992Z</time></trkpt><trkpt lat="40.4457002" lon="15.188248"><ele>148.0</ele><time>2026-05-05T12:26:30.992Z</time></trkpt><trkpt lat="40.4457351" lon="15.1881397"><ele>149.20000000000002</ele><time>2026-05-05T12:26:31.992Z</time></trkpt><trkpt lat="40.4457629" lon="15.1880293"><ele>150.4</ele><time>2026-05-05T12:26:32.992Z</time></trkpt><trkpt lat="40.4457858" lon="15.1879173"><ele>151.60000000000002</ele><time>2026-05-05T12:26:33.992Z</time></trkpt><trkpt lat="40.4458062" lon="15.1878003"><ele>152.8</ele><time>2026-05-05T12:26:34.991Z</time></trkpt><trkpt lat="40.4458274" lon="15.1876825"><ele>154.0</ele><time>2026-05-05T12:26:35.99Z</time></trkpt><trkpt lat="40.445851" lon="15.1875605"><ele>154.0</ele><time>2026-05-05T12:26:36.992Z</time></trkpt><trkpt lat="40.4458775" lon="15.1874359"><ele>154.0</ele><time>2026-05-05T12:26:37.992Z</time></trkpt><trkpt lat="40.4459073" lon="15.1873101"><ele>154.0</ele><time>2026-05-05T12:26:38.992Z</time></trkpt><trkpt lat="40.4459394" lon="15.1871792"><ele>154.0</ele><time>2026-05-05T12:26:39.992Z</time></trkpt><trkpt lat="40.445973" lon="15.1870409"><ele>154.0</ele><time>2026-05-05T12:26:40.991Z</time></trkpt><trkpt lat="40.4460064" lon="15.1869021"><ele>155.0</ele><time>2026-05-05T12:26:41.992Z</time></trkpt><trkpt lat="40.446043" lon="15.1867595"><ele>156.0</ele><time>2026-05-05T12:26:42.992Z</time></trkpt><trkpt lat="40.4460834" lon="15.1866142"><ele>157.0</ele><time>2026-05-05T12:26:43.992Z</time></trkpt><trkpt lat="40.4461249" lon="15.1864694"><ele>158.0</ele><time>2026-05-05T12:26:44.991Z</time></trkpt><trkpt lat="40.4461678" lon="15.1863269"><ele>158.25</ele><time>2026-05-05T12:26:45.992Z</time></trkpt><trkpt lat="40.4462124" lon="15.1861839"><ele>158.5</ele><time>2026-05-05T12:26:46.99Z</time></trkpt><trkpt lat="40.4462644" lon="15.1860496"><ele>158.75</ele><time>2026-05-05T12:26:47.992Z</time></trkpt><trkpt lat="40.4463338" lon="15.1859293"><ele>159.0</ele><time>2026-05-05T12:26:48.991Z</time></trkpt><trkpt lat="40.4464224" lon="15.1858225"><ele>160.5</ele><time>2026-05-05T12:26:49.992Z</time></trkpt><trkpt lat="40.4465235" lon="15.1857272"><ele>162.0</ele><time>2026-05-05T12:26:50.99Z</time></trkpt><trkpt lat="40.4466284" lon="15.1856357"><ele>163.5</ele><time>2026-05-05T12:26:51.992Z</time></trkpt><trkpt lat="40.4467303" lon="15.1855394"><ele>165.0</ele><time>2026-05-05T12:26:52.991Z</time></trkpt><trkpt lat="40.4468293" lon="15.1854374"><ele>165.0</ele><time>2026-05-05T12:26:53.992Z</time></trkpt><trkpt lat="40.446926" lon="15.1853284"><ele>165.0</ele><time>2026-05-05T12:26:54.991Z</time></trkpt><trkpt lat="40.4470163" lon="15.1852079"><ele>165.0</ele><time>2026-05-05T12:26:55.992Z</time></trkpt><trkpt lat="40.4470994" lon="15.1850774"><ele>165.0</ele><time>2026-05-05T12:26:56.991Z</time></trkpt><trkpt lat="40.4471758" lon="15.1849404"><ele>167.0</ele><time>2026-05-05T12:26:57.992Z</time></trkpt><trkpt lat="40.4472414" lon="15.1847948"><ele>169.0</ele><time>2026-05-05T12:26:58.992Z</time></trkpt><trkpt lat="40.4472952" lon="15.1846487"><ele>171.0</ele><time>2026-05-05T12:26:59.992Z</time></trkpt><trkpt lat="40.4473393" lon="15.1845048"><ele>173.0</ele><time>2026-05-05T12:27:00.992Z</time></trkpt><trkpt lat="40.4473776" lon="15.1843564"><ele>173.0</ele><time>2026-05-05T12:27:01.991Z</time></trkpt><trkpt lat="40.4474065" lon="15.1842082"><ele>173.0</ele><time>2026-05-05T12:27:02.992Z</time></trkpt><trkpt lat="40.4474273" lon="15.1840616"><ele>173.0</ele><time>2026-05-05T12:27:03.992Z</time></trkpt><trkpt lat="40.4474427" lon="15.1839232"><ele>173.0</ele><time>2026-05-05T12:27:04.992Z</time></trkpt><trkpt lat="40.4474559" lon="15.1837913"><ele>173.0</ele><time>2026-05-05T12:27:05.992Z</time></trkpt><trkpt lat="40.4474586" lon="15.1836649"><ele>173.2</ele><time>2026-05-05T12:27:06.99Z</time></trkpt><trkpt lat="40.4474399" lon="15.183552"><ele>173.4</ele><time>2026-05-05T12:27:07.991Z</time></trkpt><trkpt lat="40.4473969" lon="15.1834549"><ele>173.6</ele><time>2026-05-05T12:27:08.992Z</time></trkpt><trkpt lat="40.4473259" lon="15.1833773"><ele>173.79999999999998</ele><time>2026-05-05T12:27:09.991Z</time></trkpt><trkpt lat="40.447233" lon="15.1833278"><ele>174.0</ele><time>2026-05-05T12:27:10.991Z</time></trkpt><trkpt lat="40.4471315" lon="15.183294"><ele>174.39999999999998</ele><time>2026-05-05T12:27:11.992Z</time></trkpt><trkpt lat="40.4470339" lon="15.1832522"><ele>174.8</ele><time>2026-05-05T12:27:12.991Z</time></trkpt><trkpt lat="40.4469454" lon="15.1832024"><ele>175.2</ele><time>2026-05-05T12:27:13.992Z</time></trkpt><trkpt lat="40.4468655" lon="15.183147"><ele>175.60000000000002</ele><time>2026-05-05T12:27:14.992Z</time></trkpt><trkpt lat="40.4468085" lon="15.183064"><ele>176.0</ele><time>2026-05-05T12:27:15.991Z</time></trkpt><trkpt lat="40.4468053" lon="15.1829417"><ele>176.0</ele><time>2026-05-05T12:27:16.992Z</time></trkpt><trkpt lat="40.4468288" lon="15.1828245"><ele>176.0</ele><time>2026-05-05T12:27:17.991Z</time></trkpt><trkpt lat="40.4468689" lon="15.1826986"><ele>176.0</ele><time>2026-05-05T12:27:18.991Z</time></trkpt><trkpt lat="40.4469084" lon="15.1825611"><ele>176.0</ele><time>2026-05-05T12:27:19.99Z</time></trkpt><trkpt lat="40.4469453" lon="15.1824169"><ele>176.0</ele><time>2026-05-05T12:27:20.991Z</time></trkpt><trkpt lat="40.4469716" lon="15.182267"><ele>177.0</ele><time>2026-05-05T12:27:21.992Z</time></trkpt><trkpt lat="40.4469815" lon="15.182113"><ele>178.0</ele><time>2026-05-05T12:27:22.992Z</time></trkpt><trkpt lat="40.4469769" lon="15.1819568"><ele>179.0</ele><time>2026-05-05T12:27:23.991Z</time></trkpt><trkpt lat="40.4469629" lon="15.181803"><ele>180.0</ele><time>2026-05-05T12:27:24.991Z</time></trkpt><trkpt lat="40.4469512" lon="15.1816492"><ele>180.25</ele><time>2026-05-05T12:27:25.992Z</time></trkpt><trkpt lat="40.4469489" lon="15.1814982"><ele>180.5</ele><time>2026-05-05T12:27:26.992Z</time></trkpt><trkpt lat="40.4469621" lon="15.1813496"><ele>180.75</ele><time>2026-05-05T12:27:27.991Z</time></trkpt><trkpt lat="40.4469933" lon="15.1812036"><ele>181.0</ele><time>2026-05-05T12:27:28.992Z</time></trkpt><trkpt lat="40.4470441" lon="15.1810669"><ele>181.0</ele><time>2026-05-05T12:27:29.991Z</time></trkpt><trkpt lat="40.4470973" lon="15.1809314"><ele>181.0</ele><time>2026-05-05T12:27:30.992Z</time></trkpt><trkpt lat="40.4471363" lon="15.1808314"><ele>181.0</ele><time>2026-05-05T12:27:31.991Z</time></trkpt><trkpt lat="40.4471431" lon="15.1807426"><ele>181.0</ele><time>2026-05-05T12:27:34.992Z</time></trkpt><trkpt lat="40.4471289" lon="15.1808781"><ele>181.0</ele><time>2026-05-05T12:27:37.992Z</time></trkpt><trkpt lat="40.4472059" lon="15.180974"><ele>182.33333333333334</ele><time>2026-05-05T12:27:39.991Z</time></trkpt><trkpt lat="40.4473129" lon="15.1809635"><ele>183.66666666666669</ele><time>2026-05-05T12:27:41.992Z</time></trkpt><trkpt lat="40.4473687" lon="15.1809174"><ele>185.0</ele><time>2026-05-05T12:27:42.992Z</time></trkpt><trkpt lat="40.4474338" lon="15.1808635"><ele>186.33333333333334</ele><time>2026-05-05T12:27:43.991Z</time></trkpt><trkpt lat="40.4475019" lon="15.1808098"><ele>187.66666666666666</ele><time>2026-05-05T12:27:44.992Z</time></trkpt><trkpt lat="40.4475687" lon="15.1807491"><ele>189.0</ele><time>2026-05-05T12:27:45.992Z</time></trkpt><trkpt lat="40.4476398" lon="15.1806778"><ele>188.0</ele><time>2026-05-05T12:27:46.991Z</time></trkpt><trkpt lat="40.4477122" lon="15.1806"><ele>187.0</ele><time>2026-05-05T12:27:47.992Z</time></trkpt><trkpt lat="40.4477818" lon="15.1805297"><ele>186.0</ele><time>2026-05-05T12:27:48.991Z</time></trkpt><trkpt lat="40.447849" lon="15.1804596"><ele>185.0</ele><time>2026-05-05T12:27:49.991Z</time></trkpt><trkpt lat="40.4479147" lon="15.1803854"><ele>184.0</ele><time>2026-05-05T12:27:50.99Z</time></trkpt><trkpt lat="40.4479838" lon="15.1802976"><ele>184.0</ele><time>2026-05-05T12:27:51.992Z</time></trkpt><trkpt lat="40.4480328" lon="15.1801864"><ele>184.0</ele><time>2026-05-05T12:27:52.991Z</time></trkpt><trkpt lat="40.4480923" lon="15.1800861"><ele>184.0</ele><time>2026-05-05T12:27:53.99Z</time></trkpt><trkpt lat="40.4481509" lon="15.17998"><ele>184.0</ele><time>2026-05-05T12:27:54.992Z</time></trkpt><trkpt lat="40.4481999" lon="15.1798734"><ele>184.0</ele><time>2026-05-05T12:27:55.992Z</time></trkpt><trkpt lat="40.448248" lon="15.1797647"><ele>184.79999999999998</ele><time>2026-05-05T12:27:56.991Z</time></trkpt><trkpt lat="40.4482965" lon="15.1796555"><ele>185.6</ele><time>2026-05-05T12:27:57.992Z</time></trkpt><trkpt lat="40.4483481" lon="15.1795441"><ele>186.4</ele><time>2026-05-05T12:27:58.991Z</time></trkpt><trkpt lat="40.4484048" lon="15.1794333"><ele>187.2</ele><time>2026-05-05T12:27:59.992Z</time></trkpt><trkpt lat="40.4484663" lon="15.1793383"><ele>188.0</ele><time>2026-05-05T12:28:00.991Z</time></trkpt><trkpt lat="40.4485255" lon="15.1792355"><ele>188.0</ele><time>2026-05-05T12:28:01.991Z</time></trkpt><trkpt lat="40.4485944" lon="15.179151"><ele>188.0</ele><time>2026-05-05T12:28:02.992Z</time></trkpt><trkpt lat="40.448663" lon="15.1790756"><ele>188.0</ele><time>2026-05-05T12:28:03.991Z</time></trkpt><trkpt lat="40.4487324" lon="15.1789978"><ele>188.0</ele><time>2026-05-05T12:28:04.991Z</time></trkpt><trkpt lat="40.4487898" lon="15.1789095"><ele>188.0</ele><time>2026-05-05T12:28:05.992Z</time></trkpt><trkpt lat="40.4488451" lon="15.1788184"><ele>186.5</ele><time>2026-05-05T12:28:06.991Z</time></trkpt><trkpt lat="40.4488877" lon="15.1787204"><ele>185.0</ele><time>2026-05-05T12:28:07.99Z</time></trkpt><trkpt lat="40.4489616" lon="15.178683"><ele>183.5</ele><time>2026-05-05T12:28:08.991Z</time></trkpt><trkpt lat="40.4490303" lon="15.1786579"><ele>182.0</ele><time>2026-05-05T12:28:09.992Z</time></trkpt><trkpt lat="40.4491508" lon="15.1786305"><ele>180.5</ele><time>2026-05-05T12:28:11.992Z</time></trkpt><trkpt lat="40.4492112" lon="15.1785559"><ele>179.0</ele><time>2026-05-05T12:28:12.992Z</time></trkpt><trkpt lat="40.4492728" lon="15.1785092"><ele>179.0</ele><time>2026-05-05T12:28:13.992Z</time></trkpt><trkpt lat="40.4493531" lon="15.178433"><ele>179.0</ele><time>2026-05-05T12:28:14.991Z</time></trkpt><trkpt lat="40.4494208" lon="15.1783465"><ele>179.0</ele><time>2026-05-05T12:28:15.992Z</time></trkpt><trkpt lat="40.4494944" lon="15.1782617"><ele>179.0</ele><time>2026-05-05T12:28:16.992Z</time></trkpt><trkpt lat="40.4495714" lon="15.1781923"><ele>179.0</ele><time>2026-05-05T12:28:17.992Z</time></trkpt><trkpt lat="40.4496391" lon="15.1781189"><ele>178.0</ele><time>2026-05-05T12:28:18.991Z</time></trkpt><trkpt lat="40.4496979" lon="15.1780465"><ele>177.0</ele><time>2026-05-05T12:28:19.992Z</time></trkpt><trkpt lat="40.4497689" lon="15.1779656"><ele>176.0</ele><time>2026-05-05T12:28:20.991Z</time></trkpt><trkpt lat="40.4498299" lon="15.1779119"><ele>175.0</ele><time>2026-05-05T12:28:21.991Z</time></trkpt><trkpt lat="40.4499089" lon="15.1778848"><ele>174.0</ele><time>2026-05-05T12:28:22.992Z</time></trkpt><trkpt lat="40.4499841" lon="15.1778556"><ele>173.0</ele><time>2026-05-05T12:28:23.991Z</time></trkpt><trkpt lat="40.4500493" lon="15.1778245"><ele>173.0</ele><time>2026-05-05T12:28:24.992Z</time></trkpt><trkpt lat="40.4501305" lon="15.1777694"><ele>173.0</ele><time>2026-05-05T12:28:25.992Z</time></trkpt><trkpt lat="40.4502102" lon="15.1777166"><ele>173.0</ele><time>2026-05-05T12:28:26.991Z</time></trkpt><trkpt lat="40.4502928" lon="15.1776518"><ele>173.0</ele><time>2026-05-05T12:28:27.992Z</time></trkpt><trkpt lat="40.4503699" lon="15.1775905"><ele>173.0</ele><time>2026-05-05T12:28:28.992Z</time></trkpt><trkpt lat="40.4504228" lon="15.1774954"><ele>172.2</ele><time>2026-05-05T12:28:29.991Z</time></trkpt><trkpt lat="40.450494" lon="15.1774131"><ele>171.4</ele><time>2026-05-05T12:28:30.991Z</time></trkpt><trkpt lat="40.4505596" lon="15.1773291"><ele>170.6</ele><time>2026-05-05T12:28:31.992Z</time></trkpt><trkpt lat="40.4506037" lon="15.1772562"><ele>169.79999999999998</ele><time>2026-05-05T12:28:32.991Z</time></trkpt><trkpt lat="40.4505496" lon="15.1771152"><ele>169.0</ele><time>2026-05-05T12:28:33.992Z</time></trkpt><trkpt lat="40.4505883" lon="15.1769761"><ele>169.0</ele><time>2026-05-05T12:28:35.991Z</time></trkpt><trkpt lat="40.4506538" lon="15.1768299"><ele>169.0</ele><time>2026-05-05T12:28:37.991Z</time></trkpt><trkpt lat="40.4507061" lon="15.1766727"><ele>169.0</ele><time>2026-05-05T12:28:39.991Z</time></trkpt><trkpt lat="40.4507599" lon="15.1765844"><ele>169.0</ele><time>2026-05-05T12:28:40.992Z</time></trkpt><trkpt lat="40.4507908" lon="15.1765031"><ele>169.0</ele><time>2026-05-05T12:28:41.992Z</time></trkpt><trkpt lat="40.4508325" lon="15.176421"><ele>169.0</ele><time>2026-05-05T12:28:42.991Z</time></trkpt><trkpt lat="40.4508912" lon="15.1763049"><ele>169.0</ele><time>2026-05-05T12:28:43.991Z</time></trkpt><trkpt lat="40.4509623" lon="15.17626"><ele>169.0</ele><time>2026-05-05T12:28:44.992Z</time></trkpt><trkpt lat="40.4510246" lon="15.1761699"><ele>169.0</ele><time>2026-05-05T12:28:45.991Z</time></trkpt><trkpt lat="40.4511053" lon="15.1761294"><ele>169.0</ele><time>2026-05-05T12:28:46.992Z</time></trkpt><trkpt lat="40.4511834" lon="15.1760863"><ele>169.0</ele><time>2026-05-05T12:28:47.99Z</time></trkpt><trkpt lat="40.4513103" lon="15.1760112"><ele>169.0</ele><time>2026-05-05T12:28:49.992Z</time></trkpt><trkpt lat="40.4513671" lon="15.1759034"><ele>169.0</ele><time>2026-05-05T12:28:50.992Z</time></trkpt><trkpt lat="40.451439" lon="15.175828"><ele>169.0</ele><time>2026-05-05T12:28:51.991Z</time></trkpt><trkpt lat="40.4515033" lon="15.175743"><ele>169.0</ele><time>2026-05-05T12:28:52.992Z</time></trkpt><trkpt lat="40.4515341" lon="15.1756549"><ele>169.0</ele><time>2026-05-05T12:28:53.992Z</time></trkpt><trkpt lat="40.4516276" lon="15.1756193"><ele>173.79999999999998</ele><time>2026-05-05T12:28:54.991Z</time></trkpt><trkpt lat="40.4516799" lon="15.1755619"><ele>178.6</ele><time>2026-05-05T12:28:55.99Z</time></trkpt><trkpt lat="40.4517336" lon="15.1754046"><ele>183.4</ele><time>2026-05-05T12:28:57.992Z</time></trkpt><trkpt lat="40.4517629" lon="15.1753303"><ele>188.2</ele><time>2026-05-05T12:28:58.992Z</time></trkpt><trkpt lat="40.4518714" lon="15.1752301"><ele>193.0</ele><time>2026-05-05T12:29:00.992Z</time></trkpt><trkpt lat="40.4519857" lon="15.1751931"><ele>192.99999999999997</ele><time>2026-05-05T12:29:02.992Z</time></trkpt><trkpt lat="40.4520676" lon="15.1751261"><ele>193.0</ele><time>2026-05-05T12:29:04.992Z</time></trkpt><trkpt lat="40.4520984" lon="15.1750514"><ele>193.0</ele><time>2026-05-05T12:29:06.991Z</time></trkpt><trkpt lat="40.4521225" lon="15.1749707"><ele>193.0</ele><time>2026-05-05T12:29:24.991Z</time></trkpt><trkpt lat="40.4521203" lon="15.1748867"><ele>192.99999999999997</ele><time>2026-05-05T12:29:26.991Z</time></trkpt><trkpt lat="40.452137" lon="15.1747717"><ele>193.0</ele><time>2026-05-05T12:29:28.992Z</time></trkpt><trkpt lat="40.4521382" lon="15.1746338"><ele>192.4</ele><time>2026-05-05T12:29:30.992Z</time></trkpt><trkpt lat="40.4521631" lon="15.1744967"><ele>191.8</ele><time>2026-05-05T12:29:32.992Z</time></trkpt><trkpt lat="40.4522274" lon="15.1744673"><ele>191.2</ele><time>2026-05-05T12:29:34.992Z</time></trkpt><trkpt lat="40.4523098" lon="15.1744498"><ele>190.6</ele><time>2026-05-05T12:29:36.99Z</time></trkpt><trkpt lat="40.452341" lon="15.1745574"><ele>190.0</ele><time>2026-05-05T12:29:39.992Z</time></trkpt><trkpt lat="40.4522864" lon="15.1747059"><ele>186.6</ele><time>2026-05-05T12:29:41.992Z</time></trkpt><trkpt lat="40.452232" lon="15.1748687"><ele>183.2</ele><time>2026-05-05T12:29:43.991Z</time></trkpt><trkpt lat="40.4522041" lon="15.1749569"><ele>179.8</ele><time>2026-05-05T12:29:44.991Z</time></trkpt><trkpt lat="40.4521773" lon="15.1750433"><ele>176.4</ele><time>2026-05-05T12:29:45.991Z</time></trkpt><trkpt lat="40.452161" lon="15.1751314"><ele>173.0</ele><time>2026-05-05T12:29:46.992Z</time></trkpt><trkpt lat="40.4521316" lon="15.1752648"><ele>173.0</ele><time>2026-05-05T12:29:48.992Z</time></trkpt><trkpt lat="40.4522231" lon="15.1752246"><ele>173.0</ele><time>2026-05-05T12:29:52.991Z</time></trkpt><trkpt lat="40.4522628" lon="15.1751514"><ele>173.0</ele><time>2026-05-05T12:29:53.992Z</time></trkpt><trkpt lat="40.4523104" lon="15.1750815"><ele>173.0</ele><time>2026-05-05T12:29:54.992Z</time></trkpt><trkpt lat="40.4523664" lon="15.1750098"><ele>173.0</ele><time>2026-05-05T12:29:55.991Z</time></trkpt><trkpt lat="40.4524406" lon="15.174962"><ele>173.0</ele><time>2026-05-05T12:29:56.991Z</time></trkpt><trkpt lat="40.452504" lon="15.1748758"><ele>175.83333333333331</ele><time>2026-05-05T12:29:57.991Z</time></trkpt><trkpt lat="40.4525645" lon="15.1747954"><ele>178.66666666666666</ele><time>2026-05-05T12:29:58.991Z</time></trkpt><trkpt lat="40.4526221" lon="15.1747317"><ele>181.5</ele><time>2026-05-05T12:29:59.991Z</time></trkpt><trkpt lat="40.452703" lon="15.174683"><ele>184.33333333333334</ele><time>2026-05-05T12:30:00.991Z</time></trkpt><trkpt lat="40.4527683" lon="15.1746189"><ele>187.16666666666669</ele><time>2026-05-05T12:30:01.992Z</time></trkpt><trkpt lat="40.4528214" lon="15.1745486"><ele>190.0</ele><time>2026-05-05T12:30:02.991Z</time></trkpt><trkpt lat="40.4528643" lon="15.1744639"><ele>190.0</ele><time>2026-05-05T12:30:03.992Z</time></trkpt><trkpt lat="40.452909" lon="15.1743825"><ele>190.0</ele><time>2026-05-05T12:30:04.992Z</time></trkpt><trkpt lat="40.4529579" lon="15.1742958"><ele>190.0</ele><time>2026-05-05T12:30:05.991Z</time></trkpt><trkpt lat="40.4529877" lon="15.1742022"><ele>190.0</ele><time>2026-05-05T12:30:06.992Z</time></trkpt><trkpt lat="40.4530019" lon="15.174121"><ele>190.0</ele><time>2026-05-05T12:30:07.991Z</time></trkpt><trkpt lat="40.4529996" lon="15.1740103"><ele>190.0</ele><time>2026-05-05T12:30:08.991Z</time></trkpt><trkpt lat="40.4529962" lon="15.1739082"><ele>187.16666666666669</ele><time>2026-05-05T12:30:09.99Z</time></trkpt><trkpt lat="40.4529838" lon="15.173764"><ele>184.33333333333334</ele><time>2026-05-05T12:30:10.99Z</time></trkpt><trkpt lat="40.4529912" lon="15.173644"><ele>181.5</ele><time>2026-05-05T12:30:11.991Z</time></trkpt><trkpt lat="40.4530283" lon="15.1735295"><ele>178.66666666666666</ele><time>2026-05-05T12:30:12.992Z</time></trkpt><trkpt lat="40.453052" lon="15.1734429"><ele>175.83333333333331</ele><time>2026-05-05T12:30:13.991Z</time></trkpt><trkpt lat="40.4530687" lon="15.1733483"><ele>173.0</ele><time>2026-05-05T12:30:15.991Z</time></trkpt><trkpt lat="40.4531522" lon="15.1733176"><ele>173.0</ele><time>2026-05-05T12:30:17.992Z</time></trkpt><trkpt lat="40.4532348" lon="15.1733019"><ele>173.0</ele><time>2026-05-05T12:30:19.991Z</time></trkpt><trkpt lat="40.4532875" lon="15.17321"><ele>173.0</ele><time>2026-05-05T12:30:21.989Z</time></trkpt><trkpt lat="40.4533343" lon="15.1731241"><ele>173.0</ele><time>2026-05-05T12:30:22.991Z</time></trkpt><trkpt lat="40.4533819" lon="15.1730357"><ele>173.0</ele><time>2026-05-05T12:30:23.991Z</time></trkpt><trkpt lat="40.4534364" lon="15.1729749"><ele>173.0</ele><time>2026-05-05T12:30:24.991Z</time></trkpt><trkpt lat="40.4535112" lon="15.1729315"><ele>173.83333333333331</ele><time>2026-05-05T12:30:25.992Z</time></trkpt><trkpt lat="40.4535927" lon="15.172902"><ele>174.66666666666666</ele><time>2026-05-05T12:30:26.992Z</time></trkpt><trkpt lat="40.4536675" lon="15.1728619"><ele>175.5</ele><time>2026-05-05T12:30:27.992Z</time></trkpt><trkpt lat="40.4537235" lon="15.1727827"><ele>176.33333333333334</ele><time>2026-05-05T12:30:28.991Z</time></trkpt><trkpt lat="40.4537954" lon="15.1727177"><ele>177.16666666666669</ele><time>2026-05-05T12:30:29.992Z</time></trkpt><trkpt lat="40.4538605" lon="15.172645"><ele>178.0</ele><time>2026-05-05T12:30:30.991Z</time></trkpt><trkpt lat="40.4539132" lon="15.1725806"><ele>178.0</ele><time>2026-05-05T12:30:31.991Z</time></trkpt><trkpt lat="40.4539638" lon="15.1725075"><ele>178.0</ele><time>2026-05-05T12:30:32.991Z</time></trkpt><trkpt lat="40.4540143" lon="15.1724435"><ele>178.0</ele><time>2026-05-05T12:30:33.991Z</time></trkpt><trkpt lat="40.4540613" lon="15.17238"><ele>178.0</ele><time>2026-05-05T12:30:34.991Z</time></trkpt><trkpt lat="40.4541246" lon="15.172296"><ele>178.0</ele><time>2026-05-05T12:30:36.991Z</time></trkpt><trkpt lat="40.4540487" lon="15.1723943"><ele>178.0</ele><time>2026-05-05T12:30:54.992Z</time></trkpt><trkpt lat="40.4539811" lon="15.1724818"><ele>178.0</ele><time>2026-05-05T12:30:56.992Z</time></trkpt><trkpt lat="40.4539344" lon="15.1724106"><ele>178.0</ele><time>2026-05-05T12:31:00.991Z</time></trkpt><trkpt lat="40.4539311" lon="15.1722758"><ele>178.0</ele><time>2026-05-05T12:31:02.991Z</time></trkpt><trkpt lat="40.4539147" lon="15.1721254"><ele>178.0</ele><time>2026-05-05T12:31:04.991Z</time></trkpt><trkpt lat="40.4538991" lon="15.172006"><ele>178.0</ele><time>2026-05-05T12:31:06.992Z</time></trkpt><trkpt lat="40.453859" lon="15.1718895"><ele>178.8</ele><time>2026-05-05T12:31:08.992Z</time></trkpt><trkpt lat="40.4538115" lon="15.1717528"><ele>179.60000000000002</ele><time>2026-05-05T12:31:10.992Z</time></trkpt><trkpt lat="40.4537839" lon="15.1716784"><ele>180.39999999999998</ele><time>2026-05-05T12:31:11.992Z</time></trkpt><trkpt lat="40.4537424" lon="15.1715364"><ele>181.2</ele><time>2026-05-05T12:31:13.992Z</time></trkpt><trkpt lat="40.4536857" lon="15.1714301"><ele>182.0</ele><time>2026-05-05T12:31:15.992Z</time></trkpt><trkpt lat="40.4536461" lon="15.1713648"><ele>187.2</ele><time>2026-05-05T12:31:16.991Z</time></trkpt><trkpt lat="40.453602" lon="15.1713037"><ele>192.39999999999998</ele><time>2026-05-05T12:31:17.992Z</time></trkpt><trkpt lat="40.4535597" lon="15.1712403"><ele>197.60000000000002</ele><time>2026-05-05T12:31:18.991Z</time></trkpt><trkpt lat="40.4534884" lon="15.1711252"><ele>202.8</ele><time>2026-05-05T12:31:20.991Z</time></trkpt><trkpt lat="40.4533978" lon="15.1710814"><ele>208.0</ele><time>2026-05-05T12:31:22.991Z</time></trkpt><trkpt lat="40.4532908" lon="15.1711472"><ele>208.0</ele><time>2026-05-05T12:31:24.992Z</time></trkpt><trkpt lat="40.4532073" lon="15.1711699"><ele>208.0</ele><time>2026-05-05T12:31:26.992Z</time></trkpt><trkpt lat="40.4532015" lon="15.1710599"><ele>208.0</ele><time>2026-05-05T12:31:29.992Z</time></trkpt><trkpt lat="40.4531262" lon="15.1709996"><ele>208.0</ele><time>2026-05-05T12:31:31.992Z</time></trkpt><trkpt lat="40.4530016" lon="15.1710067"><ele>208.0</ele><time>2026-05-05T12:31:33.991Z</time></trkpt><trkpt lat="40.4529206" lon="15.1709977"><ele>209.8</ele><time>2026-05-05T12:31:34.991Z</time></trkpt><trkpt lat="40.4528306" lon="15.1709831"><ele>211.60000000000002</ele><time>2026-05-05T12:31:35.992Z</time></trkpt><trkpt lat="40.4527394" lon="15.1709717"><ele>213.39999999999998</ele><time>2026-05-05T12:31:36.992Z</time></trkpt><trkpt lat="40.4526491" lon="15.1709549"><ele>215.2</ele><time>2026-05-05T12:31:37.992Z</time></trkpt><trkpt lat="40.4525513" lon="15.1709394"><ele>217.0</ele><time>2026-05-05T12:31:38.992Z</time></trkpt><trkpt lat="40.4524644" lon="15.1709228"><ele>216.99999999999997</ele><time>2026-05-05T12:31:39.992Z</time></trkpt><trkpt lat="40.4523715" lon="15.1709077"><ele>217.0</ele><time>2026-05-05T12:31:40.992Z</time></trkpt><trkpt lat="40.4522849" lon="15.1708849"><ele>217.0</ele><time>2026-05-05T12:31:41.992Z</time></trkpt><trkpt lat="40.4521938" lon="15.170869"><ele>217.0</ele><time>2026-05-05T12:31:42.99Z</time></trkpt><trkpt lat="40.4521097" lon="15.1708594"><ele>216.99999999999997</ele><time>2026-05-05T12:31:43.991Z</time></trkpt><trkpt lat="40.4520418" lon="15.1708395"><ele>217.0</ele><time>2026-05-05T12:31:44.991Z</time></trkpt><trkpt lat="40.4519799" lon="15.1708202"><ele>219.16666666666666</ele><time>2026-05-05T12:31:45.991Z</time></trkpt><trkpt lat="40.4518956" lon="15.1708752"><ele>221.33333333333331</ele><time>2026-05-05T12:31:47.992Z</time></trkpt><trkpt lat="40.4518283" lon="15.1708801"><ele>223.5</ele><time>2026-05-05T12:31:50.991Z</time></trkpt><trkpt lat="40.4518733" lon="15.1707795"><ele>225.66666666666669</ele><time>2026-05-05T12:31:55.992Z</time></trkpt><trkpt lat="40.4519254" lon="15.1706415"><ele>227.83333333333334</ele><time>2026-05-05T12:31:57.992Z</time></trkpt><trkpt lat="40.4519736" lon="15.1705692"><ele>230.0</ele><time>2026-05-05T12:31:58.992Z</time></trkpt><trkpt lat="40.4520464" lon="15.1705107"><ele>229.33333333333334</ele><time>2026-05-05T12:31:59.992Z</time></trkpt><trkpt lat="40.4521291" lon="15.170455"><ele>228.66666666666669</ele><time>2026-05-05T12:32:00.991Z</time></trkpt><trkpt lat="40.4522005" lon="15.1704027"><ele>228.0</ele><time>2026-05-05T12:32:01.992Z</time></trkpt><trkpt lat="40.4522558" lon="15.1703417"><ele>227.33333333333331</ele><time>2026-05-05T12:32:02.992Z</time></trkpt><trkpt lat="40.4522885" lon="15.1702706"><ele>226.66666666666666</ele><time>2026-05-05T12:32:03.991Z</time></trkpt><trkpt lat="40.4522831" lon="15.1701135"><ele>226.0</ele><time>2026-05-05T12:32:05.992Z</time></trkpt><trkpt lat="40.4522614" lon="15.1700326"><ele>226.0</ele><time>2026-05-05T12:32:06.992Z</time></trkpt><trkpt lat="40.4522626" lon="15.1698767"><ele>226.00000000000003</ele><time>2026-05-05T12:32:08.992Z</time></trkpt><trkpt lat="40.4522825" lon="15.1697665"><ele>226.00000000000003</ele><time>2026-05-05T12:32:10.992Z</time></trkpt><trkpt lat="40.4522935" lon="15.169679"><ele>226.0</ele><time>2026-05-05T12:32:23.992Z</time></trkpt><trkpt lat="40.4522658" lon="15.1695578"><ele>226.0</ele><time>2026-05-05T12:32:26.992Z</time></trkpt><trkpt lat="40.4521829" lon="15.169472"><ele>228.4</ele><time>2026-05-05T12:32:28.992Z</time></trkpt><trkpt lat="40.4521363" lon="15.1694136"><ele>230.8</ele><time>2026-05-05T12:32:29.992Z</time></trkpt><trkpt lat="40.4521315" lon="15.1692843"><ele>233.20000000000002</ele><time>2026-05-05T12:32:31.992Z</time></trkpt><trkpt lat="40.4521649" lon="15.1691283"><ele>235.60000000000002</ele><time>2026-05-05T12:32:33.992Z</time></trkpt><trkpt lat="40.4521916" lon="15.1690497"><ele>238.0</ele><time>2026-05-05T12:32:34.991Z</time></trkpt><trkpt lat="40.452247" lon="15.1689244"><ele>240.4</ele><time>2026-05-05T12:32:36.992Z</time></trkpt><trkpt lat="40.4522684" lon="15.1687765"><ele>242.8</ele><time>2026-05-05T12:32:38.991Z</time></trkpt><trkpt lat="40.4523092" lon="15.1686262"><ele>245.2</ele><time>2026-05-05T12:32:40.991Z</time></trkpt><trkpt lat="40.4523574" lon="15.1685098"><ele>247.6</ele><time>2026-05-05T12:32:42.991Z</time></trkpt><trkpt lat="40.4523875" lon="15.168436"><ele>250.0</ele><time>2026-05-05T12:32:43.991Z</time></trkpt><trkpt lat="40.4524221" lon="15.1683568"><ele>249.99999999999997</ele><time>2026-05-05T12:32:44.991Z</time></trkpt><trkpt lat="40.4524633" lon="15.1682751"><ele>250.0</ele><time>2026-05-05T12:32:45.992Z</time></trkpt><trkpt lat="40.452523" lon="15.1682107"><ele>250.0</ele><time>2026-05-05T12:32:46.992Z</time></trkpt><trkpt lat="40.4525909" lon="15.1681423"><ele>250.0</ele><time>2026-05-05T12:32:47.992Z</time></trkpt><trkpt lat="40.4526636" lon="15.1680631"><ele>249.99999999999997</ele><time>2026-05-05T12:32:48.991Z</time></trkpt><trkpt lat="40.4527371" lon="15.167973"><ele>250.0</ele><time>2026-05-05T12:32:49.991Z</time></trkpt><trkpt lat="40.4528093" lon="15.1678827"><ele>250.66666666666666</ele><time>2026-05-05T12:32:50.992Z</time></trkpt><trkpt lat="40.4528829" lon="15.1677869"><ele>251.33333333333331</ele><time>2026-05-05T12:32:51.991Z</time></trkpt><trkpt lat="40.4529451" lon="15.1676951"><ele>252.0</ele><time>2026-05-05T12:32:52.992Z</time></trkpt><trkpt lat="40.45298" lon="15.1676204"><ele>252.66666666666669</ele><time>2026-05-05T12:32:53.991Z</time></trkpt><trkpt lat="40.4530018" lon="15.1675322"><ele>253.33333333333334</ele><time>2026-05-05T12:32:54.992Z</time></trkpt><trkpt lat="40.4530299" lon="15.1674288"><ele>254.0</ele><time>2026-05-05T12:32:55.991Z</time></trkpt><trkpt lat="40.4530666" lon="15.1673255"><ele>256.59999999999997</ele><time>2026-05-05T12:32:56.992Z</time></trkpt><trkpt lat="40.4531049" lon="15.1672226"><ele>259.2</ele><time>2026-05-05T12:32:57.992Z</time></trkpt><trkpt lat="40.4531657" lon="15.167139"><ele>261.79999999999995</ele><time>2026-05-05T12:32:58.992Z</time></trkpt><trkpt lat="40.4532309" lon="15.1670346"><ele>264.4</ele><time>2026-05-05T12:32:59.99Z</time></trkpt><trkpt lat="40.4532848" lon="15.166922"><ele>267.0</ele><time>2026-05-05T12:33:00.991Z</time></trkpt><trkpt lat="40.4533217" lon="15.1668094"><ele>267.0</ele><time>2026-05-05T12:33:01.992Z</time></trkpt><trkpt lat="40.4533507" lon="15.1666834"><ele>267.0</ele><time>2026-05-05T12:33:02.991Z</time></trkpt><trkpt lat="40.4533734" lon="15.1665602"><ele>267.0</ele><time>2026-05-05T12:33:03.991Z</time></trkpt><trkpt lat="40.4533908" lon="15.1664448"><ele>267.0</ele><time>2026-05-05T12:33:04.992Z</time></trkpt><trkpt lat="40.4534128" lon="15.1663606"><ele>267.0</ele><time>2026-05-05T12:33:05.992Z</time></trkpt><trkpt lat="40.4534718" lon="15.1663037"><ele>267.0</ele><time>2026-05-05T12:33:07.991Z</time></trkpt><trkpt lat="40.4535447" lon="15.1662774"><ele>268.5</ele><time>2026-05-05T12:33:13.991Z</time></trkpt><trkpt lat="40.4536756" lon="15.1662455"><ele>270.0</ele><time>2026-05-05T12:33:15.991Z</time></trkpt><trkpt lat="40.4537577" lon="15.1662274"><ele>271.5</ele><time>2026-05-05T12:33:16.991Z</time></trkpt><trkpt lat="40.4538209" lon="15.1662112"><ele>273.0</ele><time>2026-05-05T12:33:17.992Z</time></trkpt><trkpt lat="40.4538832" lon="15.1661975"><ele>274.5</ele><time>2026-05-05T12:33:18.991Z</time></trkpt><trkpt lat="40.4539477" lon="15.166187"><ele>276.0</ele><time>2026-05-05T12:33:19.992Z</time></trkpt><trkpt lat="40.454008" lon="15.1661625"><ele>276.0</ele><time>2026-05-05T12:33:20.99Z</time></trkpt><trkpt lat="40.4541115" lon="15.166065"><ele>276.0</ele><time>2026-05-05T12:33:22.992Z</time></trkpt><trkpt lat="40.4541608" lon="15.1659863"><ele>276.0</ele><time>2026-05-05T12:33:23.991Z</time></trkpt><trkpt lat="40.4542095" lon="15.1658962"><ele>276.0</ele><time>2026-05-05T12:33:24.992Z</time></trkpt><trkpt lat="40.4542586" lon="15.1658003"><ele>276.0</ele><time>2026-05-05T12:33:25.991Z</time></trkpt><trkpt lat="40.4543109" lon="15.1657053"><ele>276.6666666666667</ele><time>2026-05-05T12:33:26.992Z</time></trkpt><trkpt lat="40.4543634" lon="15.1656158"><ele>277.3333333333333</ele><time>2026-05-05T12:33:27.991Z</time></trkpt><trkpt lat="40.4544136" lon="15.165534"><ele>278.0</ele><time>2026-05-05T12:33:28.992Z</time></trkpt><trkpt lat="40.4544665" lon="15.1654607"><ele>278.66666666666663</ele><time>2026-05-05T12:33:29.992Z</time></trkpt><trkpt lat="40.4545296" lon="15.1654005"><ele>279.3333333333333</ele><time>2026-05-05T12:33:30.992Z</time></trkpt><trkpt lat="40.4545924" lon="15.1653493"><ele>280.0</ele><time>2026-05-05T12:33:31.991Z</time></trkpt><trkpt lat="40.4546561" lon="15.1653231"><ele>280.0</ele><time>2026-05-05T12:33:32.992Z</time></trkpt><trkpt lat="40.4547282" lon="15.1653056"><ele>280.0</ele><time>2026-05-05T12:33:33.992Z</time></trkpt><trkpt lat="40.4548029" lon="15.1652775"><ele>280.0</ele><time>2026-05-05T12:33:34.992Z</time></trkpt><trkpt lat="40.4548788" lon="15.1652588"><ele>280.0</ele><time>2026-05-05T12:33:35.991Z</time></trkpt><trkpt lat="40.4549652" lon="15.1652486"><ele>280.0</ele><time>2026-05-05T12:33:36.992Z</time></trkpt><trkpt lat="40.4550431" lon="15.1652437"><ele>280.0</ele><time>2026-05-05T12:33:37.991Z</time></trkpt><trkpt lat="40.4551183" lon="15.1652367"><ele>280.0</ele><time>2026-05-05T12:33:38.991Z</time></trkpt><trkpt lat="40.455186" lon="15.1652207"><ele>280.0</ele><time>2026-05-05T12:33:39.992Z</time></trkpt><trkpt lat="40.4552827" lon="15.1651526"><ele>280.0</ele><time>2026-05-05T12:33:41.992Z</time></trkpt><trkpt lat="40.4553326" lon="15.1649887"><ele>280.0</ele><time>2026-05-05T12:33:43.992Z</time></trkpt><trkpt lat="40.45535" lon="15.1648864"><ele>280.0</ele><time>2026-05-05T12:33:44.99Z</time></trkpt><trkpt lat="40.4553661" lon="15.1647677"><ele>280.0</ele><time>2026-05-05T12:33:45.991Z</time></trkpt><trkpt lat="40.4553901" lon="15.1646419"><ele>280.0</ele><time>2026-05-05T12:33:46.992Z</time></trkpt><trkpt lat="40.4554198" lon="15.1645092"><ele>280.0</ele><time>2026-05-05T12:33:47.991Z</time></trkpt><trkpt lat="40.4554489" lon="15.1643711"><ele>280.0</ele><time>2026-05-05T12:33:48.991Z</time></trkpt><trkpt lat="40.4554793" lon="15.1642274"><ele>280.0</ele><time>2026-05-05T12:33:49.992Z</time></trkpt><trkpt lat="40.4555075" lon="15.1640894"><ele>282.4</ele><time>2026-05-05T12:33:50.992Z</time></trkpt><trkpt lat="40.4555378" lon="15.1639507"><ele>284.8</ele><time>2026-05-05T12:33:51.992Z</time></trkpt><trkpt lat="40.4555671" lon="15.1638105"><ele>287.2</ele><time>2026-05-05T12:33:52.992Z</time></trkpt><trkpt lat="40.4555963" lon="15.1636691"><ele>289.6</ele><time>2026-05-05T12:33:53.991Z</time></trkpt><trkpt lat="40.4556269" lon="15.1635307"><ele>292.0</ele><time>2026-05-05T12:33:54.992Z</time></trkpt><trkpt lat="40.4556557" lon="15.1633883"><ele>292.0</ele><time>2026-05-05T12:33:55.991Z</time></trkpt><trkpt lat="40.4556864" lon="15.1632412"><ele>292.0</ele><time>2026-05-05T12:33:56.992Z</time></trkpt><trkpt lat="40.455716" lon="15.1630929"><ele>292.0</ele><time>2026-05-05T12:33:57.992Z</time></trkpt><trkpt lat="40.4557467" lon="15.1629452"><ele>292.0</ele><time>2026-05-05T12:33:58.991Z</time></trkpt><trkpt lat="40.4557749" lon="15.1627994"><ele>294.0</ele><time>2026-05-05T12:33:59.99Z</time></trkpt><trkpt lat="40.4558027" lon="15.1626517"><ele>296.0</ele><time>2026-05-05T12:34:00.991Z</time></trkpt><trkpt lat="40.4558316" lon="15.1625088"><ele>298.0</ele><time>2026-05-05T12:34:01.991Z</time></trkpt><trkpt lat="40.4558608" lon="15.1623759"><ele>300.0</ele><time>2026-05-05T12:34:02.99Z</time></trkpt><trkpt lat="40.4558885" lon="15.1622685"><ele>302.0</ele><time>2026-05-05T12:34:03.992Z</time></trkpt><trkpt lat="40.4559038" lon="15.1621826"><ele>304.0</ele><time>2026-05-05T12:34:04.991Z</time></trkpt><trkpt lat="40.4558788" lon="15.1621007"><ele>304.0</ele><time>2026-05-05T12:34:06.992Z</time></trkpt></trkseg></trk></gpx>